<?xml version="1.0" encoding="UTF-8" standalone="no" ?>
<gpx xmlns="http://www.topografix.com/GPX/1/1" xmlns:xsi="http://www.w3.org/2001/XMLSchema-instance" xsi:schemaLocation="http://www.topografix.com/GPX/1/1 http://www.topografix.com/GPX/1/1/gpx.xsd" version="1.1" creator="VisuGPX - https://www.visugpx.com">
  <metadata>
    <name>lundi 2015 09</name>
    <desc><![CDATA[cumul septembre 2015]]></desc>
  </metadata>
  <trk>
    <name><![CDATA[lundi 2015 09 07]]></name>
    <extensions>
      <line xmlns="http://www.topografix.com/GPX/gpx_style/0/2">
        <color>000000</color>
      </line>
    </extensions>
    <trkseg>
      <trkpt lat="48.85736" lon="2.34728">
        <ele>36</ele>
        <time>2015-09-07T18:19:41Z</time>
      </trkpt>
      <trkpt lat="48.85735" lon="2.34731">
        <ele>38.20000076294</ele>
        <time>2015-09-07T18:19:42Z</time>
      </trkpt>
      <trkpt lat="48.85739" lon="2.34731">
        <ele>35.79999923706</ele>
        <time>2015-09-07T18:19:49Z</time>
      </trkpt>
      <trkpt lat="48.85739" lon="2.34742">
        <ele>36</ele>
        <time>2015-09-07T18:19:53Z</time>
      </trkpt>
      <trkpt lat="48.85759" lon="2.34759">
        <ele>21.39999961853</ele>
        <time>2015-09-07T18:20:01Z</time>
      </trkpt>
      <trkpt lat="48.85764" lon="2.34756">
        <ele>32.400001525879</ele>
        <time>2015-09-07T18:20:04Z</time>
      </trkpt>
      <trkpt lat="48.85779" lon="2.34777">
        <ele>20.799999237061</ele>
        <time>2015-09-07T18:20:13Z</time>
      </trkpt>
      <trkpt lat="48.85793" lon="2.34793">
        <ele>21.200000762939</ele>
        <time>2015-09-07T18:20:18Z</time>
      </trkpt>
      <trkpt lat="48.8581" lon="2.34806">
        <ele>21.200000762939</ele>
        <time>2015-09-07T18:20:23Z</time>
      </trkpt>
      <trkpt lat="48.85828" lon="2.34819">
        <ele>23.39999961853</ele>
        <time>2015-09-07T18:20:29Z</time>
      </trkpt>
      <trkpt lat="48.85849" lon="2.34828">
        <ele>25.60000038147</ele>
        <time>2015-09-07T18:20:35Z</time>
      </trkpt>
      <trkpt lat="48.85868" lon="2.34837">
        <ele>27.799999237061</ele>
        <time>2015-09-07T18:20:40Z</time>
      </trkpt>
      <trkpt lat="48.85886" lon="2.34845">
        <ele>29.200000762939</ele>
        <time>2015-09-07T18:20:44Z</time>
      </trkpt>
      <trkpt lat="48.85904" lon="2.34851">
        <ele>31.60000038147</ele>
        <time>2015-09-07T18:20:49Z</time>
      </trkpt>
      <trkpt lat="48.85922" lon="2.34857">
        <ele>34</ele>
        <time>2015-09-07T18:20:55Z</time>
      </trkpt>
      <trkpt lat="48.8594" lon="2.34864">
        <ele>38.20000076294</ele>
        <time>2015-09-07T18:21:02Z</time>
      </trkpt>
      <trkpt lat="48.8596" lon="2.34868">
        <ele>44.20000076294</ele>
        <time>2015-09-07T18:21:08Z</time>
      </trkpt>
      <trkpt lat="48.85981" lon="2.34874">
        <ele>49.599998474121</ele>
        <time>2015-09-07T18:21:13Z</time>
      </trkpt>
      <trkpt lat="48.86" lon="2.34881">
        <ele>55</ele>
        <time>2015-09-07T18:21:18Z</time>
      </trkpt>
      <trkpt lat="48.8602" lon="2.34891">
        <ele>63</ele>
        <time>2015-09-07T18:21:23Z</time>
      </trkpt>
      <trkpt lat="48.86037" lon="2.34901">
        <ele>70.800003051758</ele>
        <time>2015-09-07T18:21:28Z</time>
      </trkpt>
      <trkpt lat="48.86056" lon="2.34912">
        <ele>83.199996948242</ele>
        <time>2015-09-07T18:21:34Z</time>
      </trkpt>
      <trkpt lat="48.86074" lon="2.34922">
        <ele>91.800003051758</ele>
        <time>2015-09-07T18:21:39Z</time>
      </trkpt>
      <trkpt lat="48.86092" lon="2.34933">
        <ele>99.199996948242</ele>
        <time>2015-09-07T18:21:44Z</time>
      </trkpt>
      <trkpt lat="48.86112" lon="2.34948">
        <ele>105.19999694824</ele>
        <time>2015-09-07T18:21:49Z</time>
      </trkpt>
      <trkpt lat="48.86128" lon="2.34958">
        <ele>109.19999694824</ele>
        <time>2015-09-07T18:21:53Z</time>
      </trkpt>
      <trkpt lat="48.86147" lon="2.34967">
        <ele>114.19999694824</ele>
        <time>2015-09-07T18:21:58Z</time>
      </trkpt>
      <trkpt lat="48.86157" lon="2.34975">
        <ele>112.19999694824</ele>
        <time>2015-09-07T18:22:02Z</time>
      </trkpt>
      <trkpt lat="48.86173" lon="2.34992">
        <ele>106.40000152588</ele>
        <time>2015-09-07T18:22:14Z</time>
      </trkpt>
      <trkpt lat="48.86192" lon="2.35004">
        <ele>102.80000305176</ele>
        <time>2015-09-07T18:22:21Z</time>
      </trkpt>
      <trkpt lat="48.86211" lon="2.3501">
        <ele>101.40000152588</ele>
        <time>2015-09-07T18:22:27Z</time>
      </trkpt>
      <trkpt lat="48.86231" lon="2.35015">
        <ele>102</ele>
        <time>2015-09-07T18:22:33Z</time>
      </trkpt>
      <trkpt lat="48.8625" lon="2.35023">
        <ele>103.40000152588</ele>
        <time>2015-09-07T18:22:38Z</time>
      </trkpt>
      <trkpt lat="48.86268" lon="2.35032">
        <ele>106.80000305176</ele>
        <time>2015-09-07T18:22:43Z</time>
      </trkpt>
      <trkpt lat="48.86288" lon="2.35043">
        <ele>109.40000152588</ele>
        <time>2015-09-07T18:22:48Z</time>
      </trkpt>
      <trkpt lat="48.86305" lon="2.3506">
        <ele>112</ele>
        <time>2015-09-07T18:22:53Z</time>
      </trkpt>
      <trkpt lat="48.86306" lon="2.35091">
        <ele>116</ele>
        <time>2015-09-07T18:22:58Z</time>
      </trkpt>
      <trkpt lat="48.863" lon="2.35117">
        <ele>118.80000305176</ele>
        <time>2015-09-07T18:23:02Z</time>
      </trkpt>
      <trkpt lat="48.86294" lon="2.35144">
        <ele>121.80000305176</ele>
        <time>2015-09-07T18:23:06Z</time>
      </trkpt>
      <trkpt lat="48.86292" lon="2.35176">
        <ele>125.40000152588</ele>
        <time>2015-09-07T18:23:11Z</time>
      </trkpt>
      <trkpt lat="48.86293" lon="2.35183">
        <ele>126.19999694824</ele>
        <time>2015-09-07T18:23:12Z</time>
      </trkpt>
      <trkpt lat="48.86292" lon="2.35196">
        <ele>127.80000305176</ele>
        <time>2015-09-07T18:23:14Z</time>
      </trkpt>
      <trkpt lat="48.86288" lon="2.35223">
        <ele>131.80000305176</ele>
        <time>2015-09-07T18:23:19Z</time>
      </trkpt>
      <trkpt lat="48.86286" lon="2.35252">
        <ele>135.19999694824</ele>
        <time>2015-09-07T18:23:24Z</time>
      </trkpt>
      <trkpt lat="48.86285" lon="2.35275">
        <ele>137.19999694824</ele>
        <time>2015-09-07T18:23:28Z</time>
      </trkpt>
      <trkpt lat="48.8628" lon="2.35305">
        <ele>139</ele>
        <time>2015-09-07T18:23:33Z</time>
      </trkpt>
      <trkpt lat="48.86277" lon="2.35338">
        <ele>141</ele>
        <time>2015-09-07T18:23:39Z</time>
      </trkpt>
      <trkpt lat="48.86272" lon="2.35367">
        <ele>143</ele>
        <time>2015-09-07T18:23:45Z</time>
      </trkpt>
      <trkpt lat="48.86243" lon="2.35381">
        <ele>138.19999694824</ele>
        <time>2015-09-07T18:23:48Z</time>
      </trkpt>
      <trkpt lat="48.8623" lon="2.35379">
        <ele>134.80000305176</ele>
        <time>2015-09-07T18:23:49Z</time>
      </trkpt>
      <trkpt lat="48.8621" lon="2.35372">
        <ele>130.19999694824</ele>
        <time>2015-09-07T18:23:52Z</time>
      </trkpt>
      <trkpt lat="48.86194" lon="2.35365">
        <ele>129</ele>
        <time>2015-09-07T18:23:55Z</time>
      </trkpt>
      <trkpt lat="48.86172" lon="2.35363">
        <ele>129.39999389648</ele>
        <time>2015-09-07T18:23:59Z</time>
      </trkpt>
      <trkpt lat="48.86149" lon="2.35359">
        <ele>129.80000305176</ele>
        <time>2015-09-07T18:24:03Z</time>
      </trkpt>
      <trkpt lat="48.86129" lon="2.35357">
        <ele>129.80000305176</ele>
        <time>2015-09-07T18:24:07Z</time>
      </trkpt>
      <trkpt lat="48.86112" lon="2.35359">
        <ele>123.40000152588</ele>
        <time>2015-09-07T18:24:10Z</time>
      </trkpt>
      <trkpt lat="48.86102" lon="2.35365">
        <ele>114.40000152588</ele>
        <time>2015-09-07T18:24:14Z</time>
      </trkpt>
      <trkpt lat="48.86096" lon="2.35368">
        <ele>111</ele>
        <time>2015-09-07T18:24:18Z</time>
      </trkpt>
      <trkpt lat="48.86091" lon="2.35389">
        <ele>111.80000305176</ele>
        <time>2015-09-07T18:24:25Z</time>
      </trkpt>
      <trkpt lat="48.86088" lon="2.35396">
        <ele>112</ele>
        <time>2015-09-07T18:24:27Z</time>
      </trkpt>
      <trkpt lat="48.86077" lon="2.35423">
        <ele>111.59999847412</ele>
        <time>2015-09-07T18:24:33Z</time>
      </trkpt>
      <trkpt lat="48.86064" lon="2.35447">
        <ele>110.19999694824</ele>
        <time>2015-09-07T18:24:38Z</time>
      </trkpt>
      <trkpt lat="48.86062" lon="2.35476">
        <ele>105.80000305176</ele>
        <time>2015-09-07T18:24:42Z</time>
      </trkpt>
      <trkpt lat="48.86062" lon="2.35512">
        <ele>93.599998474121</ele>
        <time>2015-09-07T18:24:47Z</time>
      </trkpt>
      <trkpt lat="48.86057" lon="2.35541">
        <ele>91.599998474121</ele>
        <time>2015-09-07T18:24:53Z</time>
      </trkpt>
      <trkpt lat="48.86054" lon="2.35571">
        <ele>90.800003051758</ele>
        <time>2015-09-07T18:25:00Z</time>
      </trkpt>
      <trkpt lat="48.86042" lon="2.35601">
        <ele>90.800003051758</ele>
        <time>2015-09-07T18:25:06Z</time>
      </trkpt>
      <trkpt lat="48.86036" lon="2.35627">
        <ele>90.800003051758</ele>
        <time>2015-09-07T18:25:10Z</time>
      </trkpt>
      <trkpt lat="48.86032" lon="2.35656">
        <ele>88</ele>
        <time>2015-09-07T18:25:12Z</time>
      </trkpt>
      <trkpt lat="48.86021" lon="2.3568">
        <ele>86</ele>
        <time>2015-09-07T18:25:16Z</time>
      </trkpt>
      <trkpt lat="48.8602" lon="2.35688">
        <ele>85</ele>
        <time>2015-09-07T18:25:18Z</time>
      </trkpt>
      <trkpt lat="48.86026" lon="2.357">
        <ele>82.800003051758</ele>
        <time>2015-09-07T18:25:22Z</time>
      </trkpt>
      <trkpt lat="48.86028" lon="2.35701">
        <ele>82.599998474121</ele>
        <time>2015-09-07T18:25:23Z</time>
      </trkpt>
      <trkpt lat="48.86011" lon="2.3572">
        <ele>83.199996948242</ele>
        <time>2015-09-07T18:25:32Z</time>
      </trkpt>
      <trkpt lat="48.85998" lon="2.35725">
        <ele>86.199996948242</ele>
        <time>2015-09-07T18:25:41Z</time>
      </trkpt>
      <trkpt lat="48.85986" lon="2.35733">
        <ele>87.199996948242</ele>
        <time>2015-09-07T18:25:42Z</time>
      </trkpt>
      <trkpt lat="48.85965" lon="2.35755">
        <ele>88.800003051758</ele>
        <time>2015-09-07T18:25:44Z</time>
      </trkpt>
      <trkpt lat="48.85956" lon="2.35772">
        <ele>93</ele>
        <time>2015-09-07T18:25:47Z</time>
      </trkpt>
      <trkpt lat="48.85952" lon="2.35777">
        <ele>93.800003051758</ele>
        <time>2015-09-07T18:25:48Z</time>
      </trkpt>
      <trkpt lat="48.85935" lon="2.35805">
        <ele>97.199996948242</ele>
        <time>2015-09-07T18:25:51Z</time>
      </trkpt>
      <trkpt lat="48.85918" lon="2.35821">
        <ele>97.400001525879</ele>
        <time>2015-09-07T18:25:53Z</time>
      </trkpt>
      <trkpt lat="48.85905" lon="2.35847">
        <ele>96.599998474121</ele>
        <time>2015-09-07T18:25:55Z</time>
      </trkpt>
      <trkpt lat="48.85889" lon="2.35868">
        <ele>96.400001525879</ele>
        <time>2015-09-07T18:25:58Z</time>
      </trkpt>
      <trkpt lat="48.85871" lon="2.35888">
        <ele>95.800003051758</ele>
        <time>2015-09-07T18:26:02Z</time>
      </trkpt>
      <trkpt lat="48.85854" lon="2.3591">
        <ele>95.599998474121</ele>
        <time>2015-09-07T18:26:06Z</time>
      </trkpt>
      <trkpt lat="48.85844" lon="2.35928">
        <ele>96.199996948242</ele>
        <time>2015-09-07T18:26:11Z</time>
      </trkpt>
      <trkpt lat="48.85822" lon="2.35949">
        <ele>96.599998474121</ele>
        <time>2015-09-07T18:26:15Z</time>
      </trkpt>
      <trkpt lat="48.85813" lon="2.35961">
        <ele>96.599998474121</ele>
        <time>2015-09-07T18:26:17Z</time>
      </trkpt>
      <trkpt lat="48.85802" lon="2.35988">
        <ele>97.199996948242</ele>
        <time>2015-09-07T18:26:21Z</time>
      </trkpt>
      <trkpt lat="48.85797" lon="2.36003">
        <ele>97.599998474121</ele>
        <time>2015-09-07T18:26:22Z</time>
      </trkpt>
      <trkpt lat="48.85784" lon="2.36031">
        <ele>99.599998474121</ele>
        <time>2015-09-07T18:26:26Z</time>
      </trkpt>
      <trkpt lat="48.85778" lon="2.3605">
        <ele>100</ele>
        <time>2015-09-07T18:26:29Z</time>
      </trkpt>
      <trkpt lat="48.8577" lon="2.36078">
        <ele>100.59999847412</ele>
        <time>2015-09-07T18:26:33Z</time>
      </trkpt>
      <trkpt lat="48.85762" lon="2.36105">
        <ele>101.80000305176</ele>
        <time>2015-09-07T18:26:37Z</time>
      </trkpt>
      <trkpt lat="48.85758" lon="2.36117">
        <ele>102.40000152588</ele>
        <time>2015-09-07T18:26:39Z</time>
      </trkpt>
      <trkpt lat="48.85746" lon="2.36144">
        <ele>103</ele>
        <time>2015-09-07T18:26:44Z</time>
      </trkpt>
      <trkpt lat="48.8574" lon="2.36158">
        <ele>102.59999847412</ele>
        <time>2015-09-07T18:26:47Z</time>
      </trkpt>
      <trkpt lat="48.85729" lon="2.36188">
        <ele>103</ele>
        <time>2015-09-07T18:26:53Z</time>
      </trkpt>
      <trkpt lat="48.85714" lon="2.3621">
        <ele>101</ele>
        <time>2015-09-07T18:26:57Z</time>
      </trkpt>
      <trkpt lat="48.85708" lon="2.36228">
        <ele>100.40000152588</ele>
        <time>2015-09-07T18:27:00Z</time>
      </trkpt>
      <trkpt lat="48.85695" lon="2.36252">
        <ele>99.199996948242</ele>
        <time>2015-09-07T18:27:05Z</time>
      </trkpt>
      <trkpt lat="48.85686" lon="2.36279">
        <ele>99</ele>
        <time>2015-09-07T18:27:09Z</time>
      </trkpt>
      <trkpt lat="48.85678" lon="2.3631">
        <ele>99.400001525879</ele>
        <time>2015-09-07T18:27:15Z</time>
      </trkpt>
      <trkpt lat="48.85671" lon="2.36321">
        <ele>99.199996948242</ele>
        <time>2015-09-07T18:27:16Z</time>
      </trkpt>
      <trkpt lat="48.8566" lon="2.36343">
        <ele>98.800003051758</ele>
        <time>2015-09-07T18:27:18Z</time>
      </trkpt>
      <trkpt lat="48.85649" lon="2.36373">
        <ele>98.800003051758</ele>
        <time>2015-09-07T18:27:22Z</time>
      </trkpt>
      <trkpt lat="48.85647" lon="2.36391">
        <ele>98.199996948242</ele>
        <time>2015-09-07T18:27:26Z</time>
      </trkpt>
      <trkpt lat="48.85643" lon="2.36407">
        <ele>95.599998474121</ele>
        <time>2015-09-07T18:27:30Z</time>
      </trkpt>
      <trkpt lat="48.85641" lon="2.36414">
        <ele>95.400001525879</ele>
        <time>2015-09-07T18:27:32Z</time>
      </trkpt>
      <trkpt lat="48.85639" lon="2.36444">
        <ele>95.400001525879</ele>
        <time>2015-09-07T18:27:37Z</time>
      </trkpt>
      <trkpt lat="48.85627" lon="2.36476">
        <ele>94.800003051758</ele>
        <time>2015-09-07T18:27:41Z</time>
      </trkpt>
      <trkpt lat="48.85624" lon="2.36491">
        <ele>95</ele>
        <time>2015-09-07T18:27:43Z</time>
      </trkpt>
      <trkpt lat="48.85617" lon="2.36523">
        <ele>94.800003051758</ele>
        <time>2015-09-07T18:27:47Z</time>
      </trkpt>
      <trkpt lat="48.85613" lon="2.36553">
        <ele>96</ele>
        <time>2015-09-07T18:27:51Z</time>
      </trkpt>
      <trkpt lat="48.8561" lon="2.36576">
        <ele>96.599998474121</ele>
        <time>2015-09-07T18:27:54Z</time>
      </trkpt>
      <trkpt lat="48.85608" lon="2.36605">
        <ele>97.800003051758</ele>
        <time>2015-09-07T18:27:58Z</time>
      </trkpt>
      <trkpt lat="48.85607" lon="2.36622">
        <ele>99</ele>
        <time>2015-09-07T18:28:01Z</time>
      </trkpt>
      <trkpt lat="48.85588" lon="2.36618">
        <ele>103</ele>
        <time>2015-09-07T18:28:07Z</time>
      </trkpt>
      <trkpt lat="48.85565" lon="2.36618">
        <ele>105.80000305176</ele>
        <time>2015-09-07T18:28:10Z</time>
      </trkpt>
      <trkpt lat="48.8555" lon="2.36616">
        <ele>107.40000152588</ele>
        <time>2015-09-07T18:28:12Z</time>
      </trkpt>
      <trkpt lat="48.8553" lon="2.36615">
        <ele>109.40000152588</ele>
        <time>2015-09-07T18:28:15Z</time>
      </trkpt>
      <trkpt lat="48.85512" lon="2.36614">
        <ele>110.80000305176</ele>
        <time>2015-09-07T18:28:18Z</time>
      </trkpt>
      <trkpt lat="48.85492" lon="2.3661">
        <ele>113</ele>
        <time>2015-09-07T18:28:22Z</time>
      </trkpt>
      <trkpt lat="48.85488" lon="2.36608">
        <ele>113.40000152588</ele>
        <time>2015-09-07T18:28:23Z</time>
      </trkpt>
      <trkpt lat="48.85482" lon="2.3658">
        <ele>115</ele>
        <time>2015-09-07T18:28:27Z</time>
      </trkpt>
      <trkpt lat="48.85503" lon="2.36563">
        <ele>103.80000305176</ele>
        <time>2015-09-07T18:28:31Z</time>
      </trkpt>
      <trkpt lat="48.85509" lon="2.36552">
        <ele>97</ele>
        <time>2015-09-07T18:28:36Z</time>
      </trkpt>
      <trkpt lat="48.8549" lon="2.36548">
        <ele>93.599998474121</ele>
        <time>2015-09-07T18:28:38Z</time>
      </trkpt>
      <trkpt lat="48.85472" lon="2.36539">
        <ele>91.199996948242</ele>
        <time>2015-09-07T18:28:42Z</time>
      </trkpt>
      <trkpt lat="48.85466" lon="2.36537">
        <ele>90.800003051758</ele>
        <time>2015-09-07T18:28:43Z</time>
      </trkpt>
      <trkpt lat="48.85447" lon="2.36528">
        <ele>89.800003051758</ele>
        <time>2015-09-07T18:28:47Z</time>
      </trkpt>
      <trkpt lat="48.85444" lon="2.36527">
        <ele>89.599998474121</ele>
        <time>2015-09-07T18:28:48Z</time>
      </trkpt>
      <trkpt lat="48.85422" lon="2.36522">
        <ele>87</ele>
        <time>2015-09-07T18:28:53Z</time>
      </trkpt>
      <trkpt lat="48.85403" lon="2.36514">
        <ele>85</ele>
        <time>2015-09-07T18:28:57Z</time>
      </trkpt>
      <trkpt lat="48.8539" lon="2.36496">
        <ele>81</ele>
        <time>2015-09-07T18:29:04Z</time>
      </trkpt>
      <trkpt lat="48.85387" lon="2.36469">
        <ele>72.800003051758</ele>
        <time>2015-09-07T18:29:27Z</time>
      </trkpt>
      <trkpt lat="48.8538" lon="2.36443">
        <ele>71.800003051758</ele>
        <time>2015-09-07T18:29:34Z</time>
      </trkpt>
      <trkpt lat="48.85364" lon="2.36428">
        <ele>71</ele>
        <time>2015-09-07T18:29:38Z</time>
      </trkpt>
      <trkpt lat="48.85354" lon="2.36421">
        <ele>70.800003051758</ele>
        <time>2015-09-07T18:29:40Z</time>
      </trkpt>
      <trkpt lat="48.85334" lon="2.36407">
        <ele>70.199996948242</ele>
        <time>2015-09-07T18:29:44Z</time>
      </trkpt>
      <trkpt lat="48.85315" lon="2.36393">
        <ele>69.599998474121</ele>
        <time>2015-09-07T18:29:48Z</time>
      </trkpt>
      <trkpt lat="48.85297" lon="2.36378">
        <ele>68.800003051758</ele>
        <time>2015-09-07T18:29:52Z</time>
      </trkpt>
      <trkpt lat="48.8528" lon="2.36361">
        <ele>67.800003051758</ele>
        <time>2015-09-07T18:29:56Z</time>
      </trkpt>
      <trkpt lat="48.85266" lon="2.36342">
        <ele>67.400001525879</ele>
        <time>2015-09-07T18:30:01Z</time>
      </trkpt>
      <trkpt lat="48.85263" lon="2.36337">
        <ele>66.800003051758</ele>
        <time>2015-09-07T18:30:04Z</time>
      </trkpt>
      <trkpt lat="48.85248" lon="2.36356">
        <ele>65.199996948242</ele>
        <time>2015-09-07T18:30:11Z</time>
      </trkpt>
      <trkpt lat="48.85232" lon="2.36364">
        <ele>63.599998474121</ele>
        <time>2015-09-07T18:30:18Z</time>
      </trkpt>
      <trkpt lat="48.85231" lon="2.36355">
        <ele>63.20000076294</ele>
        <time>2015-09-07T18:30:19Z</time>
      </trkpt>
      <trkpt lat="48.85217" lon="2.36336">
        <ele>61</ele>
        <time>2015-09-07T18:30:24Z</time>
      </trkpt>
      <trkpt lat="48.85201" lon="2.36313">
        <ele>59.599998474121</ele>
        <time>2015-09-07T18:30:29Z</time>
      </trkpt>
      <trkpt lat="48.85189" lon="2.3631">
        <ele>58</ele>
        <time>2015-09-07T18:30:34Z</time>
      </trkpt>
      <trkpt lat="48.85174" lon="2.3633">
        <ele>56.599998474121</ele>
        <time>2015-09-07T18:30:40Z</time>
      </trkpt>
      <trkpt lat="48.85161" lon="2.3635">
        <ele>54.599998474121</ele>
        <time>2015-09-07T18:30:47Z</time>
      </trkpt>
      <trkpt lat="48.85159" lon="2.3635">
        <ele>54.599998474121</ele>
        <time>2015-09-07T18:30:48Z</time>
      </trkpt>
      <trkpt lat="48.8515" lon="2.3634">
        <ele>54.400001525879</ele>
        <time>2015-09-07T18:30:52Z</time>
      </trkpt>
      <trkpt lat="48.85137" lon="2.36319">
        <ele>53</ele>
        <time>2015-09-07T18:30:57Z</time>
      </trkpt>
      <trkpt lat="48.85125" lon="2.36295">
        <ele>48.79999923706</ele>
        <time>2015-09-07T18:31:02Z</time>
      </trkpt>
      <trkpt lat="48.85118" lon="2.36285">
        <ele>45.599998474121</ele>
        <time>2015-09-07T18:31:06Z</time>
      </trkpt>
      <trkpt lat="48.85106" lon="2.36294">
        <ele>43.400001525879</ele>
        <time>2015-09-07T18:31:13Z</time>
      </trkpt>
      <trkpt lat="48.85089" lon="2.36311">
        <ele>42.79999923706</ele>
        <time>2015-09-07T18:31:21Z</time>
      </trkpt>
      <trkpt lat="48.85074" lon="2.36328">
        <ele>45.20000076294</ele>
        <time>2015-09-07T18:31:26Z</time>
      </trkpt>
      <trkpt lat="48.85056" lon="2.36344">
        <ele>47.79999923706</ele>
        <time>2015-09-07T18:31:30Z</time>
      </trkpt>
      <trkpt lat="48.85039" lon="2.36359">
        <ele>49.79999923706</ele>
        <time>2015-09-07T18:31:34Z</time>
      </trkpt>
      <trkpt lat="48.85022" lon="2.36374">
        <ele>51</ele>
        <time>2015-09-07T18:31:38Z</time>
      </trkpt>
      <trkpt lat="48.85007" lon="2.36391">
        <ele>49</ele>
        <time>2015-09-07T18:31:42Z</time>
      </trkpt>
      <trkpt lat="48.84993" lon="2.36409">
        <ele>48.599998474121</ele>
        <time>2015-09-07T18:31:47Z</time>
      </trkpt>
      <trkpt lat="48.84979" lon="2.36428">
        <ele>49.400001525879</ele>
        <time>2015-09-07T18:31:53Z</time>
      </trkpt>
      <trkpt lat="48.84974" lon="2.36444">
        <ele>49.79999923706</ele>
        <time>2015-09-07T18:31:58Z</time>
      </trkpt>
      <trkpt lat="48.84968" lon="2.36472">
        <ele>50</ele>
        <time>2015-09-07T18:32:03Z</time>
      </trkpt>
      <trkpt lat="48.84966" lon="2.36502">
        <ele>50.400001525879</ele>
        <time>2015-09-07T18:32:08Z</time>
      </trkpt>
      <trkpt lat="48.84966" lon="2.36533">
        <ele>52.400001525879</ele>
        <time>2015-09-07T18:32:14Z</time>
      </trkpt>
      <trkpt lat="48.84962" lon="2.3656">
        <ele>55.400001525879</ele>
        <time>2015-09-07T18:32:21Z</time>
      </trkpt>
      <trkpt lat="48.8496" lon="2.3659">
        <ele>58.20000076294</ele>
        <time>2015-09-07T18:32:27Z</time>
      </trkpt>
      <trkpt lat="48.84958" lon="2.36623">
        <ele>54.599998474121</ele>
        <time>2015-09-07T18:32:32Z</time>
      </trkpt>
      <trkpt lat="48.84942" lon="2.36649">
        <ele>50</ele>
        <time>2015-09-07T18:32:35Z</time>
      </trkpt>
      <trkpt lat="48.8493" lon="2.36671">
        <ele>47.400001525879</ele>
        <time>2015-09-07T18:32:56Z</time>
      </trkpt>
      <trkpt lat="48.84926" lon="2.367">
        <ele>46.400001525879</ele>
        <time>2015-09-07T18:33:04Z</time>
      </trkpt>
      <trkpt lat="48.84921" lon="2.36728">
        <ele>41</ele>
        <time>2015-09-07T18:33:14Z</time>
      </trkpt>
      <trkpt lat="48.84915" lon="2.36757">
        <ele>39.599998474121</ele>
        <time>2015-09-07T18:33:20Z</time>
      </trkpt>
      <trkpt lat="48.84909" lon="2.36783">
        <ele>38.79999923706</ele>
        <time>2015-09-07T18:33:27Z</time>
      </trkpt>
      <trkpt lat="48.84902" lon="2.36805">
        <ele>40.20000076294</ele>
        <time>2015-09-07T18:33:37Z</time>
      </trkpt>
      <trkpt lat="48.84891" lon="2.36809">
        <ele>40.79999923706</ele>
        <time>2015-09-07T18:33:46Z</time>
      </trkpt>
      <trkpt lat="48.84887" lon="2.36836">
        <ele>40.79999923706</ele>
        <time>2015-09-07T18:33:53Z</time>
      </trkpt>
      <trkpt lat="48.8489" lon="2.36868">
        <ele>40.79999923706</ele>
        <time>2015-09-07T18:33:58Z</time>
      </trkpt>
      <trkpt lat="48.8489" lon="2.36875">
        <ele>40.599998474121</ele>
        <time>2015-09-07T18:33:59Z</time>
      </trkpt>
      <trkpt lat="48.84891" lon="2.36909">
        <ele>40.400001525879</ele>
        <time>2015-09-07T18:34:04Z</time>
      </trkpt>
      <trkpt lat="48.84892" lon="2.36937">
        <ele>40</ele>
        <time>2015-09-07T18:34:08Z</time>
      </trkpt>
      <trkpt lat="48.84893" lon="2.36969">
        <ele>39</ele>
        <time>2015-09-07T18:34:13Z</time>
      </trkpt>
      <trkpt lat="48.84894" lon="2.37001">
        <ele>38.20000076294</ele>
        <time>2015-09-07T18:34:18Z</time>
      </trkpt>
      <trkpt lat="48.84895" lon="2.37034">
        <ele>37.79999923706</ele>
        <time>2015-09-07T18:34:23Z</time>
      </trkpt>
      <trkpt lat="48.84898" lon="2.37063">
        <ele>38.79999923706</ele>
        <time>2015-09-07T18:34:28Z</time>
      </trkpt>
      <trkpt lat="48.84899" lon="2.37081">
        <ele>38.599998474121</ele>
        <time>2015-09-07T18:34:31Z</time>
      </trkpt>
      <trkpt lat="48.84886" lon="2.37101">
        <ele>37.400001525879</ele>
        <time>2015-09-07T18:34:36Z</time>
      </trkpt>
      <trkpt lat="48.84881" lon="2.37103">
        <ele>37</ele>
        <time>2015-09-07T18:34:37Z</time>
      </trkpt>
      <trkpt lat="48.84876" lon="2.37105">
        <ele>36.79999923706</ele>
        <time>2015-09-07T18:34:38Z</time>
      </trkpt>
      <trkpt lat="48.84858" lon="2.37113">
        <ele>36.20000076294</ele>
        <time>2015-09-07T18:34:42Z</time>
      </trkpt>
      <trkpt lat="48.84839" lon="2.37125">
        <ele>36</ele>
        <time>2015-09-07T18:34:46Z</time>
      </trkpt>
      <trkpt lat="48.84821" lon="2.37136">
        <ele>35.599998474121</ele>
        <time>2015-09-07T18:34:50Z</time>
      </trkpt>
      <trkpt lat="48.848" lon="2.37149">
        <ele>35</ele>
        <time>2015-09-07T18:34:54Z</time>
      </trkpt>
      <trkpt lat="48.84783" lon="2.37158">
        <ele>34.79999923706</ele>
        <time>2015-09-07T18:34:57Z</time>
      </trkpt>
      <trkpt lat="48.84761" lon="2.37165">
        <ele>35</ele>
        <time>2015-09-07T18:35:01Z</time>
      </trkpt>
      <trkpt lat="48.84739" lon="2.37175">
        <ele>35</ele>
        <time>2015-09-07T18:35:05Z</time>
      </trkpt>
      <trkpt lat="48.84717" lon="2.37186">
        <ele>35</ele>
        <time>2015-09-07T18:35:09Z</time>
      </trkpt>
      <trkpt lat="48.84697" lon="2.37198">
        <ele>35.20000076294</ele>
        <time>2015-09-07T18:35:13Z</time>
      </trkpt>
      <trkpt lat="48.84678" lon="2.37211">
        <ele>35.20000076294</ele>
        <time>2015-09-07T18:35:17Z</time>
      </trkpt>
      <trkpt lat="48.84659" lon="2.3722">
        <ele>35</ele>
        <time>2015-09-07T18:35:21Z</time>
      </trkpt>
      <trkpt lat="48.84638" lon="2.37228">
        <ele>35</ele>
        <time>2015-09-07T18:35:25Z</time>
      </trkpt>
      <trkpt lat="48.84616" lon="2.37237">
        <ele>35.400001525879</ele>
        <time>2015-09-07T18:35:30Z</time>
      </trkpt>
      <trkpt lat="48.84599" lon="2.37246">
        <ele>35</ele>
        <time>2015-09-07T18:35:33Z</time>
      </trkpt>
      <trkpt lat="48.84593" lon="2.37248">
        <ele>34.79999923706</ele>
        <time>2015-09-07T18:35:34Z</time>
      </trkpt>
      <trkpt lat="48.84574" lon="2.37264">
        <ele>35.20000076294</ele>
        <time>2015-09-07T18:35:39Z</time>
      </trkpt>
      <trkpt lat="48.8457" lon="2.37289">
        <ele>34.400001525879</ele>
        <time>2015-09-07T18:35:44Z</time>
      </trkpt>
      <trkpt lat="48.84571" lon="2.37302">
        <ele>34.79999923706</ele>
        <time>2015-09-07T18:35:46Z</time>
      </trkpt>
      <trkpt lat="48.84575" lon="2.37332">
        <ele>36.79999923706</ele>
        <time>2015-09-07T18:35:51Z</time>
      </trkpt>
      <trkpt lat="48.84581" lon="2.37362">
        <ele>39.400001525879</ele>
        <time>2015-09-07T18:35:57Z</time>
      </trkpt>
      <trkpt lat="48.84582" lon="2.37367">
        <ele>39.79999923706</ele>
        <time>2015-09-07T18:35:58Z</time>
      </trkpt>
      <trkpt lat="48.84586" lon="2.37383">
        <ele>42.20000076294</ele>
        <time>2015-09-07T18:36:03Z</time>
      </trkpt>
      <trkpt lat="48.84587" lon="2.37389">
        <ele>43.79999923706</ele>
        <time>2015-09-07T18:36:05Z</time>
      </trkpt>
      <trkpt lat="48.84592" lon="2.37404">
        <ele>45.400001525879</ele>
        <time>2015-09-07T18:36:10Z</time>
      </trkpt>
      <trkpt lat="48.84593" lon="2.3741">
        <ele>45.79999923706</ele>
        <time>2015-09-07T18:36:12Z</time>
      </trkpt>
      <trkpt lat="48.84585" lon="2.37425">
        <ele>47.79999923706</ele>
        <time>2015-09-07T18:36:17Z</time>
      </trkpt>
      <trkpt lat="48.8457" lon="2.37444">
        <ele>51</ele>
        <time>2015-09-07T18:36:21Z</time>
      </trkpt>
      <trkpt lat="48.84552" lon="2.3747">
        <ele>50.79999923706</ele>
        <time>2015-09-07T18:36:25Z</time>
      </trkpt>
      <trkpt lat="48.84538" lon="2.37488">
        <ele>40.79999923706</ele>
        <time>2015-09-07T18:36:27Z</time>
      </trkpt>
      <trkpt lat="48.84524" lon="2.37509">
        <ele>37.400001525879</ele>
        <time>2015-09-07T18:36:30Z</time>
      </trkpt>
      <trkpt lat="48.8451" lon="2.37531">
        <ele>38.20000076294</ele>
        <time>2015-09-07T18:36:33Z</time>
      </trkpt>
      <trkpt lat="48.84495" lon="2.37558">
        <ele>38.599998474121</ele>
        <time>2015-09-07T18:36:36Z</time>
      </trkpt>
      <trkpt lat="48.84481" lon="2.37585">
        <ele>38.400001525879</ele>
        <time>2015-09-07T18:36:39Z</time>
      </trkpt>
      <trkpt lat="48.84467" lon="2.37611">
        <ele>38.20000076294</ele>
        <time>2015-09-07T18:36:42Z</time>
      </trkpt>
      <trkpt lat="48.84453" lon="2.37634">
        <ele>38</ele>
        <time>2015-09-07T18:36:45Z</time>
      </trkpt>
      <trkpt lat="48.84441" lon="2.37658">
        <ele>37.79999923706</ele>
        <time>2015-09-07T18:36:48Z</time>
      </trkpt>
      <trkpt lat="48.84428" lon="2.37682">
        <ele>37.599998474121</ele>
        <time>2015-09-07T18:36:51Z</time>
      </trkpt>
      <trkpt lat="48.84357" lon="2.37901">
        <ele>28.200000762939</ele>
        <time>2015-09-07T18:37:26Z</time>
      </trkpt>
      <trkpt lat="48.84358" lon="2.3793">
        <ele>31.200000762939</ele>
        <time>2015-09-07T18:37:31Z</time>
      </trkpt>
      <trkpt lat="48.8437" lon="2.37956">
        <ele>33.79999923706</ele>
        <time>2015-09-07T18:37:37Z</time>
      </trkpt>
      <trkpt lat="48.8438" lon="2.3798">
        <ele>38</ele>
        <time>2015-09-07T18:37:42Z</time>
      </trkpt>
      <trkpt lat="48.8439" lon="2.38004">
        <ele>40</ele>
        <time>2015-09-07T18:37:47Z</time>
      </trkpt>
      <trkpt lat="48.84398" lon="2.38031">
        <ele>40.79999923706</ele>
        <time>2015-09-07T18:37:52Z</time>
      </trkpt>
      <trkpt lat="48.84409" lon="2.3806">
        <ele>41.20000076294</ele>
        <time>2015-09-07T18:37:57Z</time>
      </trkpt>
      <trkpt lat="48.84419" lon="2.3809">
        <ele>41</ele>
        <time>2015-09-07T18:38:02Z</time>
      </trkpt>
      <trkpt lat="48.84429" lon="2.38119">
        <ele>39.20000076294</ele>
        <time>2015-09-07T18:38:07Z</time>
      </trkpt>
      <trkpt lat="48.84435" lon="2.38146">
        <ele>38.79999923706</ele>
        <time>2015-09-07T18:38:13Z</time>
      </trkpt>
      <trkpt lat="48.84424" lon="2.38171">
        <ele>40.79999923706</ele>
        <time>2015-09-07T18:38:19Z</time>
      </trkpt>
      <trkpt lat="48.8441" lon="2.38192">
        <ele>47.400001525879</ele>
        <time>2015-09-07T18:38:26Z</time>
      </trkpt>
      <trkpt lat="48.84396" lon="2.38217">
        <ele>51</ele>
        <time>2015-09-07T18:38:32Z</time>
      </trkpt>
      <trkpt lat="48.84386" lon="2.38243">
        <ele>53</ele>
        <time>2015-09-07T18:38:37Z</time>
      </trkpt>
      <trkpt lat="48.84375" lon="2.38273">
        <ele>54.79999923706</ele>
        <time>2015-09-07T18:38:42Z</time>
      </trkpt>
      <trkpt lat="48.84366" lon="2.38298">
        <ele>56.599998474121</ele>
        <time>2015-09-07T18:38:46Z</time>
      </trkpt>
      <trkpt lat="48.84357" lon="2.38325">
        <ele>59.20000076294</ele>
        <time>2015-09-07T18:38:50Z</time>
      </trkpt>
      <trkpt lat="48.84345" lon="2.38354">
        <ele>62.599998474121</ele>
        <time>2015-09-07T18:38:54Z</time>
      </trkpt>
      <trkpt lat="48.84335" lon="2.38375">
        <ele>64.199996948242</ele>
        <time>2015-09-07T18:38:57Z</time>
      </trkpt>
      <trkpt lat="48.84325" lon="2.38397">
        <ele>65.599998474121</ele>
        <time>2015-09-07T18:39:00Z</time>
      </trkpt>
      <trkpt lat="48.84311" lon="2.38425">
        <ele>68.199996948242</ele>
        <time>2015-09-07T18:39:04Z</time>
      </trkpt>
      <trkpt lat="48.84297" lon="2.38452">
        <ele>70.599998474121</ele>
        <time>2015-09-07T18:39:08Z</time>
      </trkpt>
      <trkpt lat="48.84293" lon="2.38458">
        <ele>71</ele>
        <time>2015-09-07T18:39:09Z</time>
      </trkpt>
      <trkpt lat="48.84282" lon="2.38484">
        <ele>74.199996948242</ele>
        <time>2015-09-07T18:39:13Z</time>
      </trkpt>
      <trkpt lat="48.84274" lon="2.38501">
        <ele>77.400001525879</ele>
        <time>2015-09-07T18:39:16Z</time>
      </trkpt>
      <trkpt lat="48.84264" lon="2.38527">
        <ele>80</ele>
        <time>2015-09-07T18:39:20Z</time>
      </trkpt>
      <trkpt lat="48.84261" lon="2.38551">
        <ele>78.199996948242</ele>
        <time>2015-09-07T18:39:23Z</time>
      </trkpt>
      <trkpt lat="48.84255" lon="2.38582">
        <ele>81</ele>
        <time>2015-09-07T18:39:28Z</time>
      </trkpt>
      <trkpt lat="48.84255" lon="2.38594">
        <ele>83.599998474121</ele>
        <time>2015-09-07T18:39:30Z</time>
      </trkpt>
      <trkpt lat="48.84251" lon="2.38628">
        <ele>90.199996948242</ele>
        <time>2015-09-07T18:39:36Z</time>
      </trkpt>
      <trkpt lat="48.8425" lon="2.38634">
        <ele>90.400001525879</ele>
        <time>2015-09-07T18:39:37Z</time>
      </trkpt>
      <trkpt lat="48.84241" lon="2.38656">
        <ele>92.400001525879</ele>
        <time>2015-09-07T18:39:41Z</time>
      </trkpt>
      <trkpt lat="48.84232" lon="2.38682">
        <ele>94.800003051758</ele>
        <time>2015-09-07T18:39:46Z</time>
      </trkpt>
      <trkpt lat="48.84217" lon="2.38707">
        <ele>93.800003051758</ele>
        <time>2015-09-07T18:39:51Z</time>
      </trkpt>
      <trkpt lat="48.84207" lon="2.38712">
        <ele>92.599998474121</ele>
        <time>2015-09-07T18:39:53Z</time>
      </trkpt>
      <trkpt lat="48.84192" lon="2.38731">
        <ele>89.599998474121</ele>
        <time>2015-09-07T18:39:57Z</time>
      </trkpt>
      <trkpt lat="48.8418" lon="2.3875">
        <ele>87.199996948242</ele>
        <time>2015-09-07T18:40:00Z</time>
      </trkpt>
      <trkpt lat="48.84171" lon="2.38775">
        <ele>87.199996948242</ele>
        <time>2015-09-07T18:40:04Z</time>
      </trkpt>
      <trkpt lat="48.84164" lon="2.38793">
        <ele>89.199996948242</ele>
        <time>2015-09-07T18:40:07Z</time>
      </trkpt>
      <trkpt lat="48.84151" lon="2.38827">
        <ele>89.599998474121</ele>
        <time>2015-09-07T18:40:11Z</time>
      </trkpt>
      <trkpt lat="48.84139" lon="2.38854">
        <ele>90.199996948242</ele>
        <time>2015-09-07T18:40:14Z</time>
      </trkpt>
      <trkpt lat="48.8413" lon="2.38883">
        <ele>90.800003051758</ele>
        <time>2015-09-07T18:40:17Z</time>
      </trkpt>
      <trkpt lat="48.8412" lon="2.38915">
        <ele>91.199996948242</ele>
        <time>2015-09-07T18:40:20Z</time>
      </trkpt>
      <trkpt lat="48.84112" lon="2.38945">
        <ele>92</ele>
        <time>2015-09-07T18:40:23Z</time>
      </trkpt>
      <trkpt lat="48.84103" lon="2.38976">
        <ele>93</ele>
        <time>2015-09-07T18:40:26Z</time>
      </trkpt>
      <trkpt lat="48.84095" lon="2.39007">
        <ele>94</ele>
        <time>2015-09-07T18:40:29Z</time>
      </trkpt>
      <trkpt lat="48.84088" lon="2.39035">
        <ele>95</ele>
        <time>2015-09-07T18:40:32Z</time>
      </trkpt>
      <trkpt lat="48.84085" lon="2.39044">
        <ele>95.400001525879</ele>
        <time>2015-09-07T18:40:33Z</time>
      </trkpt>
      <trkpt lat="48.84078" lon="2.39071">
        <ele>96.199996948242</ele>
        <time>2015-09-07T18:40:36Z</time>
      </trkpt>
      <trkpt lat="48.84072" lon="2.391">
        <ele>97</ele>
        <time>2015-09-07T18:40:39Z</time>
      </trkpt>
      <trkpt lat="48.84066" lon="2.39128">
        <ele>97</ele>
        <time>2015-09-07T18:40:42Z</time>
      </trkpt>
      <trkpt lat="48.84061" lon="2.39158">
        <ele>95.400001525879</ele>
        <time>2015-09-07T18:40:45Z</time>
      </trkpt>
      <trkpt lat="48.84059" lon="2.39186">
        <ele>93.599998474121</ele>
        <time>2015-09-07T18:40:48Z</time>
      </trkpt>
      <trkpt lat="48.84051" lon="2.39219">
        <ele>93.199996948242</ele>
        <time>2015-09-07T18:40:52Z</time>
      </trkpt>
      <trkpt lat="48.84046" lon="2.39239">
        <ele>93.599998474121</ele>
        <time>2015-09-07T18:40:54Z</time>
      </trkpt>
      <trkpt lat="48.8404" lon="2.39257">
        <ele>93.800003051758</ele>
        <time>2015-09-07T18:40:56Z</time>
      </trkpt>
      <trkpt lat="48.84032" lon="2.39287">
        <ele>93.599998474121</ele>
        <time>2015-09-07T18:40:59Z</time>
      </trkpt>
      <trkpt lat="48.84023" lon="2.39316">
        <ele>93.400001525879</ele>
        <time>2015-09-07T18:41:02Z</time>
      </trkpt>
      <trkpt lat="48.84016" lon="2.39344">
        <ele>93.599998474121</ele>
        <time>2015-09-07T18:41:05Z</time>
      </trkpt>
      <trkpt lat="48.84009" lon="2.3937">
        <ele>93.199996948242</ele>
        <time>2015-09-07T18:41:08Z</time>
      </trkpt>
      <trkpt lat="48.84003" lon="2.39396">
        <ele>93.800003051758</ele>
        <time>2015-09-07T18:41:11Z</time>
      </trkpt>
      <trkpt lat="48.83997" lon="2.39428">
        <ele>93</ele>
        <time>2015-09-07T18:41:15Z</time>
      </trkpt>
      <trkpt lat="48.83996" lon="2.39436">
        <ele>91.599998474121</ele>
        <time>2015-09-07T18:41:16Z</time>
      </trkpt>
      <trkpt lat="48.83991" lon="2.39458">
        <ele>87.400001525879</ele>
        <time>2015-09-07T18:41:19Z</time>
      </trkpt>
      <trkpt lat="48.83983" lon="2.39485">
        <ele>80.199996948242</ele>
        <time>2015-09-07T18:41:24Z</time>
      </trkpt>
      <trkpt lat="48.8398" lon="2.39493">
        <ele>77.800003051758</ele>
        <time>2015-09-07T18:41:26Z</time>
      </trkpt>
      <trkpt lat="48.83972" lon="2.39501">
        <ele>73.199996948242</ele>
        <time>2015-09-07T18:41:32Z</time>
      </trkpt>
      <trkpt lat="48.83973" lon="2.39501">
        <ele>72.800003051758</ele>
        <time>2015-09-07T18:41:33Z</time>
      </trkpt>
      <trkpt lat="48.83965" lon="2.39511">
        <ele>64.599998474121</ele>
        <time>2015-09-07T18:42:47Z</time>
      </trkpt>
      <trkpt lat="48.83958" lon="2.39536">
        <ele>64.800003051758</ele>
        <time>2015-09-07T18:43:01Z</time>
      </trkpt>
      <trkpt lat="48.83947" lon="2.39564">
        <ele>65</ele>
        <time>2015-09-07T18:43:07Z</time>
      </trkpt>
      <trkpt lat="48.8394" lon="2.39591">
        <ele>61.599998474121</ele>
        <time>2015-09-07T18:43:13Z</time>
      </trkpt>
      <trkpt lat="48.83943" lon="2.39611">
        <ele>59.79999923706</ele>
        <time>2015-09-07T18:43:19Z</time>
      </trkpt>
      <trkpt lat="48.83943" lon="2.39618">
        <ele>59.400001525879</ele>
        <time>2015-09-07T18:43:22Z</time>
      </trkpt>
      <trkpt lat="48.83954" lon="2.3964">
        <ele>60.599998474121</ele>
        <time>2015-09-07T18:43:30Z</time>
      </trkpt>
      <trkpt lat="48.83953" lon="2.39673">
        <ele>60.20000076294</ele>
        <time>2015-09-07T18:43:36Z</time>
      </trkpt>
      <trkpt lat="48.83953" lon="2.39703">
        <ele>59.400001525879</ele>
        <time>2015-09-07T18:43:41Z</time>
      </trkpt>
      <trkpt lat="48.83956" lon="2.39737">
        <ele>56.599998474121</ele>
        <time>2015-09-07T18:43:46Z</time>
      </trkpt>
      <trkpt lat="48.83956" lon="2.39769">
        <ele>54.599998474121</ele>
        <time>2015-09-07T18:43:51Z</time>
      </trkpt>
      <trkpt lat="48.83962" lon="2.39803">
        <ele>57.79999923706</ele>
        <time>2015-09-07T18:43:56Z</time>
      </trkpt>
      <trkpt lat="48.83964" lon="2.39834">
        <ele>58.599998474121</ele>
        <time>2015-09-07T18:44:00Z</time>
      </trkpt>
      <trkpt lat="48.83964" lon="2.39865">
        <ele>59.20000076294</ele>
        <time>2015-09-07T18:44:04Z</time>
      </trkpt>
      <trkpt lat="48.83965" lon="2.39896">
        <ele>58.79999923706</ele>
        <time>2015-09-07T18:44:08Z</time>
      </trkpt>
      <trkpt lat="48.83964" lon="2.39926">
        <ele>57</ele>
        <time>2015-09-07T18:44:12Z</time>
      </trkpt>
      <trkpt lat="48.83962" lon="2.39956">
        <ele>54.400001525879</ele>
        <time>2015-09-07T18:44:16Z</time>
      </trkpt>
      <trkpt lat="48.83962" lon="2.39985">
        <ele>51.599998474121</ele>
        <time>2015-09-07T18:44:20Z</time>
      </trkpt>
      <trkpt lat="48.83963" lon="2.39991">
        <ele>51.400001525879</ele>
        <time>2015-09-07T18:44:21Z</time>
      </trkpt>
      <trkpt lat="48.83966" lon="2.40015">
        <ele>49.400001525879</ele>
        <time>2015-09-07T18:44:26Z</time>
      </trkpt>
      <trkpt lat="48.83952" lon="2.40029">
        <ele>48.400001525879</ele>
        <time>2015-09-07T18:44:33Z</time>
      </trkpt>
      <trkpt lat="48.83948" lon="2.40031">
        <ele>47.599998474121</ele>
        <time>2015-09-07T18:44:35Z</time>
      </trkpt>
      <trkpt lat="48.8393" lon="2.40042">
        <ele>46.20000076294</ele>
        <time>2015-09-07T18:44:42Z</time>
      </trkpt>
      <trkpt lat="48.83914" lon="2.40056">
        <ele>44.400001525879</ele>
        <time>2015-09-07T18:44:48Z</time>
      </trkpt>
      <trkpt lat="48.839" lon="2.40076">
        <ele>42.400001525879</ele>
        <time>2015-09-07T18:44:54Z</time>
      </trkpt>
      <trkpt lat="48.83887" lon="2.40099">
        <ele>43</ele>
        <time>2015-09-07T18:45:00Z</time>
      </trkpt>
      <trkpt lat="48.83872" lon="2.40115">
        <ele>44.20000076294</ele>
        <time>2015-09-07T18:45:03Z</time>
      </trkpt>
      <trkpt lat="48.83852" lon="2.40127">
        <ele>42.20000076294</ele>
        <time>2015-09-07T18:45:07Z</time>
      </trkpt>
      <trkpt lat="48.83833" lon="2.40137">
        <ele>40.20000076294</ele>
        <time>2015-09-07T18:45:11Z</time>
      </trkpt>
      <trkpt lat="48.83813" lon="2.40153">
        <ele>36.599998474121</ele>
        <time>2015-09-07T18:45:16Z</time>
      </trkpt>
      <trkpt lat="48.83803" lon="2.40163">
        <ele>36.599998474121</ele>
        <time>2015-09-07T18:45:18Z</time>
      </trkpt>
      <trkpt lat="48.83792" lon="2.40179">
        <ele>35</ele>
        <time>2015-09-07T18:45:21Z</time>
      </trkpt>
      <trkpt lat="48.83783" lon="2.40186">
        <ele>33.79999923706</ele>
        <time>2015-09-07T18:45:23Z</time>
      </trkpt>
      <trkpt lat="48.83765" lon="2.402">
        <ele>32.79999923706</ele>
        <time>2015-09-07T18:45:27Z</time>
      </trkpt>
      <trkpt lat="48.83752" lon="2.40208">
        <ele>32.20000076294</ele>
        <time>2015-09-07T18:45:30Z</time>
      </trkpt>
      <trkpt lat="48.8374" lon="2.40211">
        <ele>32</ele>
        <time>2015-09-07T18:45:34Z</time>
      </trkpt>
      <trkpt lat="48.83734" lon="2.40211">
        <ele>31.60000038147</ele>
        <time>2015-09-07T18:45:39Z</time>
      </trkpt>
      <trkpt lat="48.83732" lon="2.40208">
        <ele>31.60000038147</ele>
        <time>2015-09-07T18:45:41Z</time>
      </trkpt>
      <trkpt lat="48.83729" lon="2.40209">
        <ele>32.20000076294</ele>
        <time>2015-09-07T18:45:46Z</time>
      </trkpt>
      <trkpt lat="48.83714" lon="2.40225">
        <ele>33.400001525879</ele>
        <time>2015-09-07T18:45:52Z</time>
      </trkpt>
      <trkpt lat="48.83701" lon="2.40253">
        <ele>35.400001525879</ele>
        <time>2015-09-07T18:45:56Z</time>
      </trkpt>
      <trkpt lat="48.83692" lon="2.40278">
        <ele>36.599998474121</ele>
        <time>2015-09-07T18:45:59Z</time>
      </trkpt>
      <trkpt lat="48.83684" lon="2.40302">
        <ele>37.79999923706</ele>
        <time>2015-09-07T18:46:02Z</time>
      </trkpt>
      <trkpt lat="48.83674" lon="2.40335">
        <ele>39.400001525879</ele>
        <time>2015-09-07T18:46:06Z</time>
      </trkpt>
      <trkpt lat="48.83663" lon="2.40363">
        <ele>42</ele>
        <time>2015-09-07T18:46:10Z</time>
      </trkpt>
      <trkpt lat="48.83651" lon="2.40394">
        <ele>44.599998474121</ele>
        <time>2015-09-07T18:46:14Z</time>
      </trkpt>
      <trkpt lat="48.83644" lon="2.40425">
        <ele>47.400001525879</ele>
        <time>2015-09-07T18:46:18Z</time>
      </trkpt>
      <trkpt lat="48.83635" lon="2.40456">
        <ele>51.400001525879</ele>
        <time>2015-09-07T18:46:22Z</time>
      </trkpt>
      <trkpt lat="48.83629" lon="2.40487">
        <ele>55.400001525879</ele>
        <time>2015-09-07T18:46:26Z</time>
      </trkpt>
      <trkpt lat="48.83624" lon="2.40503">
        <ele>57.20000076294</ele>
        <time>2015-09-07T18:46:28Z</time>
      </trkpt>
      <trkpt lat="48.83613" lon="2.40529">
        <ele>60.599998474121</ele>
        <time>2015-09-07T18:46:32Z</time>
      </trkpt>
      <trkpt lat="48.83604" lon="2.40555">
        <ele>63</ele>
        <time>2015-09-07T18:46:36Z</time>
      </trkpt>
      <trkpt lat="48.83595" lon="2.40583">
        <ele>69.599998474121</ele>
        <time>2015-09-07T18:46:41Z</time>
      </trkpt>
      <trkpt lat="48.83586" lon="2.4061">
        <ele>73.599998474121</ele>
        <time>2015-09-07T18:46:46Z</time>
      </trkpt>
      <trkpt lat="48.83586" lon="2.40614">
        <ele>74.800003051758</ele>
        <time>2015-09-07T18:46:47Z</time>
      </trkpt>
      <trkpt lat="48.83583" lon="2.40623">
        <ele>73.599998474121</ele>
        <time>2015-09-07T18:46:49Z</time>
      </trkpt>
      <trkpt lat="48.83578" lon="2.40638">
        <ele>71.400001525879</ele>
        <time>2015-09-07T18:46:53Z</time>
      </trkpt>
      <trkpt lat="48.83575" lon="2.40643">
        <ele>71.400001525879</ele>
        <time>2015-09-07T18:46:55Z</time>
      </trkpt>
      <trkpt lat="48.83574" lon="2.40646">
        <ele>71</ele>
        <time>2015-09-07T18:46:57Z</time>
      </trkpt>
      <trkpt lat="48.83556" lon="2.40664">
        <ele>67.800003051758</ele>
        <time>2015-09-07T18:47:20Z</time>
      </trkpt>
      <trkpt lat="48.83543" lon="2.40686">
        <ele>65.800003051758</ele>
        <time>2015-09-07T18:47:25Z</time>
      </trkpt>
      <trkpt lat="48.83529" lon="2.40713">
        <ele>62.599998474121</ele>
        <time>2015-09-07T18:47:30Z</time>
      </trkpt>
      <trkpt lat="48.83518" lon="2.4074">
        <ele>59</ele>
        <time>2015-09-07T18:47:35Z</time>
      </trkpt>
      <trkpt lat="48.83507" lon="2.40768">
        <ele>55.79999923706</ele>
        <time>2015-09-07T18:47:40Z</time>
      </trkpt>
      <trkpt lat="48.83497" lon="2.40796">
        <ele>53.20000076294</ele>
        <time>2015-09-07T18:47:46Z</time>
      </trkpt>
      <trkpt lat="48.83493" lon="2.40824">
        <ele>51</ele>
        <time>2015-09-07T18:47:52Z</time>
      </trkpt>
      <trkpt lat="48.83487" lon="2.4085">
        <ele>50.20000076294</ele>
        <time>2015-09-07T18:47:57Z</time>
      </trkpt>
      <trkpt lat="48.83478" lon="2.40876">
        <ele>51.599998474121</ele>
        <time>2015-09-07T18:48:02Z</time>
      </trkpt>
      <trkpt lat="48.83468" lon="2.40904">
        <ele>52.400001525879</ele>
        <time>2015-09-07T18:48:07Z</time>
      </trkpt>
      <trkpt lat="48.83459" lon="2.40933">
        <ele>51.599998474121</ele>
        <time>2015-09-07T18:48:12Z</time>
      </trkpt>
      <trkpt lat="48.8345" lon="2.40962">
        <ele>52.599998474121</ele>
        <time>2015-09-07T18:48:17Z</time>
      </trkpt>
      <trkpt lat="48.83441" lon="2.40986">
        <ele>54.599998474121</ele>
        <time>2015-09-07T18:48:22Z</time>
      </trkpt>
      <trkpt lat="48.83429" lon="2.41011">
        <ele>55.400001525879</ele>
        <time>2015-09-07T18:48:27Z</time>
      </trkpt>
      <trkpt lat="48.83417" lon="2.41033">
        <ele>53.79999923706</ele>
        <time>2015-09-07T18:48:32Z</time>
      </trkpt>
      <trkpt lat="48.83411" lon="2.41062">
        <ele>51.599998474121</ele>
        <time>2015-09-07T18:48:39Z</time>
      </trkpt>
      <trkpt lat="48.8342" lon="2.41089">
        <ele>52.400001525879</ele>
        <time>2015-09-07T18:48:45Z</time>
      </trkpt>
      <trkpt lat="48.83427" lon="2.41115">
        <ele>53.400001525879</ele>
        <time>2015-09-07T18:48:50Z</time>
      </trkpt>
      <trkpt lat="48.83437" lon="2.41143">
        <ele>54.400001525879</ele>
        <time>2015-09-07T18:48:55Z</time>
      </trkpt>
      <trkpt lat="48.83445" lon="2.41171">
        <ele>55.599998474121</ele>
        <time>2015-09-07T18:49:00Z</time>
      </trkpt>
      <trkpt lat="48.83454" lon="2.412">
        <ele>58.599998474121</ele>
        <time>2015-09-07T18:49:05Z</time>
      </trkpt>
      <trkpt lat="48.83464" lon="2.4123">
        <ele>61.20000076294</ele>
        <time>2015-09-07T18:49:10Z</time>
      </trkpt>
      <trkpt lat="48.83472" lon="2.41256">
        <ele>62.79999923706</ele>
        <time>2015-09-07T18:49:14Z</time>
      </trkpt>
      <trkpt lat="48.83478" lon="2.41283">
        <ele>64.199996948242</ele>
        <time>2015-09-07T18:49:18Z</time>
      </trkpt>
      <trkpt lat="48.83486" lon="2.41312">
        <ele>65.800003051758</ele>
        <time>2015-09-07T18:49:23Z</time>
      </trkpt>
      <trkpt lat="48.83494" lon="2.41341">
        <ele>67.800003051758</ele>
        <time>2015-09-07T18:49:28Z</time>
      </trkpt>
      <trkpt lat="48.83497" lon="2.41352">
        <ele>68.800003051758</ele>
        <time>2015-09-07T18:49:30Z</time>
      </trkpt>
      <trkpt lat="48.83502" lon="2.41377">
        <ele>70.400001525879</ele>
        <time>2015-09-07T18:49:34Z</time>
      </trkpt>
      <trkpt lat="48.83507" lon="2.41403">
        <ele>72.199996948242</ele>
        <time>2015-09-07T18:49:38Z</time>
      </trkpt>
      <trkpt lat="48.8351" lon="2.41409">
        <ele>72.800003051758</ele>
        <time>2015-09-07T18:49:39Z</time>
      </trkpt>
      <trkpt lat="48.83516" lon="2.41433">
        <ele>76.199996948242</ele>
        <time>2015-09-07T18:49:43Z</time>
      </trkpt>
      <trkpt lat="48.83523" lon="2.41459">
        <ele>80</ele>
        <time>2015-09-07T18:49:47Z</time>
      </trkpt>
      <trkpt lat="48.83531" lon="2.41484">
        <ele>83.199996948242</ele>
        <time>2015-09-07T18:49:51Z</time>
      </trkpt>
      <trkpt lat="48.83538" lon="2.4151">
        <ele>85.800003051758</ele>
        <time>2015-09-07T18:49:55Z</time>
      </trkpt>
      <trkpt lat="48.83547" lon="2.41539">
        <ele>89</ele>
        <time>2015-09-07T18:50:00Z</time>
      </trkpt>
      <trkpt lat="48.83552" lon="2.41556">
        <ele>91.400001525879</ele>
        <time>2015-09-07T18:50:03Z</time>
      </trkpt>
      <trkpt lat="48.83555" lon="2.41569">
        <ele>92.800003051758</ele>
        <time>2015-09-07T18:50:05Z</time>
      </trkpt>
      <trkpt lat="48.83564" lon="2.41593">
        <ele>95.599998474121</ele>
        <time>2015-09-07T18:50:09Z</time>
      </trkpt>
      <trkpt lat="48.83566" lon="2.41599">
        <ele>95.400001525879</ele>
        <time>2015-09-07T18:50:10Z</time>
      </trkpt>
      <trkpt lat="48.8357" lon="2.41612">
        <ele>95.599998474121</ele>
        <time>2015-09-07T18:50:13Z</time>
      </trkpt>
      <trkpt lat="48.83573" lon="2.41623">
        <ele>95.599998474121</ele>
        <time>2015-09-07T18:50:16Z</time>
      </trkpt>
      <trkpt lat="48.83584" lon="2.41647">
        <ele>94.400001525879</ele>
        <time>2015-09-07T18:50:21Z</time>
      </trkpt>
      <trkpt lat="48.83594" lon="2.41673">
        <ele>94.599998474121</ele>
        <time>2015-09-07T18:50:26Z</time>
      </trkpt>
      <trkpt lat="48.83599" lon="2.41689">
        <ele>95.800003051758</ele>
        <time>2015-09-07T18:50:29Z</time>
      </trkpt>
      <trkpt lat="48.83605" lon="2.41711">
        <ele>95</ele>
        <time>2015-09-07T18:50:33Z</time>
      </trkpt>
      <trkpt lat="48.83613" lon="2.41734">
        <ele>94.199996948242</ele>
        <time>2015-09-07T18:50:37Z</time>
      </trkpt>
      <trkpt lat="48.83619" lon="2.4176">
        <ele>93.599998474121</ele>
        <time>2015-09-07T18:50:41Z</time>
      </trkpt>
      <trkpt lat="48.83626" lon="2.41786">
        <ele>94.599998474121</ele>
        <time>2015-09-07T18:50:45Z</time>
      </trkpt>
      <trkpt lat="48.83627" lon="2.41792">
        <ele>94.800003051758</ele>
        <time>2015-09-07T18:50:46Z</time>
      </trkpt>
      <trkpt lat="48.83631" lon="2.41816">
        <ele>97.400001525879</ele>
        <time>2015-09-07T18:50:50Z</time>
      </trkpt>
      <trkpt lat="48.83634" lon="2.41827">
        <ele>97.400001525879</ele>
        <time>2015-09-07T18:50:52Z</time>
      </trkpt>
      <trkpt lat="48.83639" lon="2.41843">
        <ele>95.800003051758</ele>
        <time>2015-09-07T18:50:56Z</time>
      </trkpt>
      <trkpt lat="48.83632" lon="2.41855">
        <ele>87.800003051758</ele>
        <time>2015-09-07T18:51:07Z</time>
      </trkpt>
      <trkpt lat="48.83642" lon="2.41879">
        <ele>85.199996948242</ele>
        <time>2015-09-07T18:51:16Z</time>
      </trkpt>
      <trkpt lat="48.83651" lon="2.41905">
        <ele>85</ele>
        <time>2015-09-07T18:51:22Z</time>
      </trkpt>
      <trkpt lat="48.83654" lon="2.41938">
        <ele>79.199996948242</ele>
        <time>2015-09-07T18:51:27Z</time>
      </trkpt>
      <trkpt lat="48.83659" lon="2.41965">
        <ele>73.800003051758</ele>
        <time>2015-09-07T18:51:31Z</time>
      </trkpt>
      <trkpt lat="48.83668" lon="2.41993">
        <ele>70</ele>
        <time>2015-09-07T18:51:36Z</time>
      </trkpt>
      <trkpt lat="48.83674" lon="2.42019">
        <ele>66.199996948242</ele>
        <time>2015-09-07T18:51:41Z</time>
      </trkpt>
      <trkpt lat="48.83683" lon="2.42044">
        <ele>63.400001525879</ele>
        <time>2015-09-07T18:51:46Z</time>
      </trkpt>
      <trkpt lat="48.83692" lon="2.42059">
        <ele>62.400001525879</ele>
        <time>2015-09-07T18:51:50Z</time>
      </trkpt>
      <trkpt lat="48.83703" lon="2.42059">
        <ele>61.400001525879</ele>
        <time>2015-09-07T18:51:54Z</time>
      </trkpt>
      <trkpt lat="48.83722" lon="2.42053">
        <ele>60.400001525879</ele>
        <time>2015-09-07T18:51:59Z</time>
      </trkpt>
      <trkpt lat="48.83741" lon="2.42046">
        <ele>57.79999923706</ele>
        <time>2015-09-07T18:52:05Z</time>
      </trkpt>
      <trkpt lat="48.83761" lon="2.42037">
        <ele>56</ele>
        <time>2015-09-07T18:52:11Z</time>
      </trkpt>
      <trkpt lat="48.83778" lon="2.42027">
        <ele>54</ele>
        <time>2015-09-07T18:52:16Z</time>
      </trkpt>
      <trkpt lat="48.838" lon="2.42023">
        <ele>52.400001525879</ele>
        <time>2015-09-07T18:52:22Z</time>
      </trkpt>
      <trkpt lat="48.8382" lon="2.42024">
        <ele>49.79999923706</ele>
        <time>2015-09-07T18:52:26Z</time>
      </trkpt>
      <trkpt lat="48.83841" lon="2.42024">
        <ele>47</ele>
        <time>2015-09-07T18:52:31Z</time>
      </trkpt>
      <trkpt lat="48.83862" lon="2.4202">
        <ele>42</ele>
        <time>2015-09-07T18:52:37Z</time>
      </trkpt>
      <trkpt lat="48.83882" lon="2.42017">
        <ele>36</ele>
        <time>2015-09-07T18:52:42Z</time>
      </trkpt>
      <trkpt lat="48.83891" lon="2.42018">
        <ele>33.400001525879</ele>
        <time>2015-09-07T18:52:45Z</time>
      </trkpt>
      <trkpt lat="48.83907" lon="2.42009">
        <ele>32.79999923706</ele>
        <time>2015-09-07T18:52:56Z</time>
      </trkpt>
      <trkpt lat="48.83923" lon="2.42015">
        <ele>29.60000038147</ele>
        <time>2015-09-07T18:53:04Z</time>
      </trkpt>
      <trkpt lat="48.83941" lon="2.42042">
        <ele>31.60000038147</ele>
        <time>2015-09-07T18:53:12Z</time>
      </trkpt>
      <trkpt lat="48.83953" lon="2.42068">
        <ele>35.20000076294</ele>
        <time>2015-09-07T18:53:18Z</time>
      </trkpt>
      <trkpt lat="48.83957" lon="2.42075">
        <ele>35.20000076294</ele>
        <time>2015-09-07T18:53:21Z</time>
      </trkpt>
      <trkpt lat="48.83978" lon="2.42067">
        <ele>37.20000076294</ele>
        <time>2015-09-07T18:53:26Z</time>
      </trkpt>
      <trkpt lat="48.83997" lon="2.42058">
        <ele>38</ele>
        <time>2015-09-07T18:53:30Z</time>
      </trkpt>
      <trkpt lat="48.84015" lon="2.42049">
        <ele>40</ele>
        <time>2015-09-07T18:53:33Z</time>
      </trkpt>
      <trkpt lat="48.84036" lon="2.42036">
        <ele>40.20000076294</ele>
        <time>2015-09-07T18:53:37Z</time>
      </trkpt>
      <trkpt lat="48.84058" lon="2.4202">
        <ele>39.79999923706</ele>
        <time>2015-09-07T18:53:41Z</time>
      </trkpt>
      <trkpt lat="48.84077" lon="2.42">
        <ele>39.599998474121</ele>
        <time>2015-09-07T18:53:45Z</time>
      </trkpt>
      <trkpt lat="48.84085" lon="2.41991">
        <ele>39.20000076294</ele>
        <time>2015-09-07T18:53:47Z</time>
      </trkpt>
      <trkpt lat="48.84098" lon="2.41981">
        <ele>39.20000076294</ele>
        <time>2015-09-07T18:53:50Z</time>
      </trkpt>
      <trkpt lat="48.84119" lon="2.41968">
        <ele>41.79999923706</ele>
        <time>2015-09-07T18:53:54Z</time>
      </trkpt>
      <trkpt lat="48.84139" lon="2.41952">
        <ele>42</ele>
        <time>2015-09-07T18:53:58Z</time>
      </trkpt>
      <trkpt lat="48.84144" lon="2.4195">
        <ele>42.20000076294</ele>
        <time>2015-09-07T18:53:59Z</time>
      </trkpt>
      <trkpt lat="48.84164" lon="2.41944">
        <ele>43</ele>
        <time>2015-09-07T18:54:03Z</time>
      </trkpt>
      <trkpt lat="48.84183" lon="2.41942">
        <ele>43.79999923706</ele>
        <time>2015-09-07T18:54:07Z</time>
      </trkpt>
      <trkpt lat="48.84191" lon="2.41942">
        <ele>44.599998474121</ele>
        <time>2015-09-07T18:54:09Z</time>
      </trkpt>
      <trkpt lat="48.84209" lon="2.41938">
        <ele>44.599998474121</ele>
        <time>2015-09-07T18:54:13Z</time>
      </trkpt>
      <trkpt lat="48.84214" lon="2.41936">
        <ele>44.599998474121</ele>
        <time>2015-09-07T18:54:14Z</time>
      </trkpt>
      <trkpt lat="48.84227" lon="2.41933">
        <ele>47</ele>
        <time>2015-09-07T18:54:17Z</time>
      </trkpt>
      <trkpt lat="48.84248" lon="2.41932">
        <ele>47.79999923706</ele>
        <time>2015-09-07T18:54:22Z</time>
      </trkpt>
      <trkpt lat="48.84264" lon="2.41937">
        <ele>51.20000076294</ele>
        <time>2015-09-07T18:54:26Z</time>
      </trkpt>
      <trkpt lat="48.84274" lon="2.41947">
        <ele>53.20000076294</ele>
        <time>2015-09-07T18:54:30Z</time>
      </trkpt>
      <trkpt lat="48.84292" lon="2.41964">
        <ele>57.20000076294</ele>
        <time>2015-09-07T18:54:36Z</time>
      </trkpt>
      <trkpt lat="48.84299" lon="2.41967">
        <ele>58.599998474121</ele>
        <time>2015-09-07T18:54:38Z</time>
      </trkpt>
      <trkpt lat="48.84321" lon="2.4197">
        <ele>59.400001525879</ele>
        <time>2015-09-07T18:54:43Z</time>
      </trkpt>
      <trkpt lat="48.84341" lon="2.41974">
        <ele>60.599998474121</ele>
        <time>2015-09-07T18:54:49Z</time>
      </trkpt>
      <trkpt lat="48.84347" lon="2.41977">
        <ele>58.599998474121</ele>
        <time>2015-09-07T18:54:51Z</time>
      </trkpt>
      <trkpt lat="48.84356" lon="2.42003">
        <ele>58</ele>
        <time>2015-09-07T18:54:58Z</time>
      </trkpt>
      <trkpt lat="48.84356" lon="2.42013">
        <ele>59.20000076294</ele>
        <time>2015-09-07T18:55:00Z</time>
      </trkpt>
      <trkpt lat="48.84354" lon="2.42042">
        <ele>62.79999923706</ele>
        <time>2015-09-07T18:55:05Z</time>
      </trkpt>
      <trkpt lat="48.84357" lon="2.42072">
        <ele>66.599998474121</ele>
        <time>2015-09-07T18:55:10Z</time>
      </trkpt>
      <trkpt lat="48.84357" lon="2.42103">
        <ele>70.599998474121</ele>
        <time>2015-09-07T18:55:15Z</time>
      </trkpt>
      <trkpt lat="48.84351" lon="2.42131">
        <ele>72.599998474121</ele>
        <time>2015-09-07T18:55:19Z</time>
      </trkpt>
      <trkpt lat="48.84347" lon="2.42159">
        <ele>72.800003051758</ele>
        <time>2015-09-07T18:55:23Z</time>
      </trkpt>
      <trkpt lat="48.84341" lon="2.4219">
        <ele>69.800003051758</ele>
        <time>2015-09-07T18:55:27Z</time>
      </trkpt>
      <trkpt lat="48.84333" lon="2.42221">
        <ele>68.199996948242</ele>
        <time>2015-09-07T18:55:31Z</time>
      </trkpt>
      <trkpt lat="48.84323" lon="2.42245">
        <ele>65.199996948242</ele>
        <time>2015-09-07T18:55:34Z</time>
      </trkpt>
      <trkpt lat="48.8431" lon="2.42274">
        <ele>61</ele>
        <time>2015-09-07T18:55:38Z</time>
      </trkpt>
      <trkpt lat="48.84298" lon="2.42297">
        <ele>56.400001525879</ele>
        <time>2015-09-07T18:55:42Z</time>
      </trkpt>
      <trkpt lat="48.84294" lon="2.42309">
        <ele>55.400001525879</ele>
        <time>2015-09-07T18:55:44Z</time>
      </trkpt>
      <trkpt lat="48.84277" lon="2.42331">
        <ele>49</ele>
        <time>2015-09-07T18:55:49Z</time>
      </trkpt>
      <trkpt lat="48.84273" lon="2.42334">
        <ele>48.20000076294</ele>
        <time>2015-09-07T18:55:50Z</time>
      </trkpt>
      <trkpt lat="48.84269" lon="2.42338">
        <ele>47.79999923706</ele>
        <time>2015-09-07T18:55:51Z</time>
      </trkpt>
      <trkpt lat="48.8425" lon="2.42354">
        <ele>46.20000076294</ele>
        <time>2015-09-07T18:55:55Z</time>
      </trkpt>
      <trkpt lat="48.8423" lon="2.42374">
        <ele>44.599998474121</ele>
        <time>2015-09-07T18:55:59Z</time>
      </trkpt>
      <trkpt lat="48.84211" lon="2.42395">
        <ele>43.20000076294</ele>
        <time>2015-09-07T18:56:03Z</time>
      </trkpt>
      <trkpt lat="48.84195" lon="2.42418">
        <ele>42.599998474121</ele>
        <time>2015-09-07T18:56:07Z</time>
      </trkpt>
      <trkpt lat="48.84183" lon="2.42444">
        <ele>42.400001525879</ele>
        <time>2015-09-07T18:56:12Z</time>
      </trkpt>
      <trkpt lat="48.84181" lon="2.42447">
        <ele>42</ele>
        <time>2015-09-07T18:56:13Z</time>
      </trkpt>
      <trkpt lat="48.84173" lon="2.42455">
        <ele>40.400001525879</ele>
        <time>2015-09-07T18:56:17Z</time>
      </trkpt>
      <trkpt lat="48.84167" lon="2.42464">
        <ele>40.20000076294</ele>
        <time>2015-09-07T18:56:20Z</time>
      </trkpt>
      <trkpt lat="48.84159" lon="2.42483">
        <ele>41.599998474121</ele>
        <time>2015-09-07T18:56:27Z</time>
      </trkpt>
      <trkpt lat="48.84153" lon="2.42496">
        <ele>44</ele>
        <time>2015-09-07T18:56:31Z</time>
      </trkpt>
      <trkpt lat="48.84142" lon="2.42519">
        <ele>48.79999923706</ele>
        <time>2015-09-07T18:56:37Z</time>
      </trkpt>
      <trkpt lat="48.84129" lon="2.42544">
        <ele>51.599998474121</ele>
        <time>2015-09-07T18:56:43Z</time>
      </trkpt>
      <trkpt lat="48.84117" lon="2.42567">
        <ele>53</ele>
        <time>2015-09-07T18:56:48Z</time>
      </trkpt>
      <trkpt lat="48.84106" lon="2.42595">
        <ele>53.400001525879</ele>
        <time>2015-09-07T18:56:53Z</time>
      </trkpt>
      <trkpt lat="48.84096" lon="2.42625">
        <ele>53.79999923706</ele>
        <time>2015-09-07T18:56:58Z</time>
      </trkpt>
      <trkpt lat="48.8409" lon="2.42652">
        <ele>54.20000076294</ele>
        <time>2015-09-07T18:57:02Z</time>
      </trkpt>
      <trkpt lat="48.84085" lon="2.42684">
        <ele>57.599998474121</ele>
        <time>2015-09-07T18:57:08Z</time>
      </trkpt>
      <trkpt lat="48.84083" lon="2.42715">
        <ele>59.400001525879</ele>
        <time>2015-09-07T18:57:13Z</time>
      </trkpt>
      <trkpt lat="48.84075" lon="2.42745">
        <ele>59.599998474121</ele>
        <time>2015-09-07T18:57:18Z</time>
      </trkpt>
      <trkpt lat="48.84068" lon="2.42772">
        <ele>57.599998474121</ele>
        <time>2015-09-07T18:57:23Z</time>
      </trkpt>
      <trkpt lat="48.84061" lon="2.42798">
        <ele>55.20000076294</ele>
        <time>2015-09-07T18:57:28Z</time>
      </trkpt>
      <trkpt lat="48.84049" lon="2.42822">
        <ele>54.599998474121</ele>
        <time>2015-09-07T18:57:31Z</time>
      </trkpt>
      <trkpt lat="48.84038" lon="2.42846">
        <ele>54.79999923706</ele>
        <time>2015-09-07T18:57:35Z</time>
      </trkpt>
      <trkpt lat="48.84025" lon="2.42866">
        <ele>55.400001525879</ele>
        <time>2015-09-07T18:57:39Z</time>
      </trkpt>
      <trkpt lat="48.84013" lon="2.42888">
        <ele>57</ele>
        <time>2015-09-07T18:57:43Z</time>
      </trkpt>
      <trkpt lat="48.83998" lon="2.4291">
        <ele>57.599998474121</ele>
        <time>2015-09-07T18:57:47Z</time>
      </trkpt>
      <trkpt lat="48.83986" lon="2.42932">
        <ele>58.400001525879</ele>
        <time>2015-09-07T18:57:51Z</time>
      </trkpt>
      <trkpt lat="48.83972" lon="2.4295">
        <ele>56.400001525879</ele>
        <time>2015-09-07T18:57:55Z</time>
      </trkpt>
      <trkpt lat="48.8396" lon="2.42966">
        <ele>55</ele>
        <time>2015-09-07T18:57:59Z</time>
      </trkpt>
      <trkpt lat="48.83954" lon="2.42973">
        <ele>53.599998474121</ele>
        <time>2015-09-07T18:58:01Z</time>
      </trkpt>
      <trkpt lat="48.83948" lon="2.42978">
        <ele>52.599998474121</ele>
        <time>2015-09-07T18:58:04Z</time>
      </trkpt>
      <trkpt lat="48.83942" lon="2.42993">
        <ele>51.20000076294</ele>
        <time>2015-09-07T18:58:13Z</time>
      </trkpt>
      <trkpt lat="48.83942" lon="2.43021">
        <ele>49.599998474121</ele>
        <time>2015-09-07T18:58:21Z</time>
      </trkpt>
      <trkpt lat="48.8395" lon="2.4305">
        <ele>47.599998474121</ele>
        <time>2015-09-07T18:58:28Z</time>
      </trkpt>
      <trkpt lat="48.83957" lon="2.43075">
        <ele>46.20000076294</ele>
        <time>2015-09-07T18:58:33Z</time>
      </trkpt>
      <trkpt lat="48.83965" lon="2.43105">
        <ele>44</ele>
        <time>2015-09-07T18:58:38Z</time>
      </trkpt>
      <trkpt lat="48.83971" lon="2.43131">
        <ele>43.599998474121</ele>
        <time>2015-09-07T18:58:42Z</time>
      </trkpt>
      <trkpt lat="48.83978" lon="2.43157">
        <ele>43.20000076294</ele>
        <time>2015-09-07T18:58:46Z</time>
      </trkpt>
      <trkpt lat="48.83985" lon="2.43183">
        <ele>43.20000076294</ele>
        <time>2015-09-07T18:58:50Z</time>
      </trkpt>
      <trkpt lat="48.83994" lon="2.43214">
        <ele>44.79999923706</ele>
        <time>2015-09-07T18:58:55Z</time>
      </trkpt>
      <trkpt lat="48.84003" lon="2.43243">
        <ele>48</ele>
        <time>2015-09-07T18:59:00Z</time>
      </trkpt>
      <trkpt lat="48.84011" lon="2.4327">
        <ele>51.599998474121</ele>
        <time>2015-09-07T18:59:05Z</time>
      </trkpt>
      <trkpt lat="48.84019" lon="2.43298">
        <ele>55.599998474121</ele>
        <time>2015-09-07T18:59:10Z</time>
      </trkpt>
      <trkpt lat="48.84027" lon="2.43322">
        <ele>62.79999923706</ele>
        <time>2015-09-07T18:59:15Z</time>
      </trkpt>
      <trkpt lat="48.84035" lon="2.43348">
        <ele>70.199996948242</ele>
        <time>2015-09-07T18:59:20Z</time>
      </trkpt>
      <trkpt lat="48.84042" lon="2.43375">
        <ele>77.199996948242</ele>
        <time>2015-09-07T18:59:25Z</time>
      </trkpt>
      <trkpt lat="48.84048" lon="2.43401">
        <ele>83</ele>
        <time>2015-09-07T18:59:30Z</time>
      </trkpt>
      <trkpt lat="48.8405" lon="2.4343">
        <ele>79.599998474121</ele>
        <time>2015-09-07T18:59:34Z</time>
      </trkpt>
      <trkpt lat="48.84047" lon="2.4346">
        <ele>80.800003051758</ele>
        <time>2015-09-07T18:59:39Z</time>
      </trkpt>
      <trkpt lat="48.84043" lon="2.43487">
        <ele>76.800003051758</ele>
        <time>2015-09-07T18:59:43Z</time>
      </trkpt>
      <trkpt lat="48.8404" lon="2.43516">
        <ele>69.199996948242</ele>
        <time>2015-09-07T18:59:47Z</time>
      </trkpt>
      <trkpt lat="48.84033" lon="2.43549">
        <ele>67.199996948242</ele>
        <time>2015-09-07T18:59:52Z</time>
      </trkpt>
      <trkpt lat="48.84028" lon="2.43581">
        <ele>65.199996948242</ele>
        <time>2015-09-07T18:59:57Z</time>
      </trkpt>
      <trkpt lat="48.84029" lon="2.43613">
        <ele>62.79999923706</ele>
        <time>2015-09-07T19:00:02Z</time>
      </trkpt>
      <trkpt lat="48.84031" lon="2.4362">
        <ele>62</ele>
        <time>2015-09-07T19:00:03Z</time>
      </trkpt>
      <trkpt lat="48.84041" lon="2.43647">
        <ele>60.20000076294</ele>
        <time>2015-09-07T19:00:08Z</time>
      </trkpt>
      <trkpt lat="48.84042" lon="2.43653">
        <ele>59.79999923706</ele>
        <time>2015-09-07T19:00:09Z</time>
      </trkpt>
      <trkpt lat="48.84048" lon="2.43671">
        <ele>57.20000076294</ele>
        <time>2015-09-07T19:00:12Z</time>
      </trkpt>
      <trkpt lat="48.84051" lon="2.4369">
        <ele>55.599998474121</ele>
        <time>2015-09-07T19:00:15Z</time>
      </trkpt>
      <trkpt lat="48.84049" lon="2.43717">
        <ele>53.599998474121</ele>
        <time>2015-09-07T19:00:19Z</time>
      </trkpt>
      <trkpt lat="48.84047" lon="2.43746">
        <ele>52.599998474121</ele>
        <time>2015-09-07T19:00:23Z</time>
      </trkpt>
      <trkpt lat="48.84043" lon="2.43775">
        <ele>52.599998474121</ele>
        <time>2015-09-07T19:00:27Z</time>
      </trkpt>
      <trkpt lat="48.8404" lon="2.43805">
        <ele>51</ele>
        <time>2015-09-07T19:00:31Z</time>
      </trkpt>
      <trkpt lat="48.84037" lon="2.43835">
        <ele>48.400001525879</ele>
        <time>2015-09-07T19:00:35Z</time>
      </trkpt>
      <trkpt lat="48.8404" lon="2.43863">
        <ele>47.400001525879</ele>
        <time>2015-09-07T19:00:39Z</time>
      </trkpt>
      <trkpt lat="48.84052" lon="2.43872">
        <ele>47.599998474121</ele>
        <time>2015-09-07T19:00:42Z</time>
      </trkpt>
      <trkpt lat="48.84056" lon="2.43873">
        <ele>47.20000076294</ele>
        <time>2015-09-07T19:00:43Z</time>
      </trkpt>
      <trkpt lat="48.84065" lon="2.43875">
        <ele>46.599998474121</ele>
        <time>2015-09-07T19:00:46Z</time>
      </trkpt>
      <trkpt lat="48.84084" lon="2.43877">
        <ele>47.79999923706</ele>
        <time>2015-09-07T19:00:53Z</time>
      </trkpt>
      <trkpt lat="48.84091" lon="2.43877">
        <ele>47.79999923706</ele>
        <time>2015-09-07T19:00:56Z</time>
      </trkpt>
      <trkpt lat="48.84099" lon="2.4388">
        <ele>45.79999923706</ele>
        <time>2015-09-07T19:00:59Z</time>
      </trkpt>
      <trkpt lat="48.84112" lon="2.43881">
        <ele>46</ele>
        <time>2015-09-07T19:01:03Z</time>
      </trkpt>
      <trkpt lat="48.8413" lon="2.43884">
        <ele>47.79999923706</ele>
        <time>2015-09-07T19:01:09Z</time>
      </trkpt>
      <trkpt lat="48.84151" lon="2.43889">
        <ele>49</ele>
        <time>2015-09-07T19:01:15Z</time>
      </trkpt>
      <trkpt lat="48.8417" lon="2.43892">
        <ele>49.20000076294</ele>
        <time>2015-09-07T19:01:20Z</time>
      </trkpt>
      <trkpt lat="48.8419" lon="2.43896">
        <ele>46.20000076294</ele>
        <time>2015-09-07T19:01:26Z</time>
      </trkpt>
      <trkpt lat="48.84209" lon="2.43902">
        <ele>42.599998474121</ele>
        <time>2015-09-07T19:01:31Z</time>
      </trkpt>
      <trkpt lat="48.84228" lon="2.43906">
        <ele>40.599998474121</ele>
        <time>2015-09-07T19:01:36Z</time>
      </trkpt>
      <trkpt lat="48.84248" lon="2.43912">
        <ele>40.20000076294</ele>
        <time>2015-09-07T19:01:42Z</time>
      </trkpt>
      <trkpt lat="48.84267" lon="2.43914">
        <ele>42.400001525879</ele>
        <time>2015-09-07T19:01:47Z</time>
      </trkpt>
      <trkpt lat="48.84287" lon="2.43916">
        <ele>44.599998474121</ele>
        <time>2015-09-07T19:01:53Z</time>
      </trkpt>
      <trkpt lat="48.84307" lon="2.43917">
        <ele>47.400001525879</ele>
        <time>2015-09-07T19:01:59Z</time>
      </trkpt>
      <trkpt lat="48.84328" lon="2.43921">
        <ele>45.79999923706</ele>
        <time>2015-09-07T19:02:04Z</time>
      </trkpt>
      <trkpt lat="48.84347" lon="2.43926">
        <ele>44.599998474121</ele>
        <time>2015-09-07T19:02:08Z</time>
      </trkpt>
      <trkpt lat="48.84368" lon="2.43932">
        <ele>42.400001525879</ele>
        <time>2015-09-07T19:02:13Z</time>
      </trkpt>
      <trkpt lat="48.84387" lon="2.43936">
        <ele>42</ele>
        <time>2015-09-07T19:02:18Z</time>
      </trkpt>
      <trkpt lat="48.84407" lon="2.4394">
        <ele>40</ele>
        <time>2015-09-07T19:02:23Z</time>
      </trkpt>
      <trkpt lat="48.84425" lon="2.43944">
        <ele>44.79999923706</ele>
        <time>2015-09-07T19:02:28Z</time>
      </trkpt>
      <trkpt lat="48.84438" lon="2.43949">
        <ele>49.400001525879</ele>
        <time>2015-09-07T19:02:34Z</time>
      </trkpt>
      <trkpt lat="48.84454" lon="2.4395">
        <ele>55</ele>
        <time>2015-09-07T19:03:05Z</time>
      </trkpt>
      <trkpt lat="48.84473" lon="2.43953">
        <ele>55.20000076294</ele>
        <time>2015-09-07T19:03:11Z</time>
      </trkpt>
      <trkpt lat="48.84493" lon="2.43957">
        <ele>54.79999923706</ele>
        <time>2015-09-07T19:03:16Z</time>
      </trkpt>
      <trkpt lat="48.84515" lon="2.43959">
        <ele>55.599998474121</ele>
        <time>2015-09-07T19:03:21Z</time>
      </trkpt>
      <trkpt lat="48.84524" lon="2.43959">
        <ele>56.400001525879</ele>
        <time>2015-09-07T19:03:23Z</time>
      </trkpt>
      <trkpt lat="48.84546" lon="2.4396">
        <ele>61.20000076294</ele>
        <time>2015-09-07T19:03:28Z</time>
      </trkpt>
      <trkpt lat="48.84565" lon="2.43961">
        <ele>66.800003051758</ele>
        <time>2015-09-07T19:03:32Z</time>
      </trkpt>
      <trkpt lat="48.84583" lon="2.4396">
        <ele>71.400001525879</ele>
        <time>2015-09-07T19:03:36Z</time>
      </trkpt>
      <trkpt lat="48.84601" lon="2.4396">
        <ele>75.199996948242</ele>
        <time>2015-09-07T19:03:40Z</time>
      </trkpt>
      <trkpt lat="48.84619" lon="2.43963">
        <ele>77.599998474121</ele>
        <time>2015-09-07T19:03:44Z</time>
      </trkpt>
      <trkpt lat="48.8464" lon="2.43964">
        <ele>83</ele>
        <time>2015-09-07T19:03:48Z</time>
      </trkpt>
      <trkpt lat="48.84658" lon="2.43967">
        <ele>88.199996948242</ele>
        <time>2015-09-07T19:03:52Z</time>
      </trkpt>
      <trkpt lat="48.84674" lon="2.43973">
        <ele>89.400001525879</ele>
        <time>2015-09-07T19:03:57Z</time>
      </trkpt>
      <trkpt lat="48.8468" lon="2.43973">
        <ele>89.400001525879</ele>
        <time>2015-09-07T19:03:59Z</time>
      </trkpt>
      <trkpt lat="48.847" lon="2.43981">
        <ele>88</ele>
        <time>2015-09-07T19:04:05Z</time>
      </trkpt>
      <trkpt lat="48.84721" lon="2.43986">
        <ele>86.400001525879</ele>
        <time>2015-09-07T19:04:11Z</time>
      </trkpt>
      <trkpt lat="48.84741" lon="2.43992">
        <ele>81.199996948242</ele>
        <time>2015-09-07T19:04:17Z</time>
      </trkpt>
      <trkpt lat="48.8476" lon="2.43998">
        <ele>79.199996948242</ele>
        <time>2015-09-07T19:04:23Z</time>
      </trkpt>
      <trkpt lat="48.8478" lon="2.44002">
        <ele>77.199996948242</ele>
        <time>2015-09-07T19:04:32Z</time>
      </trkpt>
      <trkpt lat="48.84797" lon="2.43998">
        <ele>72.800003051758</ele>
        <time>2015-09-07T19:04:39Z</time>
      </trkpt>
      <trkpt lat="48.84809" lon="2.43974">
        <ele>72.599998474121</ele>
        <time>2015-09-07T19:04:46Z</time>
      </trkpt>
      <trkpt lat="48.84812" lon="2.43973">
        <ele>74</ele>
        <time>2015-09-07T19:04:47Z</time>
      </trkpt>
      <trkpt lat="48.84833" lon="2.43975">
        <ele>80.599998474121</ele>
        <time>2015-09-07T19:04:54Z</time>
      </trkpt>
      <trkpt lat="48.84851" lon="2.4398">
        <ele>81.599998474121</ele>
        <time>2015-09-07T19:04:59Z</time>
      </trkpt>
      <trkpt lat="48.84869" lon="2.43981">
        <ele>82.199996948242</ele>
        <time>2015-09-07T19:05:03Z</time>
      </trkpt>
      <trkpt lat="48.84888" lon="2.43982">
        <ele>81</ele>
        <time>2015-09-07T19:05:07Z</time>
      </trkpt>
      <trkpt lat="48.8491" lon="2.43981">
        <ele>81.800003051758</ele>
        <time>2015-09-07T19:05:12Z</time>
      </trkpt>
      <trkpt lat="48.84921" lon="2.43983">
        <ele>86.400001525879</ele>
        <time>2015-09-07T19:05:16Z</time>
      </trkpt>
      <trkpt lat="48.84932" lon="2.43959">
        <ele>76.599998474121</ele>
        <time>2015-09-07T19:05:26Z</time>
      </trkpt>
      <trkpt lat="48.8493" lon="2.4393">
        <ele>74</ele>
        <time>2015-09-07T19:05:33Z</time>
      </trkpt>
      <trkpt lat="48.84932" lon="2.43901">
        <ele>72.800003051758</ele>
        <time>2015-09-07T19:05:39Z</time>
      </trkpt>
      <trkpt lat="48.84932" lon="2.43873">
        <ele>75</ele>
        <time>2015-09-07T19:05:44Z</time>
      </trkpt>
      <trkpt lat="48.8493" lon="2.43844">
        <ele>77.400001525879</ele>
        <time>2015-09-07T19:05:49Z</time>
      </trkpt>
      <trkpt lat="48.84935" lon="2.43816">
        <ele>74.400001525879</ele>
        <time>2015-09-07T19:05:53Z</time>
      </trkpt>
      <trkpt lat="48.84951" lon="2.43803">
        <ele>73</ele>
        <time>2015-09-07T19:05:58Z</time>
      </trkpt>
      <trkpt lat="48.84972" lon="2.43804">
        <ele>74.199996948242</ele>
        <time>2015-09-07T19:06:05Z</time>
      </trkpt>
      <trkpt lat="48.8499" lon="2.43807">
        <ele>75.800003051758</ele>
        <time>2015-09-07T19:06:11Z</time>
      </trkpt>
      <trkpt lat="48.85012" lon="2.43803">
        <ele>79</ele>
        <time>2015-09-07T19:06:17Z</time>
      </trkpt>
      <trkpt lat="48.85029" lon="2.43792">
        <ele>79.400001525879</ele>
        <time>2015-09-07T19:06:20Z</time>
      </trkpt>
      <trkpt lat="48.85049" lon="2.4379">
        <ele>83.599998474121</ele>
        <time>2015-09-07T19:06:25Z</time>
      </trkpt>
      <trkpt lat="48.85069" lon="2.43795">
        <ele>85.400001525879</ele>
        <time>2015-09-07T19:06:30Z</time>
      </trkpt>
      <trkpt lat="48.85086" lon="2.43797">
        <ele>89.199996948242</ele>
        <time>2015-09-07T19:06:39Z</time>
      </trkpt>
      <trkpt lat="48.85106" lon="2.43795">
        <ele>104.19999694824</ele>
        <time>2015-09-07T19:06:47Z</time>
      </trkpt>
      <trkpt lat="48.85125" lon="2.43792">
        <ele>116.19999694824</ele>
        <time>2015-09-07T19:06:53Z</time>
      </trkpt>
      <trkpt lat="48.85144" lon="2.43794">
        <ele>124.59999847412</ele>
        <time>2015-09-07T19:06:58Z</time>
      </trkpt>
      <trkpt lat="48.85163" lon="2.43797">
        <ele>127</ele>
        <time>2015-09-07T19:07:03Z</time>
      </trkpt>
      <trkpt lat="48.85183" lon="2.43805">
        <ele>129.19999694824</ele>
        <time>2015-09-07T19:07:09Z</time>
      </trkpt>
      <trkpt lat="48.85203" lon="2.43813">
        <ele>132</ele>
        <time>2015-09-07T19:07:15Z</time>
      </trkpt>
      <trkpt lat="48.85221" lon="2.43825">
        <ele>136.19999694824</ele>
        <time>2015-09-07T19:07:21Z</time>
      </trkpt>
      <trkpt lat="48.85238" lon="2.43829">
        <ele>134.60000610352</ele>
        <time>2015-09-07T19:07:25Z</time>
      </trkpt>
      <trkpt lat="48.85259" lon="2.43839">
        <ele>131.19999694824</ele>
        <time>2015-09-07T19:07:30Z</time>
      </trkpt>
      <trkpt lat="48.85278" lon="2.43848">
        <ele>130.60000610352</ele>
        <time>2015-09-07T19:07:35Z</time>
      </trkpt>
      <trkpt lat="48.85301" lon="2.43857">
        <ele>124.80000305176</ele>
        <time>2015-09-07T19:07:40Z</time>
      </trkpt>
      <trkpt lat="48.8532" lon="2.43863">
        <ele>121.40000152588</ele>
        <time>2015-09-07T19:07:44Z</time>
      </trkpt>
      <trkpt lat="48.8534" lon="2.4387">
        <ele>123.59999847412</ele>
        <time>2015-09-07T19:07:49Z</time>
      </trkpt>
      <trkpt lat="48.85359" lon="2.43878">
        <ele>120.80000305176</ele>
        <time>2015-09-07T19:07:53Z</time>
      </trkpt>
      <trkpt lat="48.85378" lon="2.43895">
        <ele>117.19999694824</ele>
        <time>2015-09-07T19:07:58Z</time>
      </trkpt>
      <trkpt lat="48.85397" lon="2.43898">
        <ele>117.80000305176</ele>
        <time>2015-09-07T19:08:01Z</time>
      </trkpt>
      <trkpt lat="48.85415" lon="2.43899">
        <ele>117.80000305176</ele>
        <time>2015-09-07T19:08:04Z</time>
      </trkpt>
      <trkpt lat="48.85421" lon="2.43899">
        <ele>118</ele>
        <time>2015-09-07T19:08:05Z</time>
      </trkpt>
      <trkpt lat="48.8544" lon="2.43901">
        <ele>119</ele>
        <time>2015-09-07T19:08:08Z</time>
      </trkpt>
      <trkpt lat="48.85461" lon="2.43905">
        <ele>116</ele>
        <time>2015-09-07T19:08:12Z</time>
      </trkpt>
      <trkpt lat="48.85482" lon="2.43907">
        <ele>116.59999847412</ele>
        <time>2015-09-07T19:08:16Z</time>
      </trkpt>
      <trkpt lat="48.85503" lon="2.43913">
        <ele>115.59999847412</ele>
        <time>2015-09-07T19:08:21Z</time>
      </trkpt>
      <trkpt lat="48.85522" lon="2.43917">
        <ele>114.40000152588</ele>
        <time>2015-09-07T19:08:25Z</time>
      </trkpt>
      <trkpt lat="48.85543" lon="2.43922">
        <ele>116.59999847412</ele>
        <time>2015-09-07T19:08:30Z</time>
      </trkpt>
      <trkpt lat="48.85546" lon="2.43925">
        <ele>115.19999694824</ele>
        <time>2015-09-07T19:08:31Z</time>
      </trkpt>
      <trkpt lat="48.85555" lon="2.43928">
        <ele>113.19999694824</ele>
        <time>2015-09-07T19:08:33Z</time>
      </trkpt>
      <trkpt lat="48.85573" lon="2.43939">
        <ele>104.59999847412</ele>
        <time>2015-09-07T19:08:37Z</time>
      </trkpt>
      <trkpt lat="48.85592" lon="2.43944">
        <ele>101</ele>
        <time>2015-09-07T19:08:42Z</time>
      </trkpt>
      <trkpt lat="48.85595" lon="2.43946">
        <ele>100.59999847412</ele>
        <time>2015-09-07T19:08:43Z</time>
      </trkpt>
      <trkpt lat="48.85608" lon="2.43958">
        <ele>98.400001525879</ele>
        <time>2015-09-07T19:08:47Z</time>
      </trkpt>
      <trkpt lat="48.8563" lon="2.43967">
        <ele>90.199996948242</ele>
        <time>2015-09-07T19:08:52Z</time>
      </trkpt>
      <trkpt lat="48.85643" lon="2.43971">
        <ele>86.800003051758</ele>
        <time>2015-09-07T19:08:55Z</time>
      </trkpt>
      <trkpt lat="48.85662" lon="2.43984">
        <ele>82.599998474121</ele>
        <time>2015-09-07T19:09:00Z</time>
      </trkpt>
      <trkpt lat="48.85677" lon="2.43988">
        <ele>84.599998474121</ele>
        <time>2015-09-07T19:09:03Z</time>
      </trkpt>
      <trkpt lat="48.85699" lon="2.43981">
        <ele>82.599998474121</ele>
        <time>2015-09-07T19:09:05Z</time>
      </trkpt>
      <trkpt lat="48.85703" lon="2.43981">
        <ele>82.599998474121</ele>
        <time>2015-09-07T19:09:06Z</time>
      </trkpt>
      <trkpt lat="48.85723" lon="2.43981">
        <ele>85.599998474121</ele>
        <time>2015-09-07T19:09:11Z</time>
      </trkpt>
      <trkpt lat="48.85725" lon="2.43982">
        <ele>86</ele>
        <time>2015-09-07T19:09:12Z</time>
      </trkpt>
      <trkpt lat="48.85741" lon="2.44">
        <ele>90.400001525879</ele>
        <time>2015-09-07T19:09:29Z</time>
      </trkpt>
      <trkpt lat="48.85745" lon="2.44004">
        <ele>87.599998474121</ele>
        <time>2015-09-07T19:09:34Z</time>
      </trkpt>
      <trkpt lat="48.85746" lon="2.44005">
        <ele>86</ele>
        <time>2015-09-07T19:09:36Z</time>
      </trkpt>
      <trkpt lat="48.85767" lon="2.44007">
        <ele>81.400001525879</ele>
        <time>2015-09-07T19:09:45Z</time>
      </trkpt>
      <trkpt lat="48.85786" lon="2.44014">
        <ele>81</ele>
        <time>2015-09-07T19:09:50Z</time>
      </trkpt>
      <trkpt lat="48.85804" lon="2.44021">
        <ele>82.400001525879</ele>
        <time>2015-09-07T19:09:55Z</time>
      </trkpt>
      <trkpt lat="48.85822" lon="2.44027">
        <ele>83.599998474121</ele>
        <time>2015-09-07T19:10:00Z</time>
      </trkpt>
      <trkpt lat="48.85842" lon="2.44036">
        <ele>82.800003051758</ele>
        <time>2015-09-07T19:10:05Z</time>
      </trkpt>
      <trkpt lat="48.85865" lon="2.44042">
        <ele>86.199996948242</ele>
        <time>2015-09-07T19:10:09Z</time>
      </trkpt>
      <trkpt lat="48.85888" lon="2.44047">
        <ele>88.800003051758</ele>
        <time>2015-09-07T19:10:13Z</time>
      </trkpt>
      <trkpt lat="48.85906" lon="2.4405">
        <ele>91</ele>
        <time>2015-09-07T19:10:16Z</time>
      </trkpt>
      <trkpt lat="48.85923" lon="2.44053">
        <ele>93.199996948242</ele>
        <time>2015-09-07T19:10:19Z</time>
      </trkpt>
      <trkpt lat="48.85934" lon="2.44055">
        <ele>93.599998474121</ele>
        <time>2015-09-07T19:10:21Z</time>
      </trkpt>
      <trkpt lat="48.85955" lon="2.44056">
        <ele>94</ele>
        <time>2015-09-07T19:10:24Z</time>
      </trkpt>
      <trkpt lat="48.85976" lon="2.44057">
        <ele>98.199996948242</ele>
        <time>2015-09-07T19:10:28Z</time>
      </trkpt>
      <trkpt lat="48.85983" lon="2.44063">
        <ele>99.599998474121</ele>
        <time>2015-09-07T19:10:30Z</time>
      </trkpt>
      <trkpt lat="48.85997" lon="2.44078">
        <ele>102</ele>
        <time>2015-09-07T19:10:34Z</time>
      </trkpt>
      <trkpt lat="48.86013" lon="2.44093">
        <ele>101.80000305176</ele>
        <time>2015-09-07T19:10:38Z</time>
      </trkpt>
      <trkpt lat="48.86026" lon="2.44096">
        <ele>99.800003051758</ele>
        <time>2015-09-07T19:10:40Z</time>
      </trkpt>
      <trkpt lat="48.86033" lon="2.44096">
        <ele>99.199996948242</ele>
        <time>2015-09-07T19:10:41Z</time>
      </trkpt>
      <trkpt lat="48.86055" lon="2.44101">
        <ele>100</ele>
        <time>2015-09-07T19:10:45Z</time>
      </trkpt>
      <trkpt lat="48.86071" lon="2.441">
        <ele>100</ele>
        <time>2015-09-07T19:10:47Z</time>
      </trkpt>
      <trkpt lat="48.8609" lon="2.44103">
        <ele>99.800003051758</ele>
        <time>2015-09-07T19:10:50Z</time>
      </trkpt>
      <trkpt lat="48.86111" lon="2.4411">
        <ele>101.40000152588</ele>
        <time>2015-09-07T19:10:54Z</time>
      </trkpt>
      <trkpt lat="48.86133" lon="2.44116">
        <ele>104.40000152588</ele>
        <time>2015-09-07T19:10:58Z</time>
      </trkpt>
      <trkpt lat="48.86141" lon="2.44115">
        <ele>106</ele>
        <time>2015-09-07T19:10:59Z</time>
      </trkpt>
      <trkpt lat="48.86163" lon="2.44119">
        <ele>108.59999847412</ele>
        <time>2015-09-07T19:11:03Z</time>
      </trkpt>
      <trkpt lat="48.86175" lon="2.44118">
        <ele>110.19999694824</ele>
        <time>2015-09-07T19:11:05Z</time>
      </trkpt>
      <trkpt lat="48.86196" lon="2.44118">
        <ele>114.59999847412</ele>
        <time>2015-09-07T19:11:10Z</time>
      </trkpt>
      <trkpt lat="48.86204" lon="2.44118">
        <ele>116.59999847412</ele>
        <time>2015-09-07T19:11:12Z</time>
      </trkpt>
      <trkpt lat="48.86211" lon="2.44118">
        <ele>118.40000152588</ele>
        <time>2015-09-07T19:11:14Z</time>
      </trkpt>
      <trkpt lat="48.86217" lon="2.44119">
        <ele>121.40000152588</ele>
        <time>2015-09-07T19:11:16Z</time>
      </trkpt>
      <trkpt lat="48.86238" lon="2.44125">
        <ele>125</ele>
        <time>2015-09-07T19:11:23Z</time>
      </trkpt>
      <trkpt lat="48.86245" lon="2.4413">
        <ele>130</ele>
        <time>2015-09-07T19:11:28Z</time>
      </trkpt>
      <trkpt lat="48.86246" lon="2.4413">
        <ele>130.80000305176</ele>
        <time>2015-09-07T19:11:29Z</time>
      </trkpt>
      <trkpt lat="48.86247" lon="2.44151">
        <ele>124.19999694824</ele>
        <time>2015-09-07T19:11:53Z</time>
      </trkpt>
      <trkpt lat="48.86244" lon="2.44163">
        <ele>108.80000305176</ele>
        <time>2015-09-07T19:12:49Z</time>
      </trkpt>
      <trkpt lat="48.86251" lon="2.44151">
        <ele>107</ele>
        <time>2015-09-07T19:13:38Z</time>
      </trkpt>
      <trkpt lat="48.8627" lon="2.44148">
        <ele>108</ele>
        <time>2015-09-07T19:13:49Z</time>
      </trkpt>
      <trkpt lat="48.86291" lon="2.44152">
        <ele>109.19999694824</ele>
        <time>2015-09-07T19:13:56Z</time>
      </trkpt>
      <trkpt lat="48.8631" lon="2.44155">
        <ele>111.80000305176</ele>
        <time>2015-09-07T19:14:00Z</time>
      </trkpt>
      <trkpt lat="48.86334" lon="2.44161">
        <ele>112</ele>
        <time>2015-09-07T19:14:04Z</time>
      </trkpt>
      <trkpt lat="48.86354" lon="2.44167">
        <ele>109.19999694824</ele>
        <time>2015-09-07T19:14:07Z</time>
      </trkpt>
      <trkpt lat="48.86373" lon="2.44181">
        <ele>98.599998474121</ele>
        <time>2015-09-07T19:14:10Z</time>
      </trkpt>
      <trkpt lat="48.86386" lon="2.44191">
        <ele>92.400001525879</ele>
        <time>2015-09-07T19:14:12Z</time>
      </trkpt>
      <trkpt lat="48.86408" lon="2.44207">
        <ele>87.800003051758</ele>
        <time>2015-09-07T19:14:16Z</time>
      </trkpt>
      <trkpt lat="48.86424" lon="2.44222">
        <ele>86.599998474121</ele>
        <time>2015-09-07T19:14:19Z</time>
      </trkpt>
      <trkpt lat="48.86429" lon="2.44227">
        <ele>86</ele>
        <time>2015-09-07T19:14:20Z</time>
      </trkpt>
      <trkpt lat="48.86444" lon="2.44244">
        <ele>86.599998474121</ele>
        <time>2015-09-07T19:14:23Z</time>
      </trkpt>
      <trkpt lat="48.8646" lon="2.4426">
        <ele>85.199996948242</ele>
        <time>2015-09-07T19:14:26Z</time>
      </trkpt>
      <trkpt lat="48.8647" lon="2.4427">
        <ele>84.800003051758</ele>
        <time>2015-09-07T19:14:28Z</time>
      </trkpt>
      <trkpt lat="48.86488" lon="2.44288">
        <ele>84.400001525879</ele>
        <time>2015-09-07T19:14:32Z</time>
      </trkpt>
      <trkpt lat="48.86506" lon="2.4431">
        <ele>84</ele>
        <time>2015-09-07T19:14:36Z</time>
      </trkpt>
      <trkpt lat="48.8652" lon="2.4433">
        <ele>82.199996948242</ele>
        <time>2015-09-07T19:14:40Z</time>
      </trkpt>
      <trkpt lat="48.86527" lon="2.44341">
        <ele>81.199996948242</ele>
        <time>2015-09-07T19:14:43Z</time>
      </trkpt>
      <trkpt lat="48.86536" lon="2.44356">
        <ele>80.599998474121</ele>
        <time>2015-09-07T19:14:49Z</time>
      </trkpt>
      <trkpt lat="48.86544" lon="2.44366">
        <ele>81.400001525879</ele>
        <time>2015-09-07T19:15:32Z</time>
      </trkpt>
      <trkpt lat="48.86562" lon="2.44384">
        <ele>81.199996948242</ele>
        <time>2015-09-07T19:15:38Z</time>
      </trkpt>
      <trkpt lat="48.86577" lon="2.44402">
        <ele>80.599998474121</ele>
        <time>2015-09-07T19:15:42Z</time>
      </trkpt>
      <trkpt lat="48.8659" lon="2.44417">
        <ele>80.400001525879</ele>
        <time>2015-09-07T19:15:45Z</time>
      </trkpt>
      <trkpt lat="48.86605" lon="2.44434">
        <ele>80.400001525879</ele>
        <time>2015-09-07T19:15:48Z</time>
      </trkpt>
      <trkpt lat="48.86622" lon="2.44451">
        <ele>80.800003051758</ele>
        <time>2015-09-07T19:15:51Z</time>
      </trkpt>
      <trkpt lat="48.86639" lon="2.44469">
        <ele>81</ele>
        <time>2015-09-07T19:15:54Z</time>
      </trkpt>
      <trkpt lat="48.86651" lon="2.44481">
        <ele>81.599998474121</ele>
        <time>2015-09-07T19:15:56Z</time>
      </trkpt>
      <trkpt lat="48.8667" lon="2.44498">
        <ele>82</ele>
        <time>2015-09-07T19:15:59Z</time>
      </trkpt>
      <trkpt lat="48.86687" lon="2.44515">
        <ele>82.800003051758</ele>
        <time>2015-09-07T19:16:02Z</time>
      </trkpt>
      <trkpt lat="48.86703" lon="2.44534">
        <ele>84</ele>
        <time>2015-09-07T19:16:05Z</time>
      </trkpt>
      <trkpt lat="48.8672" lon="2.44554">
        <ele>84.400001525879</ele>
        <time>2015-09-07T19:16:08Z</time>
      </trkpt>
      <trkpt lat="48.86736" lon="2.44571">
        <ele>86.199996948242</ele>
        <time>2015-09-07T19:16:11Z</time>
      </trkpt>
      <trkpt lat="48.86752" lon="2.44587">
        <ele>87.800003051758</ele>
        <time>2015-09-07T19:16:14Z</time>
      </trkpt>
      <trkpt lat="48.86757" lon="2.44592">
        <ele>88</ele>
        <time>2015-09-07T19:16:15Z</time>
      </trkpt>
      <trkpt lat="48.86773" lon="2.44608">
        <ele>90.199996948242</ele>
        <time>2015-09-07T19:16:18Z</time>
      </trkpt>
      <trkpt lat="48.86789" lon="2.44625">
        <ele>91.400001525879</ele>
        <time>2015-09-07T19:16:21Z</time>
      </trkpt>
      <trkpt lat="48.86798" lon="2.44637">
        <ele>91.800003051758</ele>
        <time>2015-09-07T19:16:23Z</time>
      </trkpt>
      <trkpt lat="48.86813" lon="2.44655">
        <ele>91.599998474121</ele>
        <time>2015-09-07T19:16:27Z</time>
      </trkpt>
      <trkpt lat="48.86816" lon="2.44659">
        <ele>91.199996948242</ele>
        <time>2015-09-07T19:16:28Z</time>
      </trkpt>
      <trkpt lat="48.86825" lon="2.44676">
        <ele>91.199996948242</ele>
        <time>2015-09-07T19:16:32Z</time>
      </trkpt>
      <trkpt lat="48.86831" lon="2.4469">
        <ele>89.599998474121</ele>
        <time>2015-09-07T19:16:36Z</time>
      </trkpt>
      <trkpt lat="48.86834" lon="2.44699">
        <ele>89.599998474121</ele>
        <time>2015-09-07T19:16:41Z</time>
      </trkpt>
      <trkpt lat="48.86833" lon="2.44699">
        <ele>89.400001525879</ele>
        <time>2015-09-07T19:16:42Z</time>
      </trkpt>
      <trkpt lat="48.86834" lon="2.44708">
        <ele>89.199996948242</ele>
        <time>2015-09-07T19:17:23Z</time>
      </trkpt>
      <trkpt lat="48.86848" lon="2.44731">
        <ele>90.800003051758</ele>
        <time>2015-09-07T19:17:29Z</time>
      </trkpt>
      <trkpt lat="48.86865" lon="2.44754">
        <ele>92.199996948242</ele>
        <time>2015-09-07T19:17:34Z</time>
      </trkpt>
      <trkpt lat="48.86879" lon="2.44772">
        <ele>93.199996948242</ele>
        <time>2015-09-07T19:17:38Z</time>
      </trkpt>
      <trkpt lat="48.86892" lon="2.44792">
        <ele>94.400001525879</ele>
        <time>2015-09-07T19:17:42Z</time>
      </trkpt>
      <trkpt lat="48.86907" lon="2.44815">
        <ele>95.400001525879</ele>
        <time>2015-09-07T19:17:46Z</time>
      </trkpt>
      <trkpt lat="48.86921" lon="2.44837">
        <ele>96.800003051758</ele>
        <time>2015-09-07T19:17:50Z</time>
      </trkpt>
      <trkpt lat="48.86934" lon="2.44858">
        <ele>97.599998474121</ele>
        <time>2015-09-07T19:17:54Z</time>
      </trkpt>
      <trkpt lat="48.86946" lon="2.44878">
        <ele>98.400001525879</ele>
        <time>2015-09-07T19:17:58Z</time>
      </trkpt>
      <trkpt lat="48.86953" lon="2.44887">
        <ele>98.800003051758</ele>
        <time>2015-09-07T19:18:00Z</time>
      </trkpt>
      <trkpt lat="48.86963" lon="2.44912">
        <ele>100.80000305176</ele>
        <time>2015-09-07T19:18:06Z</time>
      </trkpt>
      <trkpt lat="48.86976" lon="2.44939">
        <ele>104.40000152588</ele>
        <time>2015-09-07T19:18:12Z</time>
      </trkpt>
      <trkpt lat="48.86987" lon="2.44961">
        <ele>107.59999847412</ele>
        <time>2015-09-07T19:18:17Z</time>
      </trkpt>
      <trkpt lat="48.87" lon="2.44988">
        <ele>108.40000152588</ele>
        <time>2015-09-07T19:18:22Z</time>
      </trkpt>
      <trkpt lat="48.87012" lon="2.45012">
        <ele>107.59999847412</ele>
        <time>2015-09-07T19:18:26Z</time>
      </trkpt>
      <trkpt lat="48.87023" lon="2.45034">
        <ele>106</ele>
        <time>2015-09-07T19:18:30Z</time>
      </trkpt>
      <trkpt lat="48.87035" lon="2.4506">
        <ele>101.80000305176</ele>
        <time>2015-09-07T19:18:34Z</time>
      </trkpt>
      <trkpt lat="48.8705" lon="2.45086">
        <ele>102.59999847412</ele>
        <time>2015-09-07T19:18:39Z</time>
      </trkpt>
      <trkpt lat="48.87063" lon="2.45109">
        <ele>102.19999694824</ele>
        <time>2015-09-07T19:18:43Z</time>
      </trkpt>
      <trkpt lat="48.87073" lon="2.45127">
        <ele>102.40000152588</ele>
        <time>2015-09-07T19:18:46Z</time>
      </trkpt>
      <trkpt lat="48.87087" lon="2.45152">
        <ele>104</ele>
        <time>2015-09-07T19:18:50Z</time>
      </trkpt>
      <trkpt lat="48.871" lon="2.45175">
        <ele>105.40000152588</ele>
        <time>2015-09-07T19:18:54Z</time>
      </trkpt>
      <trkpt lat="48.87111" lon="2.4519">
        <ele>106.40000152588</ele>
        <time>2015-09-07T19:18:58Z</time>
      </trkpt>
      <trkpt lat="48.87113" lon="2.45205">
        <ele>105.19999694824</ele>
        <time>2015-09-07T19:19:02Z</time>
      </trkpt>
      <trkpt lat="48.87114" lon="2.45207">
        <ele>104.80000305176</ele>
        <time>2015-09-07T19:19:04Z</time>
      </trkpt>
      <trkpt lat="48.87121" lon="2.45204">
        <ele>100.19999694824</ele>
        <time>2015-09-07T19:19:47Z</time>
      </trkpt>
      <trkpt lat="48.87128" lon="2.45211">
        <ele>99.400001525879</ele>
        <time>2015-09-07T19:19:51Z</time>
      </trkpt>
      <trkpt lat="48.87142" lon="2.45228">
        <ele>98.400001525879</ele>
        <time>2015-09-07T19:19:57Z</time>
      </trkpt>
      <trkpt lat="48.87157" lon="2.45244">
        <ele>97.800003051758</ele>
        <time>2015-09-07T19:20:02Z</time>
      </trkpt>
      <trkpt lat="48.87176" lon="2.45263">
        <ele>98.400001525879</ele>
        <time>2015-09-07T19:20:07Z</time>
      </trkpt>
      <trkpt lat="48.87196" lon="2.45276">
        <ele>98.199996948242</ele>
        <time>2015-09-07T19:20:12Z</time>
      </trkpt>
      <trkpt lat="48.87212" lon="2.4529">
        <ele>98.800003051758</ele>
        <time>2015-09-07T19:20:16Z</time>
      </trkpt>
      <trkpt lat="48.87232" lon="2.45303">
        <ele>99.599998474121</ele>
        <time>2015-09-07T19:20:21Z</time>
      </trkpt>
      <trkpt lat="48.8725" lon="2.45314">
        <ele>101.59999847412</ele>
        <time>2015-09-07T19:20:26Z</time>
      </trkpt>
      <trkpt lat="48.87268" lon="2.45329">
        <ele>103.59999847412</ele>
        <time>2015-09-07T19:20:30Z</time>
      </trkpt>
      <trkpt lat="48.87289" lon="2.45347">
        <ele>104.19999694824</ele>
        <time>2015-09-07T19:20:34Z</time>
      </trkpt>
      <trkpt lat="48.87294" lon="2.45351">
        <ele>103.80000305176</ele>
        <time>2015-09-07T19:20:35Z</time>
      </trkpt>
      <trkpt lat="48.87309" lon="2.45365">
        <ele>103.40000152588</ele>
        <time>2015-09-07T19:20:38Z</time>
      </trkpt>
      <trkpt lat="48.87328" lon="2.45381">
        <ele>104.19999694824</ele>
        <time>2015-09-07T19:20:43Z</time>
      </trkpt>
      <trkpt lat="48.87347" lon="2.45392">
        <ele>106.40000152588</ele>
        <time>2015-09-07T19:20:48Z</time>
      </trkpt>
      <trkpt lat="48.87362" lon="2.454">
        <ele>108.40000152588</ele>
        <time>2015-09-07T19:20:52Z</time>
      </trkpt>
      <trkpt lat="48.87383" lon="2.45412">
        <ele>112.40000152588</ele>
        <time>2015-09-07T19:20:57Z</time>
      </trkpt>
      <trkpt lat="48.87403" lon="2.45423">
        <ele>116.59999847412</ele>
        <time>2015-09-07T19:21:02Z</time>
      </trkpt>
      <trkpt lat="48.87416" lon="2.4543">
        <ele>119.80000305176</ele>
        <time>2015-09-07T19:21:05Z</time>
      </trkpt>
      <trkpt lat="48.87438" lon="2.45437">
        <ele>125.59999847412</ele>
        <time>2015-09-07T19:21:10Z</time>
      </trkpt>
      <trkpt lat="48.87442" lon="2.4544">
        <ele>126.59999847412</ele>
        <time>2015-09-07T19:21:11Z</time>
      </trkpt>
      <trkpt lat="48.87461" lon="2.4545">
        <ele>132.60000610352</ele>
        <time>2015-09-07T19:21:15Z</time>
      </trkpt>
      <trkpt lat="48.87481" lon="2.45465">
        <ele>139</ele>
        <time>2015-09-07T19:21:19Z</time>
      </trkpt>
      <trkpt lat="48.87497" lon="2.45479">
        <ele>142.39999389648</ele>
        <time>2015-09-07T19:21:22Z</time>
      </trkpt>
      <trkpt lat="48.87514" lon="2.45493">
        <ele>145.39999389648</ele>
        <time>2015-09-07T19:21:25Z</time>
      </trkpt>
      <trkpt lat="48.8753" lon="2.45504">
        <ele>149.19999694824</ele>
        <time>2015-09-07T19:21:28Z</time>
      </trkpt>
      <trkpt lat="48.87551" lon="2.45515">
        <ele>155</ele>
        <time>2015-09-07T19:21:32Z</time>
      </trkpt>
      <trkpt lat="48.87556" lon="2.45516">
        <ele>156.39999389648</ele>
        <time>2015-09-07T19:21:33Z</time>
      </trkpt>
      <trkpt lat="48.87575" lon="2.45527">
        <ele>161.60000610352</ele>
        <time>2015-09-07T19:21:37Z</time>
      </trkpt>
      <trkpt lat="48.87594" lon="2.45539">
        <ele>164.19999694824</ele>
        <time>2015-09-07T19:21:41Z</time>
      </trkpt>
      <trkpt lat="48.87602" lon="2.45549">
        <ele>164.80000305176</ele>
        <time>2015-09-07T19:21:43Z</time>
      </trkpt>
      <trkpt lat="48.87619" lon="2.45564">
        <ele>164.60000610352</ele>
        <time>2015-09-07T19:21:48Z</time>
      </trkpt>
      <trkpt lat="48.87625" lon="2.45573">
        <ele>162.60000610352</ele>
        <time>2015-09-07T19:21:50Z</time>
      </trkpt>
      <trkpt lat="48.87634" lon="2.45593">
        <ele>159.19999694824</ele>
        <time>2015-09-07T19:21:55Z</time>
      </trkpt>
      <trkpt lat="48.87637" lon="2.45619">
        <ele>127</ele>
        <time>2015-09-07T19:22:55Z</time>
      </trkpt>
      <trkpt lat="48.87659" lon="2.45628">
        <ele>125.19999694824</ele>
        <time>2015-09-07T19:23:00Z</time>
      </trkpt>
      <trkpt lat="48.87677" lon="2.45635">
        <ele>124</ele>
        <time>2015-09-07T19:23:04Z</time>
      </trkpt>
      <trkpt lat="48.877" lon="2.45643">
        <ele>123.80000305176</ele>
        <time>2015-09-07T19:23:08Z</time>
      </trkpt>
      <trkpt lat="48.87721" lon="2.45652">
        <ele>124.19999694824</ele>
        <time>2015-09-07T19:23:12Z</time>
      </trkpt>
      <trkpt lat="48.87742" lon="2.45663">
        <ele>124.40000152588</ele>
        <time>2015-09-07T19:23:16Z</time>
      </trkpt>
      <trkpt lat="48.87763" lon="2.45677">
        <ele>125</ele>
        <time>2015-09-07T19:23:20Z</time>
      </trkpt>
      <trkpt lat="48.87769" lon="2.45678">
        <ele>125</ele>
        <time>2015-09-07T19:23:21Z</time>
      </trkpt>
      <trkpt lat="48.8778" lon="2.45684">
        <ele>125.19999694824</ele>
        <time>2015-09-07T19:23:23Z</time>
      </trkpt>
      <trkpt lat="48.87795" lon="2.45693">
        <ele>124.80000305176</ele>
        <time>2015-09-07T19:23:26Z</time>
      </trkpt>
      <trkpt lat="48.87802" lon="2.45709">
        <ele>122.59999847412</ele>
        <time>2015-09-07T19:23:30Z</time>
      </trkpt>
      <trkpt lat="48.87809" lon="2.45717">
        <ele>122.59999847412</ele>
        <time>2015-09-07T19:23:33Z</time>
      </trkpt>
      <trkpt lat="48.87807" lon="2.45739">
        <ele>119.59999847412</ele>
        <time>2015-09-07T19:23:41Z</time>
      </trkpt>
      <trkpt lat="48.8781" lon="2.45736">
        <ele>115</ele>
        <time>2015-09-07T19:24:28Z</time>
      </trkpt>
      <trkpt lat="48.87815" lon="2.45707">
        <ele>114.19999694824</ele>
        <time>2015-09-07T19:24:35Z</time>
      </trkpt>
      <trkpt lat="48.87816" lon="2.45679">
        <ele>112.59999847412</ele>
        <time>2015-09-07T19:24:40Z</time>
      </trkpt>
      <trkpt lat="48.87817" lon="2.45651">
        <ele>111.59999847412</ele>
        <time>2015-09-07T19:24:44Z</time>
      </trkpt>
      <trkpt lat="48.87817" lon="2.45622">
        <ele>111</ele>
        <time>2015-09-07T19:24:48Z</time>
      </trkpt>
      <trkpt lat="48.87818" lon="2.45594">
        <ele>110.19999694824</ele>
        <time>2015-09-07T19:24:52Z</time>
      </trkpt>
      <trkpt lat="48.87822" lon="2.45564">
        <ele>109.80000305176</ele>
        <time>2015-09-07T19:24:56Z</time>
      </trkpt>
      <trkpt lat="48.8782" lon="2.45535">
        <ele>108.80000305176</ele>
        <time>2015-09-07T19:25:00Z</time>
      </trkpt>
      <trkpt lat="48.87819" lon="2.45505">
        <ele>107.59999847412</ele>
        <time>2015-09-07T19:25:04Z</time>
      </trkpt>
      <trkpt lat="48.87819" lon="2.4549">
        <ele>107.59999847412</ele>
        <time>2015-09-07T19:25:06Z</time>
      </trkpt>
      <trkpt lat="48.87819" lon="2.45474">
        <ele>107.40000152588</ele>
        <time>2015-09-07T19:25:08Z</time>
      </trkpt>
      <trkpt lat="48.87818" lon="2.45445">
        <ele>106.40000152588</ele>
        <time>2015-09-07T19:25:12Z</time>
      </trkpt>
      <trkpt lat="48.87818" lon="2.45438">
        <ele>106</ele>
        <time>2015-09-07T19:25:13Z</time>
      </trkpt>
      <trkpt lat="48.87819" lon="2.45409">
        <ele>105.40000152588</ele>
        <time>2015-09-07T19:25:17Z</time>
      </trkpt>
      <trkpt lat="48.87819" lon="2.45381">
        <ele>105.19999694824</ele>
        <time>2015-09-07T19:25:21Z</time>
      </trkpt>
      <trkpt lat="48.87822" lon="2.45349">
        <ele>105.59999847412</ele>
        <time>2015-09-07T19:25:25Z</time>
      </trkpt>
      <trkpt lat="48.87827" lon="2.45316">
        <ele>106.40000152588</ele>
        <time>2015-09-07T19:25:29Z</time>
      </trkpt>
      <trkpt lat="48.87831" lon="2.45285">
        <ele>107.19999694824</ele>
        <time>2015-09-07T19:25:33Z</time>
      </trkpt>
      <trkpt lat="48.87832" lon="2.45271">
        <ele>107.80000305176</ele>
        <time>2015-09-07T19:25:35Z</time>
      </trkpt>
      <trkpt lat="48.87831" lon="2.45243">
        <ele>107.80000305176</ele>
        <time>2015-09-07T19:25:39Z</time>
      </trkpt>
      <trkpt lat="48.87832" lon="2.4521">
        <ele>109.40000152588</ele>
        <time>2015-09-07T19:25:43Z</time>
      </trkpt>
      <trkpt lat="48.87834" lon="2.45193">
        <ele>110.40000152588</ele>
        <time>2015-09-07T19:25:45Z</time>
      </trkpt>
      <trkpt lat="48.87838" lon="2.45165">
        <ele>112.19999694824</ele>
        <time>2015-09-07T19:25:48Z</time>
      </trkpt>
      <trkpt lat="48.87843" lon="2.45129">
        <ele>114</ele>
        <time>2015-09-07T19:25:52Z</time>
      </trkpt>
      <trkpt lat="48.87843" lon="2.45102">
        <ele>113.80000305176</ele>
        <time>2015-09-07T19:25:55Z</time>
      </trkpt>
      <trkpt lat="48.87847" lon="2.45067">
        <ele>114.19999694824</ele>
        <time>2015-09-07T19:25:59Z</time>
      </trkpt>
      <trkpt lat="48.8785" lon="2.45035">
        <ele>114</ele>
        <time>2015-09-07T19:26:03Z</time>
      </trkpt>
      <trkpt lat="48.87852" lon="2.45026">
        <ele>113.59999847412</ele>
        <time>2015-09-07T19:26:04Z</time>
      </trkpt>
      <trkpt lat="48.87856" lon="2.44996">
        <ele>111.59999847412</ele>
        <time>2015-09-07T19:26:08Z</time>
      </trkpt>
      <trkpt lat="48.87855" lon="2.44991">
        <ele>110.80000305176</ele>
        <time>2015-09-07T19:26:09Z</time>
      </trkpt>
      <trkpt lat="48.87856" lon="2.4498">
        <ele>110.40000152588</ele>
        <time>2015-09-07T19:26:11Z</time>
      </trkpt>
      <trkpt lat="48.8786" lon="2.44959">
        <ele>109.40000152588</ele>
        <time>2015-09-07T19:26:22Z</time>
      </trkpt>
      <trkpt lat="48.8786" lon="2.44959">
        <ele>109.40000152588</ele>
        <time>2015-09-07T19:26:23Z</time>
      </trkpt>
      <trkpt lat="48.87867" lon="2.44956">
        <ele>111.59999847412</ele>
        <time>2015-09-07T19:26:32Z</time>
      </trkpt>
      <trkpt lat="48.87882" lon="2.44936">
        <ele>116.40000152588</ele>
        <time>2015-09-07T19:26:47Z</time>
      </trkpt>
      <trkpt lat="48.879" lon="2.44921">
        <ele>114.40000152588</ele>
        <time>2015-09-07T19:26:51Z</time>
      </trkpt>
      <trkpt lat="48.87919" lon="2.44905">
        <ele>113</ele>
        <time>2015-09-07T19:26:55Z</time>
      </trkpt>
      <trkpt lat="48.87923" lon="2.44901">
        <ele>113</ele>
        <time>2015-09-07T19:26:56Z</time>
      </trkpt>
      <trkpt lat="48.87942" lon="2.44884">
        <ele>112.80000305176</ele>
        <time>2015-09-07T19:27:00Z</time>
      </trkpt>
      <trkpt lat="48.87962" lon="2.44864">
        <ele>112.40000152588</ele>
        <time>2015-09-07T19:27:04Z</time>
      </trkpt>
      <trkpt lat="48.87967" lon="2.44859">
        <ele>112.19999694824</ele>
        <time>2015-09-07T19:27:05Z</time>
      </trkpt>
      <trkpt lat="48.87983" lon="2.44843">
        <ele>111.59999847412</ele>
        <time>2015-09-07T19:27:08Z</time>
      </trkpt>
      <trkpt lat="48.88" lon="2.44827">
        <ele>111.19999694824</ele>
        <time>2015-09-07T19:27:11Z</time>
      </trkpt>
      <trkpt lat="48.88018" lon="2.44812">
        <ele>111</ele>
        <time>2015-09-07T19:27:14Z</time>
      </trkpt>
      <trkpt lat="48.88035" lon="2.44795">
        <ele>109.40000152588</ele>
        <time>2015-09-07T19:27:17Z</time>
      </trkpt>
      <trkpt lat="48.88051" lon="2.44777">
        <ele>107.80000305176</ele>
        <time>2015-09-07T19:27:20Z</time>
      </trkpt>
      <trkpt lat="48.88068" lon="2.44761">
        <ele>106.40000152588</ele>
        <time>2015-09-07T19:27:23Z</time>
      </trkpt>
      <trkpt lat="48.88086" lon="2.44745">
        <ele>104.59999847412</ele>
        <time>2015-09-07T19:27:26Z</time>
      </trkpt>
      <trkpt lat="48.88106" lon="2.44728">
        <ele>103.19999694824</ele>
        <time>2015-09-07T19:27:29Z</time>
      </trkpt>
      <trkpt lat="48.88111" lon="2.44722">
        <ele>102.80000305176</ele>
        <time>2015-09-07T19:27:30Z</time>
      </trkpt>
      <trkpt lat="48.88122" lon="2.44707">
        <ele>102.80000305176</ele>
        <time>2015-09-07T19:27:32Z</time>
      </trkpt>
      <trkpt lat="48.88135" lon="2.44682">
        <ele>101.80000305176</ele>
        <time>2015-09-07T19:27:35Z</time>
      </trkpt>
      <trkpt lat="48.88147" lon="2.44654">
        <ele>101.40000152588</ele>
        <time>2015-09-07T19:27:38Z</time>
      </trkpt>
      <trkpt lat="48.88154" lon="2.44634">
        <ele>101.19999694824</ele>
        <time>2015-09-07T19:27:40Z</time>
      </trkpt>
      <trkpt lat="48.88167" lon="2.44606">
        <ele>102.19999694824</ele>
        <time>2015-09-07T19:27:43Z</time>
      </trkpt>
      <trkpt lat="48.88175" lon="2.44587">
        <ele>103</ele>
        <time>2015-09-07T19:27:45Z</time>
      </trkpt>
      <trkpt lat="48.88188" lon="2.44556">
        <ele>103.59999847412</ele>
        <time>2015-09-07T19:27:48Z</time>
      </trkpt>
      <trkpt lat="48.88195" lon="2.44537">
        <ele>104.19999694824</ele>
        <time>2015-09-07T19:27:50Z</time>
      </trkpt>
      <trkpt lat="48.88206" lon="2.44509">
        <ele>104.80000305176</ele>
        <time>2015-09-07T19:27:53Z</time>
      </trkpt>
      <trkpt lat="48.88217" lon="2.4448">
        <ele>106.80000305176</ele>
        <time>2015-09-07T19:27:56Z</time>
      </trkpt>
      <trkpt lat="48.88228" lon="2.44452">
        <ele>108.19999694824</ele>
        <time>2015-09-07T19:27:59Z</time>
      </trkpt>
      <trkpt lat="48.8824" lon="2.44423">
        <ele>110.59999847412</ele>
        <time>2015-09-07T19:28:02Z</time>
      </trkpt>
      <trkpt lat="48.88253" lon="2.44393">
        <ele>113</ele>
        <time>2015-09-07T19:28:05Z</time>
      </trkpt>
      <trkpt lat="48.88266" lon="2.44364">
        <ele>115.59999847412</ele>
        <time>2015-09-07T19:28:08Z</time>
      </trkpt>
      <trkpt lat="48.88279" lon="2.44334">
        <ele>119.80000305176</ele>
        <time>2015-09-07T19:28:11Z</time>
      </trkpt>
      <trkpt lat="48.88291" lon="2.44307">
        <ele>119.19999694824</ele>
        <time>2015-09-07T19:28:14Z</time>
      </trkpt>
      <trkpt lat="48.88302" lon="2.4428">
        <ele>118.59999847412</ele>
        <time>2015-09-07T19:28:17Z</time>
      </trkpt>
      <trkpt lat="48.88312" lon="2.44254">
        <ele>119.59999847412</ele>
        <time>2015-09-07T19:28:20Z</time>
      </trkpt>
      <trkpt lat="48.88322" lon="2.4423">
        <ele>122</ele>
        <time>2015-09-07T19:28:23Z</time>
      </trkpt>
      <trkpt lat="48.88331" lon="2.44206">
        <ele>121.80000305176</ele>
        <time>2015-09-07T19:28:26Z</time>
      </trkpt>
      <trkpt lat="48.88336" lon="2.44191">
        <ele>121.19999694824</ele>
        <time>2015-09-07T19:28:28Z</time>
      </trkpt>
      <trkpt lat="48.88348" lon="2.44164">
        <ele>122.80000305176</ele>
        <time>2015-09-07T19:28:32Z</time>
      </trkpt>
      <trkpt lat="48.88359" lon="2.44139">
        <ele>122</ele>
        <time>2015-09-07T19:28:36Z</time>
      </trkpt>
      <trkpt lat="48.88368" lon="2.44117">
        <ele>123.59999847412</ele>
        <time>2015-09-07T19:28:40Z</time>
      </trkpt>
      <trkpt lat="48.88377" lon="2.44095">
        <ele>125.40000152588</ele>
        <time>2015-09-07T19:28:45Z</time>
      </trkpt>
      <trkpt lat="48.8838" lon="2.44087">
        <ele>125.59999847412</ele>
        <time>2015-09-07T19:28:47Z</time>
      </trkpt>
      <trkpt lat="48.88381" lon="2.44079">
        <ele>125.19999694824</ele>
        <time>2015-09-07T19:28:51Z</time>
      </trkpt>
      <trkpt lat="48.88376" lon="2.44066">
        <ele>131.19999694824</ele>
        <time>2015-09-07T19:29:53Z</time>
      </trkpt>
      <trkpt lat="48.88376" lon="2.44039">
        <ele>130.60000610352</ele>
        <time>2015-09-07T19:30:00Z</time>
      </trkpt>
      <trkpt lat="48.88372" lon="2.44012">
        <ele>129.80000305176</ele>
        <time>2015-09-07T19:30:06Z</time>
      </trkpt>
      <trkpt lat="48.88367" lon="2.43983">
        <ele>129.39999389648</ele>
        <time>2015-09-07T19:30:11Z</time>
      </trkpt>
      <trkpt lat="48.88364" lon="2.43952">
        <ele>129</ele>
        <time>2015-09-07T19:30:16Z</time>
      </trkpt>
      <trkpt lat="48.88361" lon="2.43923">
        <ele>128</ele>
        <time>2015-09-07T19:30:20Z</time>
      </trkpt>
      <trkpt lat="48.88355" lon="2.43893">
        <ele>127.59999847412</ele>
        <time>2015-09-07T19:30:25Z</time>
      </trkpt>
      <trkpt lat="48.88345" lon="2.43866">
        <ele>127</ele>
        <time>2015-09-07T19:30:30Z</time>
      </trkpt>
      <trkpt lat="48.88339" lon="2.43835">
        <ele>126.19999694824</ele>
        <time>2015-09-07T19:30:35Z</time>
      </trkpt>
      <trkpt lat="48.88337" lon="2.43808">
        <ele>125.40000152588</ele>
        <time>2015-09-07T19:30:39Z</time>
      </trkpt>
      <trkpt lat="48.88335" lon="2.43774">
        <ele>124.19999694824</ele>
        <time>2015-09-07T19:30:44Z</time>
      </trkpt>
      <trkpt lat="48.88332" lon="2.43746">
        <ele>122.80000305176</ele>
        <time>2015-09-07T19:30:48Z</time>
      </trkpt>
      <trkpt lat="48.88329" lon="2.43718">
        <ele>121.59999847412</ele>
        <time>2015-09-07T19:30:52Z</time>
      </trkpt>
      <trkpt lat="48.88322" lon="2.4369">
        <ele>120.80000305176</ele>
        <time>2015-09-07T19:30:56Z</time>
      </trkpt>
      <trkpt lat="48.88312" lon="2.43663">
        <ele>120.19999694824</ele>
        <time>2015-09-07T19:31:00Z</time>
      </trkpt>
      <trkpt lat="48.883" lon="2.43635">
        <ele>118.59999847412</ele>
        <time>2015-09-07T19:31:04Z</time>
      </trkpt>
      <trkpt lat="48.88293" lon="2.43606">
        <ele>117.40000152588</ele>
        <time>2015-09-07T19:31:08Z</time>
      </trkpt>
      <trkpt lat="48.88286" lon="2.43577">
        <ele>116.40000152588</ele>
        <time>2015-09-07T19:31:12Z</time>
      </trkpt>
      <trkpt lat="48.88277" lon="2.43552">
        <ele>116.19999694824</ele>
        <time>2015-09-07T19:31:16Z</time>
      </trkpt>
      <trkpt lat="48.88267" lon="2.43523">
        <ele>115.59999847412</ele>
        <time>2015-09-07T19:31:21Z</time>
      </trkpt>
      <trkpt lat="48.88263" lon="2.43496">
        <ele>115</ele>
        <time>2015-09-07T19:31:25Z</time>
      </trkpt>
      <trkpt lat="48.8826" lon="2.43466">
        <ele>114.80000305176</ele>
        <time>2015-09-07T19:31:29Z</time>
      </trkpt>
      <trkpt lat="48.88259" lon="2.43434">
        <ele>115.19999694824</ele>
        <time>2015-09-07T19:31:33Z</time>
      </trkpt>
      <trkpt lat="48.88255" lon="2.43408">
        <ele>115.40000152588</ele>
        <time>2015-09-07T19:31:37Z</time>
      </trkpt>
      <trkpt lat="48.88248" lon="2.43381">
        <ele>115.80000305176</ele>
        <time>2015-09-07T19:31:41Z</time>
      </trkpt>
      <trkpt lat="48.88241" lon="2.43354">
        <ele>115.80000305176</ele>
        <time>2015-09-07T19:31:45Z</time>
      </trkpt>
      <trkpt lat="48.8824" lon="2.43322">
        <ele>116.40000152588</ele>
        <time>2015-09-07T19:31:50Z</time>
      </trkpt>
      <trkpt lat="48.8824" lon="2.43312">
        <ele>117.80000305176</ele>
        <time>2015-09-07T19:31:52Z</time>
      </trkpt>
      <trkpt lat="48.88238" lon="2.433">
        <ele>117.80000305176</ele>
        <time>2015-09-07T19:31:54Z</time>
      </trkpt>
      <trkpt lat="48.8823" lon="2.43269">
        <ele>118.59999847412</ele>
        <time>2015-09-07T19:31:59Z</time>
      </trkpt>
      <trkpt lat="48.88224" lon="2.43242">
        <ele>119.40000152588</ele>
        <time>2015-09-07T19:32:03Z</time>
      </trkpt>
      <trkpt lat="48.88219" lon="2.43213">
        <ele>119.80000305176</ele>
        <time>2015-09-07T19:32:07Z</time>
      </trkpt>
      <trkpt lat="48.88213" lon="2.43182">
        <ele>120.19999694824</ele>
        <time>2015-09-07T19:32:11Z</time>
      </trkpt>
      <trkpt lat="48.88206" lon="2.4315">
        <ele>120.40000152588</ele>
        <time>2015-09-07T19:32:15Z</time>
      </trkpt>
      <trkpt lat="48.882" lon="2.43118">
        <ele>120.80000305176</ele>
        <time>2015-09-07T19:32:19Z</time>
      </trkpt>
      <trkpt lat="48.88194" lon="2.43086">
        <ele>121.40000152588</ele>
        <time>2015-09-07T19:32:23Z</time>
      </trkpt>
      <trkpt lat="48.88188" lon="2.43052">
        <ele>121.40000152588</ele>
        <time>2015-09-07T19:32:27Z</time>
      </trkpt>
      <trkpt lat="48.88184" lon="2.43024">
        <ele>121.19999694824</ele>
        <time>2015-09-07T19:32:30Z</time>
      </trkpt>
      <trkpt lat="48.8818" lon="2.42997">
        <ele>121</ele>
        <time>2015-09-07T19:32:33Z</time>
      </trkpt>
      <trkpt lat="48.88173" lon="2.42971">
        <ele>121.19999694824</ele>
        <time>2015-09-07T19:32:36Z</time>
      </trkpt>
      <trkpt lat="48.88166" lon="2.42937">
        <ele>122</ele>
        <time>2015-09-07T19:32:40Z</time>
      </trkpt>
      <trkpt lat="48.88155" lon="2.42905">
        <ele>122.19999694824</ele>
        <time>2015-09-07T19:32:44Z</time>
      </trkpt>
      <trkpt lat="48.88145" lon="2.42874">
        <ele>122.40000152588</ele>
        <time>2015-09-07T19:32:48Z</time>
      </trkpt>
      <trkpt lat="48.88133" lon="2.42844">
        <ele>120.59999847412</ele>
        <time>2015-09-07T19:32:52Z</time>
      </trkpt>
      <trkpt lat="48.88122" lon="2.42818">
        <ele>116.40000152588</ele>
        <time>2015-09-07T19:32:56Z</time>
      </trkpt>
      <trkpt lat="48.8812" lon="2.42812">
        <ele>115.80000305176</ele>
        <time>2015-09-07T19:32:57Z</time>
      </trkpt>
      <trkpt lat="48.88116" lon="2.42779">
        <ele>115.40000152588</ele>
        <time>2015-09-07T19:33:01Z</time>
      </trkpt>
      <trkpt lat="48.88113" lon="2.42746">
        <ele>115.19999694824</ele>
        <time>2015-09-07T19:33:05Z</time>
      </trkpt>
      <trkpt lat="48.88107" lon="2.4271">
        <ele>115.40000152588</ele>
        <time>2015-09-07T19:33:09Z</time>
      </trkpt>
      <trkpt lat="48.88102" lon="2.42676">
        <ele>115</ele>
        <time>2015-09-07T19:33:13Z</time>
      </trkpt>
      <trkpt lat="48.88095" lon="2.42644">
        <ele>114.80000305176</ele>
        <time>2015-09-07T19:33:17Z</time>
      </trkpt>
      <trkpt lat="48.88085" lon="2.42614">
        <ele>115.40000152588</ele>
        <time>2015-09-07T19:33:21Z</time>
      </trkpt>
      <trkpt lat="48.88082" lon="2.42579">
        <ele>116.40000152588</ele>
        <time>2015-09-07T19:33:25Z</time>
      </trkpt>
      <trkpt lat="48.88087" lon="2.42548">
        <ele>115.40000152588</ele>
        <time>2015-09-07T19:33:28Z</time>
      </trkpt>
      <trkpt lat="48.88088" lon="2.42538">
        <ele>115.19999694824</ele>
        <time>2015-09-07T19:33:29Z</time>
      </trkpt>
      <trkpt lat="48.88089" lon="2.42503">
        <ele>114.59999847412</ele>
        <time>2015-09-07T19:33:33Z</time>
      </trkpt>
      <trkpt lat="48.88088" lon="2.42474">
        <ele>114.80000305176</ele>
        <time>2015-09-07T19:33:37Z</time>
      </trkpt>
      <trkpt lat="48.88081" lon="2.42447">
        <ele>114.80000305176</ele>
        <time>2015-09-07T19:33:42Z</time>
      </trkpt>
      <trkpt lat="48.88075" lon="2.42433">
        <ele>114.59999847412</ele>
        <time>2015-09-07T19:33:45Z</time>
      </trkpt>
      <trkpt lat="48.88072" lon="2.42408">
        <ele>114.80000305176</ele>
        <time>2015-09-07T19:33:50Z</time>
      </trkpt>
      <trkpt lat="48.88072" lon="2.42399">
        <ele>115</ele>
        <time>2015-09-07T19:33:52Z</time>
      </trkpt>
      <trkpt lat="48.88066" lon="2.42376">
        <ele>116</ele>
        <time>2015-09-07T19:33:57Z</time>
      </trkpt>
      <trkpt lat="48.88056" lon="2.42373">
        <ele>116.40000152588</ele>
        <time>2015-09-07T19:33:59Z</time>
      </trkpt>
      <trkpt lat="48.88034" lon="2.4236">
        <ele>118.40000152588</ele>
        <time>2015-09-07T19:34:04Z</time>
      </trkpt>
      <trkpt lat="48.88033" lon="2.42326">
        <ele>117.40000152588</ele>
        <time>2015-09-07T19:34:09Z</time>
      </trkpt>
      <trkpt lat="48.88036" lon="2.42294">
        <ele>119</ele>
        <time>2015-09-07T19:34:14Z</time>
      </trkpt>
      <trkpt lat="48.88034" lon="2.42278">
        <ele>119.19999694824</ele>
        <time>2015-09-07T19:34:17Z</time>
      </trkpt>
      <trkpt lat="48.88039" lon="2.42247">
        <ele>118.40000152588</ele>
        <time>2015-09-07T19:34:22Z</time>
      </trkpt>
      <trkpt lat="48.88034" lon="2.42234">
        <ele>118.80000305176</ele>
        <time>2015-09-07T19:34:25Z</time>
      </trkpt>
      <trkpt lat="48.88031" lon="2.4222">
        <ele>119.80000305176</ele>
        <time>2015-09-07T19:34:28Z</time>
      </trkpt>
      <trkpt lat="48.88047" lon="2.42185">
        <ele>116.19999694824</ele>
        <time>2015-09-07T19:34:43Z</time>
      </trkpt>
      <trkpt lat="48.88041" lon="2.42155">
        <ele>117.19999694824</ele>
        <time>2015-09-07T19:34:48Z</time>
      </trkpt>
      <trkpt lat="48.88036" lon="2.42124">
        <ele>118.59999847412</ele>
        <time>2015-09-07T19:34:53Z</time>
      </trkpt>
      <trkpt lat="48.8803" lon="2.42098">
        <ele>119.59999847412</ele>
        <time>2015-09-07T19:34:58Z</time>
      </trkpt>
      <trkpt lat="48.88022" lon="2.42067">
        <ele>119.80000305176</ele>
        <time>2015-09-07T19:35:03Z</time>
      </trkpt>
      <trkpt lat="48.88015" lon="2.42042">
        <ele>120.80000305176</ele>
        <time>2015-09-07T19:35:08Z</time>
      </trkpt>
      <trkpt lat="48.88008" lon="2.42008">
        <ele>125.59999847412</ele>
        <time>2015-09-07T19:35:15Z</time>
      </trkpt>
      <trkpt lat="48.88006" lon="2.41979">
        <ele>126.80000305176</ele>
        <time>2015-09-07T19:35:19Z</time>
      </trkpt>
      <trkpt lat="48.88006" lon="2.41949">
        <ele>125.40000152588</ele>
        <time>2015-09-07T19:35:23Z</time>
      </trkpt>
      <trkpt lat="48.88004" lon="2.41915">
        <ele>125</ele>
        <time>2015-09-07T19:35:28Z</time>
      </trkpt>
      <trkpt lat="48.87999" lon="2.41889">
        <ele>125.19999694824</ele>
        <time>2015-09-07T19:35:32Z</time>
      </trkpt>
      <trkpt lat="48.8799" lon="2.41862">
        <ele>125</ele>
        <time>2015-09-07T19:35:36Z</time>
      </trkpt>
      <trkpt lat="48.87989" lon="2.41842">
        <ele>124.59999847412</ele>
        <time>2015-09-07T19:35:39Z</time>
      </trkpt>
      <trkpt lat="48.87989" lon="2.41826">
        <ele>124.80000305176</ele>
        <time>2015-09-07T19:35:41Z</time>
      </trkpt>
      <trkpt lat="48.87986" lon="2.41795">
        <ele>123.80000305176</ele>
        <time>2015-09-07T19:35:46Z</time>
      </trkpt>
      <trkpt lat="48.87982" lon="2.41764">
        <ele>122.19999694824</ele>
        <time>2015-09-07T19:35:52Z</time>
      </trkpt>
      <trkpt lat="48.87976" lon="2.41734">
        <ele>120.40000152588</ele>
        <time>2015-09-07T19:35:58Z</time>
      </trkpt>
      <trkpt lat="48.87967" lon="2.41713">
        <ele>119.40000152588</ele>
        <time>2015-09-07T19:36:03Z</time>
      </trkpt>
      <trkpt lat="48.87966" lon="2.41689">
        <ele>119</ele>
        <time>2015-09-07T19:36:07Z</time>
      </trkpt>
      <trkpt lat="48.87962" lon="2.4166">
        <ele>117.19999694824</ele>
        <time>2015-09-07T19:36:13Z</time>
      </trkpt>
      <trkpt lat="48.87968" lon="2.41644">
        <ele>115.19999694824</ele>
        <time>2015-09-07T19:36:17Z</time>
      </trkpt>
      <trkpt lat="48.87968" lon="2.41642">
        <ele>114.19999694824</ele>
        <time>2015-09-07T19:36:19Z</time>
      </trkpt>
      <trkpt lat="48.87973" lon="2.41635">
        <ele>112.59999847412</ele>
        <time>2015-09-07T19:36:27Z</time>
      </trkpt>
      <trkpt lat="48.87983" lon="2.4163">
        <ele>128.80000305176</ele>
        <time>2015-09-07T19:37:19Z</time>
      </trkpt>
      <trkpt lat="48.87982" lon="2.41608">
        <ele>139</ele>
        <time>2015-09-07T19:37:56Z</time>
      </trkpt>
      <trkpt lat="48.87974" lon="2.41583">
        <ele>139.80000305176</ele>
        <time>2015-09-07T19:38:03Z</time>
      </trkpt>
      <trkpt lat="48.8797" lon="2.41554">
        <ele>140.19999694824</ele>
        <time>2015-09-07T19:38:09Z</time>
      </trkpt>
      <trkpt lat="48.87963" lon="2.41523">
        <ele>139.80000305176</ele>
        <time>2015-09-07T19:38:15Z</time>
      </trkpt>
      <trkpt lat="48.8796" lon="2.41512">
        <ele>139.60000610352</ele>
        <time>2015-09-07T19:38:17Z</time>
      </trkpt>
      <trkpt lat="48.87949" lon="2.41487">
        <ele>139.60000610352</ele>
        <time>2015-09-07T19:38:21Z</time>
      </trkpt>
      <trkpt lat="48.87941" lon="2.41458">
        <ele>139.60000610352</ele>
        <time>2015-09-07T19:38:26Z</time>
      </trkpt>
      <trkpt lat="48.87934" lon="2.4143">
        <ele>139.60000610352</ele>
        <time>2015-09-07T19:38:30Z</time>
      </trkpt>
      <trkpt lat="48.87926" lon="2.41402">
        <ele>139.60000610352</ele>
        <time>2015-09-07T19:38:34Z</time>
      </trkpt>
      <trkpt lat="48.87919" lon="2.41374">
        <ele>139.60000610352</ele>
        <time>2015-09-07T19:38:38Z</time>
      </trkpt>
      <trkpt lat="48.87912" lon="2.41342">
        <ele>139.60000610352</ele>
        <time>2015-09-07T19:38:42Z</time>
      </trkpt>
      <trkpt lat="48.87904" lon="2.41317">
        <ele>139.60000610352</ele>
        <time>2015-09-07T19:38:45Z</time>
      </trkpt>
      <trkpt lat="48.87895" lon="2.41292">
        <ele>139.39999389648</ele>
        <time>2015-09-07T19:38:48Z</time>
      </trkpt>
      <trkpt lat="48.87884" lon="2.41268">
        <ele>139.19999694824</ele>
        <time>2015-09-07T19:38:51Z</time>
      </trkpt>
      <trkpt lat="48.87881" lon="2.41248">
        <ele>138.80000305176</ele>
        <time>2015-09-07T19:38:53Z</time>
      </trkpt>
      <trkpt lat="48.87859" lon="2.41233">
        <ele>139</ele>
        <time>2015-09-07T19:38:56Z</time>
      </trkpt>
      <trkpt lat="48.8784" lon="2.41209">
        <ele>139.80000305176</ele>
        <time>2015-09-07T19:39:00Z</time>
      </trkpt>
      <trkpt lat="48.87825" lon="2.41183">
        <ele>139.39999389648</ele>
        <time>2015-09-07T19:39:04Z</time>
      </trkpt>
      <trkpt lat="48.87813" lon="2.41158">
        <ele>137.39999389648</ele>
        <time>2015-09-07T19:39:08Z</time>
      </trkpt>
      <trkpt lat="48.87805" lon="2.41131">
        <ele>135.39999389648</ele>
        <time>2015-09-07T19:39:12Z</time>
      </trkpt>
      <trkpt lat="48.87799" lon="2.411">
        <ele>135.19999694824</ele>
        <time>2015-09-07T19:39:16Z</time>
      </trkpt>
      <trkpt lat="48.87793" lon="2.41071">
        <ele>135.19999694824</ele>
        <time>2015-09-07T19:39:20Z</time>
      </trkpt>
      <trkpt lat="48.87791" lon="2.41041">
        <ele>135.19999694824</ele>
        <time>2015-09-07T19:39:24Z</time>
      </trkpt>
      <trkpt lat="48.87791" lon="2.41005">
        <ele>135.19999694824</ele>
        <time>2015-09-07T19:39:28Z</time>
      </trkpt>
      <trkpt lat="48.87794" lon="2.40974">
        <ele>134.80000305176</ele>
        <time>2015-09-07T19:39:31Z</time>
      </trkpt>
      <trkpt lat="48.87796" lon="2.40944">
        <ele>134.39999389648</ele>
        <time>2015-09-07T19:39:34Z</time>
      </trkpt>
      <trkpt lat="48.87792" lon="2.40909">
        <ele>134</ele>
        <time>2015-09-07T19:39:38Z</time>
      </trkpt>
      <trkpt lat="48.87782" lon="2.40877">
        <ele>133.60000610352</ele>
        <time>2015-09-07T19:39:42Z</time>
      </trkpt>
      <trkpt lat="48.87773" lon="2.40852">
        <ele>133.39999389648</ele>
        <time>2015-09-07T19:39:45Z</time>
      </trkpt>
      <trkpt lat="48.87771" lon="2.40819">
        <ele>131.39999389648</ele>
        <time>2015-09-07T19:39:49Z</time>
      </trkpt>
      <trkpt lat="48.87768" lon="2.40813">
        <ele>131</ele>
        <time>2015-09-07T19:39:50Z</time>
      </trkpt>
      <trkpt lat="48.87762" lon="2.40794">
        <ele>129.60000610352</ele>
        <time>2015-09-07T19:39:53Z</time>
      </trkpt>
      <trkpt lat="48.87756" lon="2.40767">
        <ele>128</ele>
        <time>2015-09-07T19:39:57Z</time>
      </trkpt>
      <trkpt lat="48.87756" lon="2.40761">
        <ele>127.40000152588</ele>
        <time>2015-09-07T19:39:58Z</time>
      </trkpt>
      <trkpt lat="48.87748" lon="2.40733">
        <ele>126.40000152588</ele>
        <time>2015-09-07T19:40:03Z</time>
      </trkpt>
      <trkpt lat="48.87739" lon="2.40708">
        <ele>125.40000152588</ele>
        <time>2015-09-07T19:40:08Z</time>
      </trkpt>
      <trkpt lat="48.87734" lon="2.40691">
        <ele>125.19999694824</ele>
        <time>2015-09-07T19:40:12Z</time>
      </trkpt>
      <trkpt lat="48.87732" lon="2.40678">
        <ele>136.60000610352</ele>
        <time>2015-09-07T19:41:11Z</time>
      </trkpt>
      <trkpt lat="48.87737" lon="2.40666">
        <ele>138</ele>
        <time>2015-09-07T19:42:01Z</time>
      </trkpt>
      <trkpt lat="48.87752" lon="2.4065">
        <ele>138.80000305176</ele>
        <time>2015-09-07T19:42:07Z</time>
      </trkpt>
      <trkpt lat="48.87768" lon="2.40628">
        <ele>139</ele>
        <time>2015-09-07T19:42:12Z</time>
      </trkpt>
      <trkpt lat="48.87779" lon="2.40602">
        <ele>139.39999389648</ele>
        <time>2015-09-07T19:42:16Z</time>
      </trkpt>
      <trkpt lat="48.87784" lon="2.40571">
        <ele>138.39999389648</ele>
        <time>2015-09-07T19:42:20Z</time>
      </trkpt>
      <trkpt lat="48.87789" lon="2.40538">
        <ele>137.80000305176</ele>
        <time>2015-09-07T19:42:24Z</time>
      </trkpt>
      <trkpt lat="48.87796" lon="2.40513">
        <ele>137.60000610352</ele>
        <time>2015-09-07T19:42:27Z</time>
      </trkpt>
      <trkpt lat="48.87803" lon="2.40479">
        <ele>137.39999389648</ele>
        <time>2015-09-07T19:42:31Z</time>
      </trkpt>
      <trkpt lat="48.87809" lon="2.40446">
        <ele>136.80000305176</ele>
        <time>2015-09-07T19:42:35Z</time>
      </trkpt>
      <trkpt lat="48.87818" lon="2.40413">
        <ele>135.60000610352</ele>
        <time>2015-09-07T19:42:39Z</time>
      </trkpt>
      <trkpt lat="48.87825" lon="2.40386">
        <ele>134.60000610352</ele>
        <time>2015-09-07T19:42:42Z</time>
      </trkpt>
      <trkpt lat="48.8783" lon="2.4036">
        <ele>133.80000305176</ele>
        <time>2015-09-07T19:42:45Z</time>
      </trkpt>
      <trkpt lat="48.87836" lon="2.40334">
        <ele>133</ele>
        <time>2015-09-07T19:42:48Z</time>
      </trkpt>
      <trkpt lat="48.87842" lon="2.40307">
        <ele>132</ele>
        <time>2015-09-07T19:42:51Z</time>
      </trkpt>
      <trkpt lat="48.87849" lon="2.40276">
        <ele>130.80000305176</ele>
        <time>2015-09-07T19:42:55Z</time>
      </trkpt>
      <trkpt lat="48.87857" lon="2.40247">
        <ele>129</ele>
        <time>2015-09-07T19:42:59Z</time>
      </trkpt>
      <trkpt lat="48.87865" lon="2.40225">
        <ele>128.19999694824</ele>
        <time>2015-09-07T19:43:02Z</time>
      </trkpt>
      <trkpt lat="48.87875" lon="2.40204">
        <ele>127.19999694824</ele>
        <time>2015-09-07T19:43:05Z</time>
      </trkpt>
      <trkpt lat="48.87889" lon="2.40184">
        <ele>126.80000305176</ele>
        <time>2015-09-07T19:43:09Z</time>
      </trkpt>
      <trkpt lat="48.87892" lon="2.40171">
        <ele>122</ele>
        <time>2015-09-07T19:43:11Z</time>
      </trkpt>
      <trkpt lat="48.87901" lon="2.40145">
        <ele>120</ele>
        <time>2015-09-07T19:43:16Z</time>
      </trkpt>
      <trkpt lat="48.87904" lon="2.4014">
        <ele>119.59999847412</ele>
        <time>2015-09-07T19:43:17Z</time>
      </trkpt>
      <trkpt lat="48.87921" lon="2.40118">
        <ele>118.40000152588</ele>
        <time>2015-09-07T19:43:22Z</time>
      </trkpt>
      <trkpt lat="48.8794" lon="2.40098">
        <ele>118</ele>
        <time>2015-09-07T19:43:26Z</time>
      </trkpt>
      <trkpt lat="48.87956" lon="2.40081">
        <ele>117.40000152588</ele>
        <time>2015-09-07T19:43:29Z</time>
      </trkpt>
      <trkpt lat="48.87974" lon="2.40066">
        <ele>116.80000305176</ele>
        <time>2015-09-07T19:43:32Z</time>
      </trkpt>
      <trkpt lat="48.87992" lon="2.40054">
        <ele>116</ele>
        <time>2015-09-07T19:43:35Z</time>
      </trkpt>
      <trkpt lat="48.88011" lon="2.40041">
        <ele>115.40000152588</ele>
        <time>2015-09-07T19:43:38Z</time>
      </trkpt>
      <trkpt lat="48.88028" lon="2.40029">
        <ele>115</ele>
        <time>2015-09-07T19:43:41Z</time>
      </trkpt>
      <trkpt lat="48.88047" lon="2.40017">
        <ele>114.40000152588</ele>
        <time>2015-09-07T19:43:44Z</time>
      </trkpt>
      <trkpt lat="48.88069" lon="2.40005">
        <ele>114</ele>
        <time>2015-09-07T19:43:47Z</time>
      </trkpt>
      <trkpt lat="48.88087" lon="2.39995">
        <ele>113.19999694824</ele>
        <time>2015-09-07T19:43:50Z</time>
      </trkpt>
      <trkpt lat="48.88094" lon="2.39993">
        <ele>113</ele>
        <time>2015-09-07T19:43:51Z</time>
      </trkpt>
      <trkpt lat="48.88113" lon="2.39996">
        <ele>112.19999694824</ele>
        <time>2015-09-07T19:43:54Z</time>
      </trkpt>
      <trkpt lat="48.8813" lon="2.40008">
        <ele>111.80000305176</ele>
        <time>2015-09-07T19:43:57Z</time>
      </trkpt>
      <trkpt lat="48.8814" lon="2.40019">
        <ele>111.40000152588</ele>
        <time>2015-09-07T19:43:59Z</time>
      </trkpt>
      <trkpt lat="48.88159" lon="2.40034">
        <ele>111.40000152588</ele>
        <time>2015-09-07T19:44:02Z</time>
      </trkpt>
      <trkpt lat="48.8818" lon="2.40046">
        <ele>111.59999847412</ele>
        <time>2015-09-07T19:44:05Z</time>
      </trkpt>
      <trkpt lat="48.88194" lon="2.40049">
        <ele>111.80000305176</ele>
        <time>2015-09-07T19:44:07Z</time>
      </trkpt>
      <trkpt lat="48.88215" lon="2.40044">
        <ele>111.80000305176</ele>
        <time>2015-09-07T19:44:10Z</time>
      </trkpt>
      <trkpt lat="48.88238" lon="2.40033">
        <ele>111</ele>
        <time>2015-09-07T19:44:13Z</time>
      </trkpt>
      <trkpt lat="48.88247" lon="2.40001">
        <ele>107.59999847412</ele>
        <time>2015-09-07T19:44:17Z</time>
      </trkpt>
      <trkpt lat="48.88252" lon="2.39967">
        <ele>104.40000152588</ele>
        <time>2015-09-07T19:44:20Z</time>
      </trkpt>
      <trkpt lat="48.88259" lon="2.39957">
        <ele>101.19999694824</ele>
        <time>2015-09-07T19:44:21Z</time>
      </trkpt>
      <trkpt lat="48.88261" lon="2.39948">
        <ele>99.800003051758</ele>
        <time>2015-09-07T19:44:22Z</time>
      </trkpt>
      <trkpt lat="48.88267" lon="2.39922">
        <ele>96</ele>
        <time>2015-09-07T19:44:25Z</time>
      </trkpt>
      <trkpt lat="48.88271" lon="2.39892">
        <ele>94.599998474121</ele>
        <time>2015-09-07T19:44:28Z</time>
      </trkpt>
      <trkpt lat="48.88275" lon="2.39861">
        <ele>94</ele>
        <time>2015-09-07T19:44:31Z</time>
      </trkpt>
      <trkpt lat="48.88279" lon="2.39828">
        <ele>93</ele>
        <time>2015-09-07T19:44:34Z</time>
      </trkpt>
      <trkpt lat="48.88287" lon="2.39795">
        <ele>92.199996948242</ele>
        <time>2015-09-07T19:44:37Z</time>
      </trkpt>
      <trkpt lat="48.88298" lon="2.39774">
        <ele>91.800003051758</ele>
        <time>2015-09-07T19:44:39Z</time>
      </trkpt>
      <trkpt lat="48.88313" lon="2.39754">
        <ele>91.199996948242</ele>
        <time>2015-09-07T19:44:41Z</time>
      </trkpt>
      <trkpt lat="48.8833" lon="2.3973">
        <ele>90.400001525879</ele>
        <time>2015-09-07T19:44:44Z</time>
      </trkpt>
      <trkpt lat="48.88347" lon="2.39709">
        <ele>90.199996948242</ele>
        <time>2015-09-07T19:44:47Z</time>
      </trkpt>
      <trkpt lat="48.88364" lon="2.39693">
        <ele>90.199996948242</ele>
        <time>2015-09-07T19:44:50Z</time>
      </trkpt>
      <trkpt lat="48.8837" lon="2.3969">
        <ele>90.199996948242</ele>
        <time>2015-09-07T19:44:51Z</time>
      </trkpt>
      <trkpt lat="48.88393" lon="2.39678">
        <ele>90</ele>
        <time>2015-09-07T19:44:55Z</time>
      </trkpt>
      <trkpt lat="48.88414" lon="2.39667">
        <ele>89.800003051758</ele>
        <time>2015-09-07T19:44:58Z</time>
      </trkpt>
      <trkpt lat="48.88435" lon="2.3966">
        <ele>89.400001525879</ele>
        <time>2015-09-07T19:45:01Z</time>
      </trkpt>
      <trkpt lat="48.88456" lon="2.39655">
        <ele>89.199996948242</ele>
        <time>2015-09-07T19:45:04Z</time>
      </trkpt>
      <trkpt lat="48.88477" lon="2.39648">
        <ele>88.599998474121</ele>
        <time>2015-09-07T19:45:07Z</time>
      </trkpt>
      <trkpt lat="48.88496" lon="2.39643">
        <ele>88.199996948242</ele>
        <time>2015-09-07T19:45:10Z</time>
      </trkpt>
      <trkpt lat="48.88515" lon="2.3964">
        <ele>87.400001525879</ele>
        <time>2015-09-07T19:45:13Z</time>
      </trkpt>
      <trkpt lat="48.88534" lon="2.39638">
        <ele>87.400001525879</ele>
        <time>2015-09-07T19:45:16Z</time>
      </trkpt>
      <trkpt lat="48.88553" lon="2.39635">
        <ele>88</ele>
        <time>2015-09-07T19:45:19Z</time>
      </trkpt>
      <trkpt lat="48.88571" lon="2.39632">
        <ele>89</ele>
        <time>2015-09-07T19:45:22Z</time>
      </trkpt>
      <trkpt lat="48.88591" lon="2.39627">
        <ele>89.800003051758</ele>
        <time>2015-09-07T19:45:26Z</time>
      </trkpt>
      <trkpt lat="48.88608" lon="2.39635">
        <ele>81</ele>
        <time>2015-09-07T19:45:32Z</time>
      </trkpt>
      <trkpt lat="48.88623" lon="2.39644">
        <ele>96.599998474121</ele>
        <time>2015-09-07T19:46:11Z</time>
      </trkpt>
      <trkpt lat="48.88637" lon="2.39628">
        <ele>97.199996948242</ele>
        <time>2015-09-07T19:46:20Z</time>
      </trkpt>
      <trkpt lat="48.8864" lon="2.39627">
        <ele>96.800003051758</ele>
        <time>2015-09-07T19:46:23Z</time>
      </trkpt>
      <trkpt lat="48.88638" lon="2.39631">
        <ele>96.800003051758</ele>
        <time>2015-09-07T19:46:27Z</time>
      </trkpt>
      <trkpt lat="48.88647" lon="2.39639">
        <ele>98.199996948242</ele>
        <time>2015-09-07T19:47:02Z</time>
      </trkpt>
      <trkpt lat="48.88665" lon="2.39642">
        <ele>100</ele>
        <time>2015-09-07T19:47:11Z</time>
      </trkpt>
      <trkpt lat="48.88686" lon="2.39641">
        <ele>102</ele>
        <time>2015-09-07T19:47:18Z</time>
      </trkpt>
      <trkpt lat="48.88703" lon="2.39631">
        <ele>106.40000152588</ele>
        <time>2015-09-07T19:47:26Z</time>
      </trkpt>
      <trkpt lat="48.88721" lon="2.39613">
        <ele>107.19999694824</ele>
        <time>2015-09-07T19:47:31Z</time>
      </trkpt>
      <trkpt lat="48.88742" lon="2.39603">
        <ele>106</ele>
        <time>2015-09-07T19:47:35Z</time>
      </trkpt>
      <trkpt lat="48.8876" lon="2.39597">
        <ele>104</ele>
        <time>2015-09-07T19:47:40Z</time>
      </trkpt>
      <trkpt lat="48.88773" lon="2.39587">
        <ele>103.80000305176</ele>
        <time>2015-09-07T19:47:44Z</time>
      </trkpt>
      <trkpt lat="48.88796" lon="2.39578">
        <ele>104.80000305176</ele>
        <time>2015-09-07T19:47:51Z</time>
      </trkpt>
      <trkpt lat="48.88815" lon="2.39567">
        <ele>105</ele>
        <time>2015-09-07T19:47:58Z</time>
      </trkpt>
      <trkpt lat="48.88822" lon="2.39568">
        <ele>104</ele>
        <time>2015-09-07T19:48:00Z</time>
      </trkpt>
      <trkpt lat="48.88846" lon="2.39567">
        <ele>94.800003051758</ele>
        <time>2015-09-07T19:48:04Z</time>
      </trkpt>
      <trkpt lat="48.88865" lon="2.39563">
        <ele>90.400001525879</ele>
        <time>2015-09-07T19:48:10Z</time>
      </trkpt>
      <trkpt lat="48.88885" lon="2.39555">
        <ele>88.400001525879</ele>
        <time>2015-09-07T19:48:15Z</time>
      </trkpt>
      <trkpt lat="48.88902" lon="2.39544">
        <ele>86.599998474121</ele>
        <time>2015-09-07T19:48:21Z</time>
      </trkpt>
      <trkpt lat="48.8892" lon="2.39533">
        <ele>82.400001525879</ele>
        <time>2015-09-07T19:48:29Z</time>
      </trkpt>
      <trkpt lat="48.88931" lon="2.39523">
        <ele>77.599998474121</ele>
        <time>2015-09-07T19:48:36Z</time>
      </trkpt>
      <trkpt lat="48.88933" lon="2.39509">
        <ele>73.599998474121</ele>
        <time>2015-09-07T19:48:40Z</time>
      </trkpt>
      <trkpt lat="48.8893" lon="2.39481">
        <ele>70.400001525879</ele>
        <time>2015-09-07T19:48:45Z</time>
      </trkpt>
      <trkpt lat="48.88927" lon="2.39447">
        <ele>67.599998474121</ele>
        <time>2015-09-07T19:48:50Z</time>
      </trkpt>
      <trkpt lat="48.8892" lon="2.3942">
        <ele>64</ele>
        <time>2015-09-07T19:48:54Z</time>
      </trkpt>
      <trkpt lat="48.88914" lon="2.3939">
        <ele>59.79999923706</ele>
        <time>2015-09-07T19:48:59Z</time>
      </trkpt>
      <trkpt lat="48.88909" lon="2.39363">
        <ele>57.599998474121</ele>
        <time>2015-09-07T19:49:03Z</time>
      </trkpt>
      <trkpt lat="48.88901" lon="2.39335">
        <ele>53.400001525879</ele>
        <time>2015-09-07T19:49:07Z</time>
      </trkpt>
      <trkpt lat="48.88893" lon="2.39307">
        <ele>49.20000076294</ele>
        <time>2015-09-07T19:49:13Z</time>
      </trkpt>
      <trkpt lat="48.88895" lon="2.39279">
        <ele>48</ele>
        <time>2015-09-07T19:49:21Z</time>
      </trkpt>
      <trkpt lat="48.88904" lon="2.39265">
        <ele>46.400001525879</ele>
        <time>2015-09-07T19:49:27Z</time>
      </trkpt>
      <trkpt lat="48.88912" lon="2.3925">
        <ele>45.599998474121</ele>
        <time>2015-09-07T19:49:32Z</time>
      </trkpt>
      <trkpt lat="48.88921" lon="2.39223">
        <ele>43.400001525879</ele>
        <time>2015-09-07T19:49:43Z</time>
      </trkpt>
      <trkpt lat="48.88926" lon="2.39199">
        <ele>42.400001525879</ele>
        <time>2015-09-07T19:49:50Z</time>
      </trkpt>
      <trkpt lat="48.88919" lon="2.39176">
        <ele>49.79999923706</ele>
        <time>2015-09-07T19:49:57Z</time>
      </trkpt>
      <trkpt lat="48.88918" lon="2.39173">
        <ele>51.20000076294</ele>
        <time>2015-09-07T19:49:59Z</time>
      </trkpt>
      <trkpt lat="48.88933" lon="2.39156">
        <ele>51.79999923706</ele>
        <time>2015-09-07T19:50:09Z</time>
      </trkpt>
      <trkpt lat="48.88939" lon="2.39136">
        <ele>51.20000076294</ele>
        <time>2015-09-07T19:50:20Z</time>
      </trkpt>
      <trkpt lat="48.88955" lon="2.39123">
        <ele>50.400001525879</ele>
        <time>2015-09-07T19:50:29Z</time>
      </trkpt>
      <trkpt lat="48.88965" lon="2.39115">
        <ele>50.20000076294</ele>
        <time>2015-09-07T19:50:32Z</time>
      </trkpt>
      <trkpt lat="48.88981" lon="2.39097">
        <ele>50.79999923706</ele>
        <time>2015-09-07T19:50:35Z</time>
      </trkpt>
      <trkpt lat="48.88998" lon="2.39081">
        <ele>50.599998474121</ele>
        <time>2015-09-07T19:50:38Z</time>
      </trkpt>
      <trkpt lat="48.8901" lon="2.3907">
        <ele>50.599998474121</ele>
        <time>2015-09-07T19:50:40Z</time>
      </trkpt>
      <trkpt lat="48.89026" lon="2.39051">
        <ele>51</ele>
        <time>2015-09-07T19:50:45Z</time>
      </trkpt>
      <trkpt lat="48.89042" lon="2.39034">
        <ele>51.20000076294</ele>
        <time>2015-09-07T19:50:50Z</time>
      </trkpt>
      <trkpt lat="48.89058" lon="2.39018">
        <ele>51.20000076294</ele>
        <time>2015-09-07T19:50:56Z</time>
      </trkpt>
      <trkpt lat="48.89072" lon="2.38998">
        <ele>51</ele>
        <time>2015-09-07T19:51:05Z</time>
      </trkpt>
      <trkpt lat="48.89094" lon="2.38975">
        <ele>51.599998474121</ele>
        <time>2015-09-07T19:51:15Z</time>
      </trkpt>
      <trkpt lat="48.89109" lon="2.38958">
        <ele>52.599998474121</ele>
        <time>2015-09-07T19:51:23Z</time>
      </trkpt>
      <trkpt lat="48.89125" lon="2.38945">
        <ele>52.599998474121</ele>
        <time>2015-09-07T19:51:27Z</time>
      </trkpt>
      <trkpt lat="48.89142" lon="2.38931">
        <ele>52.79999923706</ele>
        <time>2015-09-07T19:51:30Z</time>
      </trkpt>
      <trkpt lat="48.89152" lon="2.38906">
        <ele>53</ele>
        <time>2015-09-07T19:51:39Z</time>
      </trkpt>
      <trkpt lat="48.89166" lon="2.3889">
        <ele>53.400001525879</ele>
        <time>2015-09-07T19:51:45Z</time>
      </trkpt>
      <trkpt lat="48.89186" lon="2.38863">
        <ele>52.79999923706</ele>
        <time>2015-09-07T19:51:55Z</time>
      </trkpt>
      <trkpt lat="48.89203" lon="2.38852">
        <ele>52.599998474121</ele>
        <time>2015-09-07T19:51:58Z</time>
      </trkpt>
      <trkpt lat="48.89224" lon="2.38842">
        <ele>49.79999923706</ele>
        <time>2015-09-07T19:52:01Z</time>
      </trkpt>
      <trkpt lat="48.89229" lon="2.3884">
        <ele>49.20000076294</ele>
        <time>2015-09-07T19:52:03Z</time>
      </trkpt>
      <trkpt lat="48.89242" lon="2.38833">
        <ele>46.20000076294</ele>
        <time>2015-09-07T19:52:17Z</time>
      </trkpt>
      <trkpt lat="48.89248" lon="2.38825">
        <ele>48.20000076294</ele>
        <time>2015-09-07T19:52:21Z</time>
      </trkpt>
      <trkpt lat="48.89252" lon="2.38819">
        <ele>49.79999923706</ele>
        <time>2015-09-07T19:52:25Z</time>
      </trkpt>
      <trkpt lat="48.89254" lon="2.38816">
        <ele>51.400001525879</ele>
        <time>2015-09-07T19:52:30Z</time>
      </trkpt>
      <trkpt lat="48.89268" lon="2.38799">
        <ele>53.599998474121</ele>
        <time>2015-09-07T19:52:44Z</time>
      </trkpt>
      <trkpt lat="48.89285" lon="2.38788">
        <ele>54.400001525879</ele>
        <time>2015-09-07T19:53:08Z</time>
      </trkpt>
      <trkpt lat="48.89294" lon="2.38767">
        <ele>55.400001525879</ele>
        <time>2015-09-07T19:53:39Z</time>
      </trkpt>
      <trkpt lat="48.89308" lon="2.38748">
        <ele>56.599998474121</ele>
        <time>2015-09-07T19:53:52Z</time>
      </trkpt>
      <trkpt lat="48.89319" lon="2.38735">
        <ele>53.599998474121</ele>
        <time>2015-09-07T19:54:34Z</time>
      </trkpt>
      <trkpt lat="48.8931" lon="2.3874">
        <ele>54.599998474121</ele>
        <time>2015-09-07T19:54:53Z</time>
      </trkpt>
      <trkpt lat="48.89318" lon="2.38728">
        <ele>54.79999923706</ele>
        <time>2015-09-07T19:55:05Z</time>
      </trkpt>
      <trkpt lat="48.8933" lon="2.38718">
        <ele>53.400001525879</ele>
        <time>2015-09-07T19:55:38Z</time>
      </trkpt>
      <trkpt lat="48.89346" lon="2.38702">
        <ele>54</ele>
        <time>2015-09-07T19:55:48Z</time>
      </trkpt>
      <trkpt lat="48.89353" lon="2.38693">
        <ele>54.400001525879</ele>
        <time>2015-09-07T19:55:54Z</time>
      </trkpt>
      <trkpt lat="48.89372" lon="2.38677">
        <ele>55.20000076294</ele>
        <time>2015-09-07T19:56:02Z</time>
      </trkpt>
      <trkpt lat="48.89388" lon="2.38661">
        <ele>55.79999923706</ele>
        <time>2015-09-07T19:56:08Z</time>
      </trkpt>
      <trkpt lat="48.89403" lon="2.38642">
        <ele>56.400001525879</ele>
        <time>2015-09-07T19:56:16Z</time>
      </trkpt>
      <trkpt lat="48.89419" lon="2.38621">
        <ele>56.599998474121</ele>
        <time>2015-09-07T19:56:23Z</time>
      </trkpt>
      <trkpt lat="48.89439" lon="2.38604">
        <ele>56.20000076294</ele>
        <time>2015-09-07T19:56:28Z</time>
      </trkpt>
      <trkpt lat="48.89456" lon="2.38591">
        <ele>56.599998474121</ele>
        <time>2015-09-07T19:56:34Z</time>
      </trkpt>
      <trkpt lat="48.89472" lon="2.38578">
        <ele>56.20000076294</ele>
        <time>2015-09-07T19:56:42Z</time>
      </trkpt>
      <trkpt lat="48.89487" lon="2.3856">
        <ele>56</ele>
        <time>2015-09-07T19:56:50Z</time>
      </trkpt>
      <trkpt lat="48.89504" lon="2.38546">
        <ele>54.20000076294</ele>
        <time>2015-09-07T19:56:55Z</time>
      </trkpt>
      <trkpt lat="48.89519" lon="2.38528">
        <ele>50</ele>
        <time>2015-09-07T19:57:00Z</time>
      </trkpt>
      <trkpt lat="48.89534" lon="2.38508">
        <ele>48.599998474121</ele>
        <time>2015-09-07T19:57:06Z</time>
      </trkpt>
      <trkpt lat="48.89551" lon="2.38492">
        <ele>47.400001525879</ele>
        <time>2015-09-07T19:57:12Z</time>
      </trkpt>
      <trkpt lat="48.89568" lon="2.3848">
        <ele>44.599998474121</ele>
        <time>2015-09-07T19:57:17Z</time>
      </trkpt>
      <trkpt lat="48.89585" lon="2.38467">
        <ele>42.20000076294</ele>
        <time>2015-09-07T19:57:24Z</time>
      </trkpt>
      <trkpt lat="48.896" lon="2.38448">
        <ele>40</ele>
        <time>2015-09-07T19:57:31Z</time>
      </trkpt>
      <trkpt lat="48.89608" lon="2.38434">
        <ele>40.400001525879</ele>
        <time>2015-09-07T19:57:36Z</time>
      </trkpt>
      <trkpt lat="48.89606" lon="2.38414">
        <ele>42.400001525879</ele>
        <time>2015-09-07T19:58:02Z</time>
      </trkpt>
      <trkpt lat="48.89605" lon="2.38406">
        <ele>42.79999923706</ele>
        <time>2015-09-07T19:58:07Z</time>
      </trkpt>
      <trkpt lat="48.89601" lon="2.38377">
        <ele>44.400001525879</ele>
        <time>2015-09-07T19:58:15Z</time>
      </trkpt>
      <trkpt lat="48.89597" lon="2.38348">
        <ele>47.599998474121</ele>
        <time>2015-09-07T19:58:22Z</time>
      </trkpt>
      <trkpt lat="48.89594" lon="2.38321">
        <ele>52.20000076294</ele>
        <time>2015-09-07T19:58:28Z</time>
      </trkpt>
      <trkpt lat="48.89589" lon="2.38292">
        <ele>58.400001525879</ele>
        <time>2015-09-07T19:58:34Z</time>
      </trkpt>
      <trkpt lat="48.89588" lon="2.38263">
        <ele>64.599998474121</ele>
        <time>2015-09-07T19:58:39Z</time>
      </trkpt>
      <trkpt lat="48.89587" lon="2.3823">
        <ele>70.599998474121</ele>
        <time>2015-09-07T19:58:44Z</time>
      </trkpt>
      <trkpt lat="48.89582" lon="2.38201">
        <ele>77</ele>
        <time>2015-09-07T19:58:49Z</time>
      </trkpt>
      <trkpt lat="48.89579" lon="2.38169">
        <ele>87.400001525879</ele>
        <time>2015-09-07T19:58:55Z</time>
      </trkpt>
      <trkpt lat="48.89582" lon="2.38138">
        <ele>96.800003051758</ele>
        <time>2015-09-07T19:59:00Z</time>
      </trkpt>
      <trkpt lat="48.89582" lon="2.38108">
        <ele>100.59999847412</ele>
        <time>2015-09-07T19:59:04Z</time>
      </trkpt>
      <trkpt lat="48.89592" lon="2.38076">
        <ele>103.80000305176</ele>
        <time>2015-09-07T19:59:08Z</time>
      </trkpt>
      <trkpt lat="48.89602" lon="2.38048">
        <ele>106</ele>
        <time>2015-09-07T19:59:12Z</time>
      </trkpt>
      <trkpt lat="48.89601" lon="2.38043">
        <ele>106</ele>
        <time>2015-09-07T19:59:13Z</time>
      </trkpt>
      <trkpt lat="48.8959" lon="2.38017">
        <ele>108.80000305176</ele>
        <time>2015-09-07T19:59:18Z</time>
      </trkpt>
      <trkpt lat="48.89586" lon="2.38005">
        <ele>109</ele>
        <time>2015-09-07T19:59:20Z</time>
      </trkpt>
      <trkpt lat="48.89579" lon="2.37974">
        <ele>104.59999847412</ele>
        <time>2015-09-07T19:59:24Z</time>
      </trkpt>
      <trkpt lat="48.89572" lon="2.37947">
        <ele>100.80000305176</ele>
        <time>2015-09-07T19:59:28Z</time>
      </trkpt>
      <trkpt lat="48.8957" lon="2.37938">
        <ele>100.19999694824</ele>
        <time>2015-09-07T19:59:30Z</time>
      </trkpt>
      <trkpt lat="48.89586" lon="2.37915">
        <ele>97.599998474121</ele>
        <time>2015-09-07T19:59:35Z</time>
      </trkpt>
      <trkpt lat="48.89597" lon="2.37908">
        <ele>95.599998474121</ele>
        <time>2015-09-07T19:59:37Z</time>
      </trkpt>
      <trkpt lat="48.89602" lon="2.37906">
        <ele>94.400001525879</ele>
        <time>2015-09-07T19:59:38Z</time>
      </trkpt>
      <trkpt lat="48.8962" lon="2.379">
        <ele>90</ele>
        <time>2015-09-07T19:59:43Z</time>
      </trkpt>
      <trkpt lat="48.89631" lon="2.37879">
        <ele>87.599998474121</ele>
        <time>2015-09-07T19:59:48Z</time>
      </trkpt>
      <trkpt lat="48.89632" lon="2.37875">
        <ele>87</ele>
        <time>2015-09-07T19:59:49Z</time>
      </trkpt>
      <trkpt lat="48.89632" lon="2.37841">
        <ele>66.800003051758</ele>
        <time>2015-09-07T19:59:57Z</time>
      </trkpt>
      <trkpt lat="48.89638" lon="2.37814">
        <ele>61.79999923706</ele>
        <time>2015-09-07T20:00:04Z</time>
      </trkpt>
      <trkpt lat="48.89641" lon="2.37786">
        <ele>60.599998474121</ele>
        <time>2015-09-07T20:00:11Z</time>
      </trkpt>
      <trkpt lat="48.89642" lon="2.37773">
        <ele>58.20000076294</ele>
        <time>2015-09-07T20:00:14Z</time>
      </trkpt>
      <trkpt lat="48.89634" lon="2.37747">
        <ele>52.400001525879</ele>
        <time>2015-09-07T20:00:22Z</time>
      </trkpt>
      <trkpt lat="48.89632" lon="2.37738">
        <ele>51.400001525879</ele>
        <time>2015-09-07T20:00:25Z</time>
      </trkpt>
      <trkpt lat="48.8964" lon="2.37711">
        <ele>48.79999923706</ele>
        <time>2015-09-07T20:00:32Z</time>
      </trkpt>
      <trkpt lat="48.89648" lon="2.37691">
        <ele>46.79999923706</ele>
        <time>2015-09-07T20:00:37Z</time>
      </trkpt>
      <trkpt lat="48.89647" lon="2.37676">
        <ele>46.599998474121</ele>
        <time>2015-09-07T20:00:41Z</time>
      </trkpt>
      <trkpt lat="48.89637" lon="2.37646">
        <ele>42</ele>
        <time>2015-09-07T20:00:47Z</time>
      </trkpt>
      <trkpt lat="48.89627" lon="2.37624">
        <ele>38.400001525879</ele>
        <time>2015-09-07T20:00:56Z</time>
      </trkpt>
      <trkpt lat="48.89627" lon="2.37616">
        <ele>38.20000076294</ele>
        <time>2015-09-07T20:01:01Z</time>
      </trkpt>
      <trkpt lat="48.89633" lon="2.37611">
        <ele>36.79999923706</ele>
        <time>2015-09-07T20:01:08Z</time>
      </trkpt>
      <trkpt lat="48.89639" lon="2.37603">
        <ele>35.599998474121</ele>
        <time>2015-09-07T20:01:13Z</time>
      </trkpt>
      <trkpt lat="48.89637" lon="2.37591">
        <ele>35.400001525879</ele>
        <time>2015-09-07T20:01:17Z</time>
      </trkpt>
      <trkpt lat="48.89633" lon="2.37563">
        <ele>38</ele>
        <time>2015-09-07T20:01:24Z</time>
      </trkpt>
      <trkpt lat="48.89629" lon="2.37536">
        <ele>39.599998474121</ele>
        <time>2015-09-07T20:01:31Z</time>
      </trkpt>
      <trkpt lat="48.89625" lon="2.37505">
        <ele>40.20000076294</ele>
        <time>2015-09-07T20:01:38Z</time>
      </trkpt>
      <trkpt lat="48.89616" lon="2.37476">
        <ele>42.20000076294</ele>
        <time>2015-09-07T20:01:45Z</time>
      </trkpt>
      <trkpt lat="48.89608" lon="2.37451">
        <ele>41.20000076294</ele>
        <time>2015-09-07T20:01:52Z</time>
      </trkpt>
      <trkpt lat="48.89601" lon="2.37425">
        <ele>41.20000076294</ele>
        <time>2015-09-07T20:02:01Z</time>
      </trkpt>
      <trkpt lat="48.89595" lon="2.37407">
        <ele>42.400001525879</ele>
        <time>2015-09-07T20:02:08Z</time>
      </trkpt>
      <trkpt lat="48.89583" lon="2.37383">
        <ele>44.400001525879</ele>
        <time>2015-09-07T20:02:16Z</time>
      </trkpt>
      <trkpt lat="48.89565" lon="2.37373">
        <ele>46.20000076294</ele>
        <time>2015-09-07T20:02:22Z</time>
      </trkpt>
      <trkpt lat="48.8955" lon="2.37353">
        <ele>51</ele>
        <time>2015-09-07T20:02:29Z</time>
      </trkpt>
      <trkpt lat="48.89542" lon="2.37329">
        <ele>56.400001525879</ele>
        <time>2015-09-07T20:02:36Z</time>
      </trkpt>
      <trkpt lat="48.89544" lon="2.37307">
        <ele>60.20000076294</ele>
        <time>2015-09-07T20:02:41Z</time>
      </trkpt>
      <trkpt lat="48.89545" lon="2.37299">
        <ele>62.20000076294</ele>
        <time>2015-09-07T20:02:44Z</time>
      </trkpt>
      <trkpt lat="48.89554" lon="2.37291">
        <ele>65</ele>
        <time>2015-09-07T20:02:50Z</time>
      </trkpt>
      <trkpt lat="48.89556" lon="2.3729">
        <ele>65.400001525879</ele>
        <time>2015-09-07T20:02:51Z</time>
      </trkpt>
      <trkpt lat="48.8956" lon="2.37279">
        <ele>65.400001525879</ele>
        <time>2015-09-07T20:03:04Z</time>
      </trkpt>
      <trkpt lat="48.89549" lon="2.37251">
        <ele>67.400001525879</ele>
        <time>2015-09-07T20:03:12Z</time>
      </trkpt>
      <trkpt lat="48.89544" lon="2.37239">
        <ele>67.400001525879</ele>
        <time>2015-09-07T20:03:16Z</time>
      </trkpt>
      <trkpt lat="48.89531" lon="2.3722">
        <ele>66.800003051758</ele>
        <time>2015-09-07T20:03:28Z</time>
      </trkpt>
      <trkpt lat="48.89539" lon="2.37216">
        <ele>69</ele>
        <time>2015-09-07T20:03:37Z</time>
      </trkpt>
      <trkpt lat="48.89556" lon="2.37197">
        <ele>79.400001525879</ele>
        <time>2015-09-07T20:04:00Z</time>
      </trkpt>
      <trkpt lat="48.89544" lon="2.37177">
        <ele>74</ele>
        <time>2015-09-07T20:04:03Z</time>
      </trkpt>
      <trkpt lat="48.89524" lon="2.37159">
        <ele>67</ele>
        <time>2015-09-07T20:04:08Z</time>
      </trkpt>
      <trkpt lat="48.89509" lon="2.37143">
        <ele>61.400001525879</ele>
        <time>2015-09-07T20:04:14Z</time>
      </trkpt>
      <trkpt lat="48.89494" lon="2.37121">
        <ele>56.20000076294</ele>
        <time>2015-09-07T20:04:21Z</time>
      </trkpt>
      <trkpt lat="48.89478" lon="2.37101">
        <ele>53.79999923706</ele>
        <time>2015-09-07T20:04:27Z</time>
      </trkpt>
      <trkpt lat="48.89463" lon="2.37082">
        <ele>51.400001525879</ele>
        <time>2015-09-07T20:04:33Z</time>
      </trkpt>
      <trkpt lat="48.89452" lon="2.3706">
        <ele>49</ele>
        <time>2015-09-07T20:04:41Z</time>
      </trkpt>
      <trkpt lat="48.89439" lon="2.3704">
        <ele>48</ele>
        <time>2015-09-07T20:04:48Z</time>
      </trkpt>
      <trkpt lat="48.89421" lon="2.37027">
        <ele>47.400001525879</ele>
        <time>2015-09-07T20:04:55Z</time>
      </trkpt>
      <trkpt lat="48.89405" lon="2.3701">
        <ele>46</ele>
        <time>2015-09-07T20:05:01Z</time>
      </trkpt>
      <trkpt lat="48.89387" lon="2.37">
        <ele>45.20000076294</ele>
        <time>2015-09-07T20:05:06Z</time>
      </trkpt>
      <trkpt lat="48.89367" lon="2.36989">
        <ele>45.599998474121</ele>
        <time>2015-09-07T20:05:11Z</time>
      </trkpt>
      <trkpt lat="48.8935" lon="2.3698">
        <ele>45.400001525879</ele>
        <time>2015-09-07T20:05:16Z</time>
      </trkpt>
      <trkpt lat="48.8933" lon="2.36972">
        <ele>45.79999923706</ele>
        <time>2015-09-07T20:05:21Z</time>
      </trkpt>
      <trkpt lat="48.89309" lon="2.36965">
        <ele>46.79999923706</ele>
        <time>2015-09-07T20:05:26Z</time>
      </trkpt>
      <trkpt lat="48.89287" lon="2.36959">
        <ele>49.400001525879</ele>
        <time>2015-09-07T20:05:33Z</time>
      </trkpt>
      <trkpt lat="48.89268" lon="2.36951">
        <ele>51.79999923706</ele>
        <time>2015-09-07T20:05:39Z</time>
      </trkpt>
      <trkpt lat="48.89251" lon="2.36943">
        <ele>54.599998474121</ele>
        <time>2015-09-07T20:05:44Z</time>
      </trkpt>
      <trkpt lat="48.89229" lon="2.36936">
        <ele>57.400001525879</ele>
        <time>2015-09-07T20:05:49Z</time>
      </trkpt>
      <trkpt lat="48.8921" lon="2.36931">
        <ele>60</ele>
        <time>2015-09-07T20:05:53Z</time>
      </trkpt>
      <trkpt lat="48.89194" lon="2.36919">
        <ele>64.800003051758</ele>
        <time>2015-09-07T20:05:59Z</time>
      </trkpt>
      <trkpt lat="48.89175" lon="2.36912">
        <ele>68.599998474121</ele>
        <time>2015-09-07T20:06:04Z</time>
      </trkpt>
      <trkpt lat="48.89152" lon="2.36906">
        <ele>70.599998474121</ele>
        <time>2015-09-07T20:06:07Z</time>
      </trkpt>
      <trkpt lat="48.8913" lon="2.36898">
        <ele>72</ele>
        <time>2015-09-07T20:06:10Z</time>
      </trkpt>
      <trkpt lat="48.89113" lon="2.36888">
        <ele>73.199996948242</ele>
        <time>2015-09-07T20:06:13Z</time>
      </trkpt>
      <trkpt lat="48.89091" lon="2.36876">
        <ele>75</ele>
        <time>2015-09-07T20:06:17Z</time>
      </trkpt>
      <trkpt lat="48.89073" lon="2.36865">
        <ele>76</ele>
        <time>2015-09-07T20:06:20Z</time>
      </trkpt>
      <trkpt lat="48.89054" lon="2.36855">
        <ele>77.400001525879</ele>
        <time>2015-09-07T20:06:23Z</time>
      </trkpt>
      <trkpt lat="48.89032" lon="2.36842">
        <ele>79.199996948242</ele>
        <time>2015-09-07T20:06:27Z</time>
      </trkpt>
      <trkpt lat="48.89013" lon="2.36832">
        <ele>80.800003051758</ele>
        <time>2015-09-07T20:06:31Z</time>
      </trkpt>
      <trkpt lat="48.89011" lon="2.36827">
        <ele>82.199996948242</ele>
        <time>2015-09-07T20:06:32Z</time>
      </trkpt>
      <trkpt lat="48.89001" lon="2.36826">
        <ele>81.199996948242</ele>
        <time>2015-09-07T20:06:34Z</time>
      </trkpt>
      <trkpt lat="48.8899" lon="2.36818">
        <ele>80.599998474121</ele>
        <time>2015-09-07T20:06:37Z</time>
      </trkpt>
      <trkpt lat="48.88977" lon="2.36807">
        <ele>78.599998474121</ele>
        <time>2015-09-07T20:06:39Z</time>
      </trkpt>
      <trkpt lat="48.88971" lon="2.36802">
        <ele>74.599998474121</ele>
        <time>2015-09-07T20:06:43Z</time>
      </trkpt>
      <trkpt lat="48.8897" lon="2.36802">
        <ele>73.800003051758</ele>
        <time>2015-09-07T20:06:44Z</time>
      </trkpt>
      <trkpt lat="48.88966" lon="2.36804">
        <ele>64</ele>
        <time>2015-09-07T20:06:56Z</time>
      </trkpt>
      <trkpt lat="48.88946" lon="2.36792">
        <ele>63.79999923706</ele>
        <time>2015-09-07T20:07:02Z</time>
      </trkpt>
      <trkpt lat="48.88937" lon="2.36788">
        <ele>64.400001525879</ele>
        <time>2015-09-07T20:07:04Z</time>
      </trkpt>
      <trkpt lat="48.88918" lon="2.36778">
        <ele>65.800003051758</ele>
        <time>2015-09-07T20:07:08Z</time>
      </trkpt>
      <trkpt lat="48.88895" lon="2.36772">
        <ele>65.400001525879</ele>
        <time>2015-09-07T20:07:12Z</time>
      </trkpt>
      <trkpt lat="48.88889" lon="2.36769">
        <ele>65.599998474121</ele>
        <time>2015-09-07T20:07:13Z</time>
      </trkpt>
      <trkpt lat="48.88877" lon="2.36764">
        <ele>65.800003051758</ele>
        <time>2015-09-07T20:07:15Z</time>
      </trkpt>
      <trkpt lat="48.88858" lon="2.36757">
        <ele>65.400001525879</ele>
        <time>2015-09-07T20:07:18Z</time>
      </trkpt>
      <trkpt lat="48.88839" lon="2.36749">
        <ele>64.599998474121</ele>
        <time>2015-09-07T20:07:21Z</time>
      </trkpt>
      <trkpt lat="48.88817" lon="2.3674">
        <ele>64.599998474121</ele>
        <time>2015-09-07T20:07:25Z</time>
      </trkpt>
      <trkpt lat="48.88806" lon="2.36737">
        <ele>64.800003051758</ele>
        <time>2015-09-07T20:07:27Z</time>
      </trkpt>
      <trkpt lat="48.88785" lon="2.36728">
        <ele>66</ele>
        <time>2015-09-07T20:07:31Z</time>
      </trkpt>
      <trkpt lat="48.88776" lon="2.36724">
        <ele>66.400001525879</ele>
        <time>2015-09-07T20:07:33Z</time>
      </trkpt>
      <trkpt lat="48.88754" lon="2.36716">
        <ele>67.800003051758</ele>
        <time>2015-09-07T20:07:37Z</time>
      </trkpt>
      <trkpt lat="48.88735" lon="2.36708">
        <ele>70.599998474121</ele>
        <time>2015-09-07T20:07:41Z</time>
      </trkpt>
      <trkpt lat="48.88717" lon="2.36701">
        <ele>71.800003051758</ele>
        <time>2015-09-07T20:07:44Z</time>
      </trkpt>
      <trkpt lat="48.88711" lon="2.36698">
        <ele>72</ele>
        <time>2015-09-07T20:07:45Z</time>
      </trkpt>
      <trkpt lat="48.88692" lon="2.36688">
        <ele>72.199996948242</ele>
        <time>2015-09-07T20:07:48Z</time>
      </trkpt>
      <trkpt lat="48.88686" lon="2.36685">
        <ele>72.599998474121</ele>
        <time>2015-09-07T20:07:49Z</time>
      </trkpt>
      <trkpt lat="48.88668" lon="2.36674">
        <ele>73.400001525879</ele>
        <time>2015-09-07T20:07:52Z</time>
      </trkpt>
      <trkpt lat="48.88651" lon="2.36663">
        <ele>73.599998474121</ele>
        <time>2015-09-07T20:07:55Z</time>
      </trkpt>
      <trkpt lat="48.88645" lon="2.36659">
        <ele>74.199996948242</ele>
        <time>2015-09-07T20:07:56Z</time>
      </trkpt>
      <trkpt lat="48.88629" lon="2.36643">
        <ele>77.199996948242</ele>
        <time>2015-09-07T20:08:00Z</time>
      </trkpt>
      <trkpt lat="48.88611" lon="2.36623">
        <ele>79</ele>
        <time>2015-09-07T20:08:04Z</time>
      </trkpt>
      <trkpt lat="48.88596" lon="2.36608">
        <ele>80.400001525879</ele>
        <time>2015-09-07T20:08:07Z</time>
      </trkpt>
      <trkpt lat="48.88577" lon="2.36592">
        <ele>78.400001525879</ele>
        <time>2015-09-07T20:08:10Z</time>
      </trkpt>
      <trkpt lat="48.88559" lon="2.36581">
        <ele>77.199996948242</ele>
        <time>2015-09-07T20:08:13Z</time>
      </trkpt>
      <trkpt lat="48.88539" lon="2.3657">
        <ele>76</ele>
        <time>2015-09-07T20:08:16Z</time>
      </trkpt>
      <trkpt lat="48.88519" lon="2.36554">
        <ele>75.599998474121</ele>
        <time>2015-09-07T20:08:20Z</time>
      </trkpt>
      <trkpt lat="48.88499" lon="2.36538">
        <ele>75.199996948242</ele>
        <time>2015-09-07T20:08:25Z</time>
      </trkpt>
      <trkpt lat="48.88482" lon="2.36528">
        <ele>75.400001525879</ele>
        <time>2015-09-07T20:08:29Z</time>
      </trkpt>
      <trkpt lat="48.88476" lon="2.36522">
        <ele>75.800003051758</ele>
        <time>2015-09-07T20:08:31Z</time>
      </trkpt>
      <trkpt lat="48.88463" lon="2.3651">
        <ele>76.400001525879</ele>
        <time>2015-09-07T20:08:35Z</time>
      </trkpt>
      <trkpt lat="48.88458" lon="2.36504">
        <ele>76.599998474121</ele>
        <time>2015-09-07T20:08:37Z</time>
      </trkpt>
      <trkpt lat="48.88447" lon="2.36495">
        <ele>77</ele>
        <time>2015-09-07T20:08:41Z</time>
      </trkpt>
      <trkpt lat="48.88444" lon="2.36493">
        <ele>77</ele>
        <time>2015-09-07T20:08:42Z</time>
      </trkpt>
      <trkpt lat="48.8844" lon="2.36485">
        <ele>77.599998474121</ele>
        <time>2015-09-07T20:08:46Z</time>
      </trkpt>
      <trkpt lat="48.8844" lon="2.36482">
        <ele>77.599998474121</ele>
        <time>2015-09-07T20:08:48Z</time>
      </trkpt>
      <trkpt lat="48.88437" lon="2.3648">
        <ele>76.800003051758</ele>
        <time>2015-09-07T20:08:52Z</time>
      </trkpt>
      <trkpt lat="48.88422" lon="2.36463">
        <ele>77</ele>
        <time>2015-09-07T20:08:59Z</time>
      </trkpt>
      <trkpt lat="48.88402" lon="2.3645">
        <ele>77.599998474121</ele>
        <time>2015-09-07T20:09:05Z</time>
      </trkpt>
      <trkpt lat="48.88383" lon="2.36443">
        <ele>78.599998474121</ele>
        <time>2015-09-07T20:09:10Z</time>
      </trkpt>
      <trkpt lat="48.88362" lon="2.36436">
        <ele>80</ele>
        <time>2015-09-07T20:09:15Z</time>
      </trkpt>
      <trkpt lat="48.88343" lon="2.36426">
        <ele>80.800003051758</ele>
        <time>2015-09-07T20:09:19Z</time>
      </trkpt>
      <trkpt lat="48.88327" lon="2.36415">
        <ele>81.400001525879</ele>
        <time>2015-09-07T20:09:23Z</time>
      </trkpt>
      <trkpt lat="48.88309" lon="2.36401">
        <ele>81.800003051758</ele>
        <time>2015-09-07T20:09:27Z</time>
      </trkpt>
      <trkpt lat="48.88289" lon="2.36388">
        <ele>81.599998474121</ele>
        <time>2015-09-07T20:09:31Z</time>
      </trkpt>
      <trkpt lat="48.88271" lon="2.36378">
        <ele>81.400001525879</ele>
        <time>2015-09-07T20:09:35Z</time>
      </trkpt>
      <trkpt lat="48.88264" lon="2.36372">
        <ele>81.599998474121</ele>
        <time>2015-09-07T20:09:37Z</time>
      </trkpt>
      <trkpt lat="48.88244" lon="2.36359">
        <ele>82.400001525879</ele>
        <time>2015-09-07T20:09:42Z</time>
      </trkpt>
      <trkpt lat="48.8824" lon="2.36357">
        <ele>83</ele>
        <time>2015-09-07T20:09:43Z</time>
      </trkpt>
      <trkpt lat="48.88229" lon="2.3635">
        <ele>83.599998474121</ele>
        <time>2015-09-07T20:09:46Z</time>
      </trkpt>
      <trkpt lat="48.88217" lon="2.36333">
        <ele>81.599998474121</ele>
        <time>2015-09-07T20:09:52Z</time>
      </trkpt>
      <trkpt lat="48.88204" lon="2.36317">
        <ele>80.400001525879</ele>
        <time>2015-09-07T20:09:56Z</time>
      </trkpt>
      <trkpt lat="48.88189" lon="2.36301">
        <ele>81.199996948242</ele>
        <time>2015-09-07T20:10:00Z</time>
      </trkpt>
      <trkpt lat="48.88173" lon="2.36286">
        <ele>82.800003051758</ele>
        <time>2015-09-07T20:10:04Z</time>
      </trkpt>
      <trkpt lat="48.88165" lon="2.3627">
        <ele>82.599998474121</ele>
        <time>2015-09-07T20:10:07Z</time>
      </trkpt>
      <trkpt lat="48.88154" lon="2.36246">
        <ele>82.599998474121</ele>
        <time>2015-09-07T20:10:11Z</time>
      </trkpt>
      <trkpt lat="48.88146" lon="2.36222">
        <ele>79.800003051758</ele>
        <time>2015-09-07T20:10:14Z</time>
      </trkpt>
      <trkpt lat="48.88131" lon="2.36198">
        <ele>77.800003051758</ele>
        <time>2015-09-07T20:10:18Z</time>
      </trkpt>
      <trkpt lat="48.88116" lon="2.36173">
        <ele>77.400001525879</ele>
        <time>2015-09-07T20:10:22Z</time>
      </trkpt>
      <trkpt lat="48.88115" lon="2.36166">
        <ele>78</ele>
        <time>2015-09-07T20:10:23Z</time>
      </trkpt>
      <trkpt lat="48.88108" lon="2.36138">
        <ele>79.599998474121</ele>
        <time>2015-09-07T20:10:27Z</time>
      </trkpt>
      <trkpt lat="48.88096" lon="2.36112">
        <ele>80.599998474121</ele>
        <time>2015-09-07T20:10:31Z</time>
      </trkpt>
      <trkpt lat="48.88082" lon="2.36087">
        <ele>82</ele>
        <time>2015-09-07T20:10:35Z</time>
      </trkpt>
      <trkpt lat="48.88079" lon="2.3608">
        <ele>82.400001525879</ele>
        <time>2015-09-07T20:10:36Z</time>
      </trkpt>
      <trkpt lat="48.88068" lon="2.36056">
        <ele>84</ele>
        <time>2015-09-07T20:10:40Z</time>
      </trkpt>
      <trkpt lat="48.88057" lon="2.36029">
        <ele>85</ele>
        <time>2015-09-07T20:10:44Z</time>
      </trkpt>
      <trkpt lat="48.88045" lon="2.36004">
        <ele>85.400001525879</ele>
        <time>2015-09-07T20:10:48Z</time>
      </trkpt>
      <trkpt lat="48.88028" lon="2.35982">
        <ele>86.599998474121</ele>
        <time>2015-09-07T20:10:52Z</time>
      </trkpt>
      <trkpt lat="48.88012" lon="2.35959">
        <ele>88</ele>
        <time>2015-09-07T20:10:56Z</time>
      </trkpt>
      <trkpt lat="48.87992" lon="2.35939">
        <ele>85.800003051758</ele>
        <time>2015-09-07T20:10:59Z</time>
      </trkpt>
      <trkpt lat="48.87976" lon="2.35921">
        <ele>83.800003051758</ele>
        <time>2015-09-07T20:11:02Z</time>
      </trkpt>
      <trkpt lat="48.87961" lon="2.35898">
        <ele>80</ele>
        <time>2015-09-07T20:11:05Z</time>
      </trkpt>
      <trkpt lat="48.87957" lon="2.35863">
        <ele>79.599998474121</ele>
        <time>2015-09-07T20:11:11Z</time>
      </trkpt>
      <trkpt lat="48.87956" lon="2.35859">
        <ele>79.599998474121</ele>
        <time>2015-09-07T20:11:12Z</time>
      </trkpt>
      <trkpt lat="48.87955" lon="2.35845">
        <ele>80</ele>
        <time>2015-09-07T20:11:16Z</time>
      </trkpt>
      <trkpt lat="48.87961" lon="2.3587">
        <ele>79.599998474121</ele>
        <time>2015-09-07T20:11:29Z</time>
      </trkpt>
      <trkpt lat="48.87962" lon="2.3588">
        <ele>79.800003051758</ele>
        <time>2015-09-07T20:11:32Z</time>
      </trkpt>
      <trkpt lat="48.87945" lon="2.35875">
        <ele>80.199996948242</ele>
        <time>2015-09-07T20:11:41Z</time>
      </trkpt>
      <trkpt lat="48.87926" lon="2.35873">
        <ele>79.800003051758</ele>
        <time>2015-09-07T20:11:45Z</time>
      </trkpt>
      <trkpt lat="48.8792" lon="2.35873">
        <ele>79.599998474121</ele>
        <time>2015-09-07T20:11:46Z</time>
      </trkpt>
      <trkpt lat="48.87899" lon="2.35871">
        <ele>79.199996948242</ele>
        <time>2015-09-07T20:11:50Z</time>
      </trkpt>
      <trkpt lat="48.87879" lon="2.35867">
        <ele>78.599998474121</ele>
        <time>2015-09-07T20:11:54Z</time>
      </trkpt>
      <trkpt lat="48.87861" lon="2.35863">
        <ele>78.199996948242</ele>
        <time>2015-09-07T20:11:58Z</time>
      </trkpt>
      <trkpt lat="48.87842" lon="2.35858">
        <ele>78</ele>
        <time>2015-09-07T20:12:03Z</time>
      </trkpt>
      <trkpt lat="48.87838" lon="2.35858">
        <ele>78</ele>
        <time>2015-09-07T20:12:04Z</time>
      </trkpt>
      <trkpt lat="48.87818" lon="2.35851">
        <ele>78</ele>
        <time>2015-09-07T20:12:10Z</time>
      </trkpt>
      <trkpt lat="48.87801" lon="2.35839">
        <ele>78</ele>
        <time>2015-09-07T20:12:17Z</time>
      </trkpt>
      <trkpt lat="48.87796" lon="2.35838">
        <ele>78.199996948242</ele>
        <time>2015-09-07T20:12:22Z</time>
      </trkpt>
      <trkpt lat="48.87785" lon="2.35842">
        <ele>78.800003051758</ele>
        <time>2015-09-07T20:12:51Z</time>
      </trkpt>
      <trkpt lat="48.87777" lon="2.35848">
        <ele>79.199996948242</ele>
        <time>2015-09-07T20:12:58Z</time>
      </trkpt>
      <trkpt lat="48.87775" lon="2.35848">
        <ele>79.400001525879</ele>
        <time>2015-09-07T20:13:00Z</time>
      </trkpt>
      <trkpt lat="48.8777" lon="2.35849">
        <ele>79.800003051758</ele>
        <time>2015-09-07T20:13:06Z</time>
      </trkpt>
      <trkpt lat="48.87772" lon="2.35841">
        <ele>79.800003051758</ele>
        <time>2015-09-07T20:13:14Z</time>
      </trkpt>
      <trkpt lat="48.87753" lon="2.35829">
        <ele>79.599998474121</ele>
        <time>2015-09-07T20:13:22Z</time>
      </trkpt>
      <trkpt lat="48.87749" lon="2.35822">
        <ele>79.599998474121</ele>
        <time>2015-09-07T20:13:27Z</time>
      </trkpt>
      <trkpt lat="48.87757" lon="2.35813">
        <ele>79.800003051758</ele>
        <time>2015-09-07T20:13:39Z</time>
      </trkpt>
      <trkpt lat="48.87743" lon="2.35799">
        <ele>80</ele>
        <time>2015-09-07T20:13:53Z</time>
      </trkpt>
      <trkpt lat="48.87726" lon="2.35789">
        <ele>79.400001525879</ele>
        <time>2015-09-07T20:13:58Z</time>
      </trkpt>
      <trkpt lat="48.87704" lon="2.35779">
        <ele>79.800003051758</ele>
        <time>2015-09-07T20:14:04Z</time>
      </trkpt>
      <trkpt lat="48.87686" lon="2.35775">
        <ele>79.800003051758</ele>
        <time>2015-09-07T20:14:08Z</time>
      </trkpt>
      <trkpt lat="48.87667" lon="2.35775">
        <ele>79.199996948242</ele>
        <time>2015-09-07T20:14:12Z</time>
      </trkpt>
      <trkpt lat="48.87649" lon="2.35769">
        <ele>78.599998474121</ele>
        <time>2015-09-07T20:14:17Z</time>
      </trkpt>
      <trkpt lat="48.87644" lon="2.35743">
        <ele>76.199996948242</ele>
        <time>2015-09-07T20:14:22Z</time>
      </trkpt>
      <trkpt lat="48.87647" lon="2.35715">
        <ele>74.800003051758</ele>
        <time>2015-09-07T20:14:27Z</time>
      </trkpt>
      <trkpt lat="48.87648" lon="2.35684">
        <ele>74.199996948242</ele>
        <time>2015-09-07T20:14:33Z</time>
      </trkpt>
      <trkpt lat="48.87649" lon="2.35656">
        <ele>72.599998474121</ele>
        <time>2015-09-07T20:14:39Z</time>
      </trkpt>
      <trkpt lat="48.87651" lon="2.35626">
        <ele>65.400001525879</ele>
        <time>2015-09-07T20:14:46Z</time>
      </trkpt>
      <trkpt lat="48.87654" lon="2.35602">
        <ele>59.20000076294</ele>
        <time>2015-09-07T20:15:00Z</time>
      </trkpt>
      <trkpt lat="48.87665" lon="2.356">
        <ele>62.599998474121</ele>
        <time>2015-09-07T20:15:22Z</time>
      </trkpt>
      <trkpt lat="48.87663" lon="2.35599">
        <ele>61.599998474121</ele>
        <time>2015-09-07T20:15:29Z</time>
      </trkpt>
      <trkpt lat="48.87643" lon="2.35597">
        <ele>59.400001525879</ele>
        <time>2015-09-07T20:15:38Z</time>
      </trkpt>
      <trkpt lat="48.87628" lon="2.35597">
        <ele>58.79999923706</ele>
        <time>2015-09-07T20:15:43Z</time>
      </trkpt>
      <trkpt lat="48.87622" lon="2.3558">
        <ele>58.599998474121</ele>
        <time>2015-09-07T20:15:50Z</time>
      </trkpt>
      <trkpt lat="48.87631" lon="2.35556">
        <ele>58.79999923706</ele>
        <time>2015-09-07T20:15:58Z</time>
      </trkpt>
      <trkpt lat="48.87639" lon="2.35531">
        <ele>58.79999923706</ele>
        <time>2015-09-07T20:16:08Z</time>
      </trkpt>
      <trkpt lat="48.8763" lon="2.35499">
        <ele>60.599998474121</ele>
        <time>2015-09-07T20:16:15Z</time>
      </trkpt>
      <trkpt lat="48.87621" lon="2.35482">
        <ele>60.599998474121</ele>
        <time>2015-09-07T20:16:20Z</time>
      </trkpt>
      <trkpt lat="48.87628" lon="2.35464">
        <ele>64.199996948242</ele>
        <time>2015-09-07T20:16:37Z</time>
      </trkpt>
      <trkpt lat="48.87631" lon="2.35434">
        <ele>64.800003051758</ele>
        <time>2015-09-07T20:16:44Z</time>
      </trkpt>
      <trkpt lat="48.87636" lon="2.35404">
        <ele>64</ele>
        <time>2015-09-07T20:16:50Z</time>
      </trkpt>
      <trkpt lat="48.87636" lon="2.35401">
        <ele>63.79999923706</ele>
        <time>2015-09-07T20:16:52Z</time>
      </trkpt>
      <trkpt lat="48.87659" lon="2.35414">
        <ele>64.400001525879</ele>
        <time>2015-09-07T20:17:08Z</time>
      </trkpt>
      <trkpt lat="48.87681" lon="2.35398">
        <ele>63.400001525879</ele>
        <time>2015-09-07T20:17:09Z</time>
      </trkpt>
      <trkpt lat="48.87684" lon="2.35385">
        <ele>61.79999923706</ele>
        <time>2015-09-07T20:17:13Z</time>
      </trkpt>
      <trkpt lat="48.87688" lon="2.35356">
        <ele>60.20000076294</ele>
        <time>2015-09-07T20:17:18Z</time>
      </trkpt>
      <trkpt lat="48.87692" lon="2.35325">
        <ele>59.599998474121</ele>
        <time>2015-09-07T20:17:23Z</time>
      </trkpt>
      <trkpt lat="48.87692" lon="2.35292">
        <ele>58.79999923706</ele>
        <time>2015-09-07T20:17:28Z</time>
      </trkpt>
      <trkpt lat="48.87695" lon="2.35263">
        <ele>58.400001525879</ele>
        <time>2015-09-07T20:17:32Z</time>
      </trkpt>
      <trkpt lat="48.87701" lon="2.35232">
        <ele>57.20000076294</ele>
        <time>2015-09-07T20:17:37Z</time>
      </trkpt>
      <trkpt lat="48.87706" lon="2.35203">
        <ele>56</ele>
        <time>2015-09-07T20:17:42Z</time>
      </trkpt>
      <trkpt lat="48.8771" lon="2.35172">
        <ele>55.79999923706</ele>
        <time>2015-09-07T20:17:48Z</time>
      </trkpt>
      <trkpt lat="48.8771" lon="2.35141">
        <ele>56.400001525879</ele>
        <time>2015-09-07T20:17:55Z</time>
      </trkpt>
      <trkpt lat="48.87717" lon="2.35114">
        <ele>55</ele>
        <time>2015-09-07T20:18:01Z</time>
      </trkpt>
      <trkpt lat="48.87725" lon="2.35088">
        <ele>54.20000076294</ele>
        <time>2015-09-07T20:18:07Z</time>
      </trkpt>
      <trkpt lat="48.87731" lon="2.3506">
        <ele>53.599998474121</ele>
        <time>2015-09-07T20:18:12Z</time>
      </trkpt>
      <trkpt lat="48.87736" lon="2.35031">
        <ele>53</ele>
        <time>2015-09-07T20:18:17Z</time>
      </trkpt>
      <trkpt lat="48.87741" lon="2.35003">
        <ele>54.20000076294</ele>
        <time>2015-09-07T20:18:24Z</time>
      </trkpt>
      <trkpt lat="48.87743" lon="2.34992">
        <ele>55</ele>
        <time>2015-09-07T20:18:29Z</time>
      </trkpt>
      <trkpt lat="48.87744" lon="2.34989">
        <ele>55.20000076294</ele>
        <time>2015-09-07T20:18:30Z</time>
      </trkpt>
      <trkpt lat="48.8774" lon="2.34975">
        <ele>56.599998474121</ele>
        <time>2015-09-07T20:18:34Z</time>
      </trkpt>
      <trkpt lat="48.87734" lon="2.34946">
        <ele>57.79999923706</ele>
        <time>2015-09-07T20:18:40Z</time>
      </trkpt>
      <trkpt lat="48.87723" lon="2.34923">
        <ele>56.79999923706</ele>
        <time>2015-09-07T20:18:44Z</time>
      </trkpt>
      <trkpt lat="48.87708" lon="2.34903">
        <ele>56.599998474121</ele>
        <time>2015-09-07T20:18:49Z</time>
      </trkpt>
      <trkpt lat="48.87688" lon="2.34891">
        <ele>57.79999923706</ele>
        <time>2015-09-07T20:18:54Z</time>
      </trkpt>
      <trkpt lat="48.87668" lon="2.34881">
        <ele>58</ele>
        <time>2015-09-07T20:18:58Z</time>
      </trkpt>
      <trkpt lat="48.87646" lon="2.34867">
        <ele>58</ele>
        <time>2015-09-07T20:19:02Z</time>
      </trkpt>
      <trkpt lat="48.87628" lon="2.34857">
        <ele>58.20000076294</ele>
        <time>2015-09-07T20:19:05Z</time>
      </trkpt>
      <trkpt lat="48.87609" lon="2.34848">
        <ele>58.400001525879</ele>
        <time>2015-09-07T20:19:09Z</time>
      </trkpt>
      <trkpt lat="48.87591" lon="2.34837">
        <ele>58.20000076294</ele>
        <time>2015-09-07T20:19:14Z</time>
      </trkpt>
      <trkpt lat="48.87577" lon="2.34833">
        <ele>55.599998474121</ele>
        <time>2015-09-07T20:19:18Z</time>
      </trkpt>
      <trkpt lat="48.87557" lon="2.34827">
        <ele>53.20000076294</ele>
        <time>2015-09-07T20:19:22Z</time>
      </trkpt>
      <trkpt lat="48.87536" lon="2.34824">
        <ele>51.20000076294</ele>
        <time>2015-09-07T20:19:27Z</time>
      </trkpt>
      <trkpt lat="48.87516" lon="2.34822">
        <ele>50.20000076294</ele>
        <time>2015-09-07T20:19:32Z</time>
      </trkpt>
      <trkpt lat="48.87496" lon="2.3482">
        <ele>49.79999923706</ele>
        <time>2015-09-07T20:19:36Z</time>
      </trkpt>
      <trkpt lat="48.8749" lon="2.34819">
        <ele>49.599998474121</ele>
        <time>2015-09-07T20:19:37Z</time>
      </trkpt>
      <trkpt lat="48.87468" lon="2.34817">
        <ele>48.79999923706</ele>
        <time>2015-09-07T20:19:41Z</time>
      </trkpt>
      <trkpt lat="48.87448" lon="2.34811">
        <ele>48.599998474121</ele>
        <time>2015-09-07T20:19:45Z</time>
      </trkpt>
      <trkpt lat="48.87429" lon="2.34802">
        <ele>48.400001525879</ele>
        <time>2015-09-07T20:19:49Z</time>
      </trkpt>
      <trkpt lat="48.87411" lon="2.34796">
        <ele>48.20000076294</ele>
        <time>2015-09-07T20:19:53Z</time>
      </trkpt>
      <trkpt lat="48.87408" lon="2.34799">
        <ele>47.79999923706</ele>
        <time>2015-09-07T20:19:54Z</time>
      </trkpt>
      <trkpt lat="48.87401" lon="2.34801">
        <ele>47.20000076294</ele>
        <time>2015-09-07T20:19:56Z</time>
      </trkpt>
      <trkpt lat="48.8738" lon="2.34798">
        <ele>45.20000076294</ele>
        <time>2015-09-07T20:20:01Z</time>
      </trkpt>
      <trkpt lat="48.87361" lon="2.34798">
        <ele>43.400001525879</ele>
        <time>2015-09-07T20:20:05Z</time>
      </trkpt>
      <trkpt lat="48.87338" lon="2.34794">
        <ele>42</ele>
        <time>2015-09-07T20:20:09Z</time>
      </trkpt>
      <trkpt lat="48.87318" lon="2.34786">
        <ele>41.20000076294</ele>
        <time>2015-09-07T20:20:13Z</time>
      </trkpt>
      <trkpt lat="48.87297" lon="2.34786">
        <ele>39.79999923706</ele>
        <time>2015-09-07T20:20:17Z</time>
      </trkpt>
      <trkpt lat="48.87273" lon="2.34785">
        <ele>37.400001525879</ele>
        <time>2015-09-07T20:20:21Z</time>
      </trkpt>
      <trkpt lat="48.87257" lon="2.34787">
        <ele>35.79999923706</ele>
        <time>2015-09-07T20:20:24Z</time>
      </trkpt>
      <trkpt lat="48.87236" lon="2.34789">
        <ele>33</ele>
        <time>2015-09-07T20:20:28Z</time>
      </trkpt>
      <trkpt lat="48.87215" lon="2.34789">
        <ele>30.60000038147</ele>
        <time>2015-09-07T20:20:32Z</time>
      </trkpt>
      <trkpt lat="48.87201" lon="2.3479">
        <ele>29</ele>
        <time>2015-09-07T20:20:35Z</time>
      </trkpt>
      <trkpt lat="48.87181" lon="2.34792">
        <ele>27.39999961853</ele>
        <time>2015-09-07T20:20:39Z</time>
      </trkpt>
      <trkpt lat="48.8716" lon="2.34795">
        <ele>25</ele>
        <time>2015-09-07T20:20:44Z</time>
      </trkpt>
      <trkpt lat="48.87141" lon="2.34798">
        <ele>23.39999961853</ele>
        <time>2015-09-07T20:20:49Z</time>
      </trkpt>
      <trkpt lat="48.87118" lon="2.34798">
        <ele>21.799999237061</ele>
        <time>2015-09-07T20:20:54Z</time>
      </trkpt>
      <trkpt lat="48.87098" lon="2.34794">
        <ele>21.39999961853</ele>
        <time>2015-09-07T20:21:00Z</time>
      </trkpt>
      <trkpt lat="48.87096" lon="2.34793">
        <ele>21.799999237061</ele>
        <time>2015-09-07T20:21:01Z</time>
      </trkpt>
      <trkpt lat="48.87081" lon="2.34796">
        <ele>25.799999237061</ele>
        <time>2015-09-07T20:21:09Z</time>
      </trkpt>
      <trkpt lat="48.87078" lon="2.34797">
        <ele>26.799999237061</ele>
        <time>2015-09-07T20:21:10Z</time>
      </trkpt>
      <trkpt lat="48.87072" lon="2.34795">
        <ele>27.60000038147</ele>
        <time>2015-09-07T20:21:13Z</time>
      </trkpt>
      <trkpt lat="48.8706" lon="2.34794">
        <ele>28.39999961853</ele>
        <time>2015-09-07T20:21:17Z</time>
      </trkpt>
      <trkpt lat="48.87042" lon="2.34795">
        <ele>28.39999961853</ele>
        <time>2015-09-07T20:21:23Z</time>
      </trkpt>
      <trkpt lat="48.8702" lon="2.34796">
        <ele>28.60000038147</ele>
        <time>2015-09-07T20:21:29Z</time>
      </trkpt>
      <trkpt lat="48.86998" lon="2.34798">
        <ele>28.799999237061</ele>
        <time>2015-09-07T20:21:34Z</time>
      </trkpt>
      <trkpt lat="48.86978" lon="2.34799">
        <ele>28.60000038147</ele>
        <time>2015-09-07T20:21:38Z</time>
      </trkpt>
      <trkpt lat="48.86959" lon="2.34797">
        <ele>28.60000038147</ele>
        <time>2015-09-07T20:21:43Z</time>
      </trkpt>
      <trkpt lat="48.86941" lon="2.34788">
        <ele>28.39999961853</ele>
        <time>2015-09-07T20:21:48Z</time>
      </trkpt>
      <trkpt lat="48.86922" lon="2.34781">
        <ele>28.39999961853</ele>
        <time>2015-09-07T20:21:53Z</time>
      </trkpt>
      <trkpt lat="48.869" lon="2.34782">
        <ele>28.39999961853</ele>
        <time>2015-09-07T20:21:58Z</time>
      </trkpt>
      <trkpt lat="48.86882" lon="2.34783">
        <ele>28.200000762939</ele>
        <time>2015-09-07T20:22:03Z</time>
      </trkpt>
      <trkpt lat="48.86863" lon="2.34766">
        <ele>28.60000038147</ele>
        <time>2015-09-07T20:22:08Z</time>
      </trkpt>
      <trkpt lat="48.86855" lon="2.34762">
        <ele>28.799999237061</ele>
        <time>2015-09-07T20:22:11Z</time>
      </trkpt>
      <trkpt lat="48.8685" lon="2.34766">
        <ele>29.39999961853</ele>
        <time>2015-09-07T20:22:16Z</time>
      </trkpt>
      <trkpt lat="48.86827" lon="2.34742">
        <ele>35.20000076294</ele>
        <time>2015-09-07T20:22:31Z</time>
      </trkpt>
      <trkpt lat="48.86811" lon="2.3473">
        <ele>35.400001525879</ele>
        <time>2015-09-07T20:22:38Z</time>
      </trkpt>
      <trkpt lat="48.86799" lon="2.3474">
        <ele>37.599998474121</ele>
        <time>2015-09-07T20:22:52Z</time>
      </trkpt>
      <trkpt lat="48.86777" lon="2.34741">
        <ele>38.79999923706</ele>
        <time>2015-09-07T20:23:06Z</time>
      </trkpt>
      <trkpt lat="48.86758" lon="2.3474">
        <ele>37.79999923706</ele>
        <time>2015-09-07T20:23:09Z</time>
      </trkpt>
      <trkpt lat="48.86751" lon="2.34744">
        <ele>38.20000076294</ele>
        <time>2015-09-07T20:23:12Z</time>
      </trkpt>
      <trkpt lat="48.86731" lon="2.34738">
        <ele>38.79999923706</ele>
        <time>2015-09-07T20:23:20Z</time>
      </trkpt>
      <trkpt lat="48.8671" lon="2.34734">
        <ele>39.400001525879</ele>
        <time>2015-09-07T20:23:26Z</time>
      </trkpt>
      <trkpt lat="48.86692" lon="2.34733">
        <ele>38.79999923706</ele>
        <time>2015-09-07T20:23:30Z</time>
      </trkpt>
      <trkpt lat="48.86674" lon="2.34732">
        <ele>38</ele>
        <time>2015-09-07T20:23:34Z</time>
      </trkpt>
      <trkpt lat="48.86655" lon="2.34727">
        <ele>37.400001525879</ele>
        <time>2015-09-07T20:23:39Z</time>
      </trkpt>
      <trkpt lat="48.86634" lon="2.34727">
        <ele>37</ele>
        <time>2015-09-07T20:23:45Z</time>
      </trkpt>
      <trkpt lat="48.86613" lon="2.34724">
        <ele>37</ele>
        <time>2015-09-07T20:23:50Z</time>
      </trkpt>
      <trkpt lat="48.86595" lon="2.34719">
        <ele>36.79999923706</ele>
        <time>2015-09-07T20:23:55Z</time>
      </trkpt>
      <trkpt lat="48.86577" lon="2.34712">
        <ele>37.20000076294</ele>
        <time>2015-09-07T20:24:01Z</time>
      </trkpt>
      <trkpt lat="48.86558" lon="2.34708">
        <ele>36.599998474121</ele>
        <time>2015-09-07T20:24:06Z</time>
      </trkpt>
      <trkpt lat="48.86539" lon="2.34708">
        <ele>35.79999923706</ele>
        <time>2015-09-07T20:24:11Z</time>
      </trkpt>
      <trkpt lat="48.86519" lon="2.34698">
        <ele>35.599998474121</ele>
        <time>2015-09-07T20:24:16Z</time>
      </trkpt>
      <trkpt lat="48.865" lon="2.34694">
        <ele>35.79999923706</ele>
        <time>2015-09-07T20:24:24Z</time>
      </trkpt>
      <trkpt lat="48.86486" lon="2.3469">
        <ele>36.400001525879</ele>
        <time>2015-09-07T20:24:30Z</time>
      </trkpt>
      <trkpt lat="48.86481" lon="2.34687">
        <ele>36.79999923706</ele>
        <time>2015-09-07T20:24:34Z</time>
      </trkpt>
      <trkpt lat="48.8648" lon="2.34687">
        <ele>37</ele>
        <time>2015-09-07T20:24:35Z</time>
      </trkpt>
      <trkpt lat="48.8646" lon="2.34667">
        <ele>39.20000076294</ele>
        <time>2015-09-07T20:24:44Z</time>
      </trkpt>
      <trkpt lat="48.86443" lon="2.34659">
        <ele>40.20000076294</ele>
        <time>2015-09-07T20:24:52Z</time>
      </trkpt>
      <trkpt lat="48.86425" lon="2.34652">
        <ele>40.599998474121</ele>
        <time>2015-09-07T20:24:59Z</time>
      </trkpt>
      <trkpt lat="48.86405" lon="2.34651">
        <ele>40.79999923706</ele>
        <time>2015-09-07T20:25:04Z</time>
      </trkpt>
      <trkpt lat="48.86385" lon="2.34654">
        <ele>40.20000076294</ele>
        <time>2015-09-07T20:25:11Z</time>
      </trkpt>
      <trkpt lat="48.86364" lon="2.34649">
        <ele>37.79999923706</ele>
        <time>2015-09-07T20:25:18Z</time>
      </trkpt>
      <trkpt lat="48.86351" lon="2.34638">
        <ele>34.79999923706</ele>
        <time>2015-09-07T20:25:20Z</time>
      </trkpt>
      <trkpt lat="48.86331" lon="2.34632">
        <ele>35.599998474121</ele>
        <time>2015-09-07T20:25:26Z</time>
      </trkpt>
      <trkpt lat="48.86327" lon="2.34623">
        <ele>36</ele>
        <time>2015-09-07T20:25:29Z</time>
      </trkpt>
      <trkpt lat="48.86312" lon="2.34607">
        <ele>37.400001525879</ele>
        <time>2015-09-07T20:25:36Z</time>
      </trkpt>
      <trkpt lat="48.86309" lon="2.34601">
        <ele>38</ele>
        <time>2015-09-07T20:25:38Z</time>
      </trkpt>
      <trkpt lat="48.86309" lon="2.34573">
        <ele>41</ele>
        <time>2015-09-07T20:25:45Z</time>
      </trkpt>
      <trkpt lat="48.86307" lon="2.34543">
        <ele>50</ele>
        <time>2015-09-07T20:25:54Z</time>
      </trkpt>
      <trkpt lat="48.86298" lon="2.3452">
        <ele>53</ele>
        <time>2015-09-07T20:26:02Z</time>
      </trkpt>
      <trkpt lat="48.86282" lon="2.34506">
        <ele>56</ele>
        <time>2015-09-07T20:26:13Z</time>
      </trkpt>
      <trkpt lat="48.86267" lon="2.34484">
        <ele>52.79999923706</ele>
        <time>2015-09-07T20:26:27Z</time>
      </trkpt>
      <trkpt lat="48.86249" lon="2.34474">
        <ele>49.599998474121</ele>
        <time>2015-09-07T20:26:35Z</time>
      </trkpt>
      <trkpt lat="48.86239" lon="2.34459">
        <ele>46</ele>
        <time>2015-09-07T20:26:44Z</time>
      </trkpt>
      <trkpt lat="48.8622" lon="2.34456">
        <ele>42.400001525879</ele>
        <time>2015-09-07T20:26:54Z</time>
      </trkpt>
      <trkpt lat="48.86202" lon="2.34448">
        <ele>40.79999923706</ele>
        <time>2015-09-07T20:27:03Z</time>
      </trkpt>
      <trkpt lat="48.86186" lon="2.34438">
        <ele>42.400001525879</ele>
        <time>2015-09-07T20:27:11Z</time>
      </trkpt>
      <trkpt lat="48.86189" lon="2.34429">
        <ele>42.20000076294</ele>
        <time>2015-09-07T20:27:46Z</time>
      </trkpt>
      <trkpt lat="48.86186" lon="2.34425">
        <ele>42.599998474121</ele>
        <time>2015-09-07T20:27:49Z</time>
      </trkpt>
      <trkpt lat="48.86166" lon="2.34418">
        <ele>43.79999923706</ele>
        <time>2015-09-07T20:27:57Z</time>
      </trkpt>
      <trkpt lat="48.86159" lon="2.34425">
        <ele>44</ele>
        <time>2015-09-07T20:28:00Z</time>
      </trkpt>
      <trkpt lat="48.86149" lon="2.34446">
        <ele>43.400001525879</ele>
        <time>2015-09-07T20:28:06Z</time>
      </trkpt>
      <trkpt lat="48.86142" lon="2.34476">
        <ele>41.599998474121</ele>
        <time>2015-09-07T20:28:12Z</time>
      </trkpt>
      <trkpt lat="48.86132" lon="2.34504">
        <ele>38.599998474121</ele>
        <time>2015-09-07T20:28:18Z</time>
      </trkpt>
      <trkpt lat="48.86124" lon="2.34534">
        <ele>37.20000076294</ele>
        <time>2015-09-07T20:28:24Z</time>
      </trkpt>
      <trkpt lat="48.86109" lon="2.34559">
        <ele>36.79999923706</ele>
        <time>2015-09-07T20:28:29Z</time>
      </trkpt>
      <trkpt lat="48.86092" lon="2.34584">
        <ele>35.400001525879</ele>
        <time>2015-09-07T20:28:34Z</time>
      </trkpt>
      <trkpt lat="48.86077" lon="2.34601">
        <ele>35.400001525879</ele>
        <time>2015-09-07T20:28:38Z</time>
      </trkpt>
      <trkpt lat="48.86062" lon="2.34616">
        <ele>36.599998474121</ele>
        <time>2015-09-07T20:28:43Z</time>
      </trkpt>
      <trkpt lat="48.86057" lon="2.34622">
        <ele>37</ele>
        <time>2015-09-07T20:28:45Z</time>
      </trkpt>
      <trkpt lat="48.86047" lon="2.3463">
        <ele>36.79999923706</ele>
        <time>2015-09-07T20:28:49Z</time>
      </trkpt>
      <trkpt lat="48.86029" lon="2.3464">
        <ele>37.79999923706</ele>
        <time>2015-09-07T20:28:56Z</time>
      </trkpt>
      <trkpt lat="48.86008" lon="2.34654">
        <ele>39.599998474121</ele>
        <time>2015-09-07T20:29:00Z</time>
      </trkpt>
      <trkpt lat="48.85987" lon="2.34669">
        <ele>38.79999923706</ele>
        <time>2015-09-07T20:29:04Z</time>
      </trkpt>
      <trkpt lat="48.85977" lon="2.34679">
        <ele>39.20000076294</ele>
        <time>2015-09-07T20:29:07Z</time>
      </trkpt>
      <trkpt lat="48.85977" lon="2.34696">
        <ele>39.79999923706</ele>
        <time>2015-09-07T20:29:11Z</time>
      </trkpt>
      <trkpt lat="48.85977" lon="2.34699">
        <ele>39.599998474121</ele>
        <time>2015-09-07T20:29:12Z</time>
      </trkpt>
      <trkpt lat="48.85987" lon="2.34722">
        <ele>38.20000076294</ele>
        <time>2015-09-07T20:29:19Z</time>
      </trkpt>
      <trkpt lat="48.85995" lon="2.34735">
        <ele>37.599998474121</ele>
        <time>2015-09-07T20:29:27Z</time>
      </trkpt>
      <trkpt lat="48.85989" lon="2.34741">
        <ele>37.20000076294</ele>
        <time>2015-09-07T20:29:35Z</time>
      </trkpt>
    </trkseg>
  </trk>
</gpx>